GFSNW_925_thetae_000.txt.gz
Theta_e
304 304 303 303 303 303 305 305 307 308 312 315 314 314 314 311 313 313 313 315 316 318 321 322 323 323 324 325 326 329 330 330 329 324 325 324 326 329 332 335 340 336 336 335
305 305 304 303 304 304 304 307 306 306 308 309 310 313 313 313 313 313 313 313 315 317 318 321 321 321 321 322 325 328 329 330 332 330 324 324 324 326 329 332 334 343 337 336
305 304 303 303 303 303 303 307 306 308 312 310 313 314 315 314 313 314 314 315 316 315 317 319 320 322 321 323 324 339 332 328 330 330 329 326 325 324 326 328 334 335 335 335
304 304 303 303 303 302 304 306 307 309 308 314 315 316 315 314 313 314 316 316 318 318 318 319 321 322 324 325 330 331 337 338 333 329 328 328 327 325 324 326 327 333 333 333
304 304 303 303 303 302 303 306 308 309 308 308 309 309 312 314 313 315 317 318 317 317 319 320 320 320 322 322 326 327 330 338 336 335 331 330 329 327 325 325 325 327 329 331
304 304 303 303 303 302 304 304 304 304 305 304 306 308 309 310 313 313 314 316 317 318 320 321 322 323 325 326 327 329 333 336 341 339 334 333 333 331 328 326 325 326 328 329
304 304 304 302 303 302 302 304 303 304 306 305 306 306 308 309 310 313 313 313 313 316 314 315 318 321 323 324 326 329 335 341 340 339 339 340 331 331 330 327 325 327 329 330
304 304 304 304 303 303 302 303 302 304 305 305 305 305 306 309 309 311 312 311 311 312 312 317 321 323 326 326 326 328 332 336 339 338 338 336 334 335 330 329 327 326 329 331
304 304 304 304 303 303 302 302 302 303 305 305 305 305 307 310 310 310 310 310 311 312 313 320 326 325 325 326 328 330 332 335 338 338 338 339 342 340 339 341 339 329 329 331
303 303 304 304 303 303 302 303 304 304 306 305 305 306 306 308 310 312 310 310 311 316 325 324 326 325 325 326 332 336 338 339 335 337 340 338 342 338 339 345 336 330 337 339
302 303 304 304 303 303 302 302 303 303 304 304 306 306 305 306 309 312 311 311 314 318 329 328 325 327 327 327 332 340 340 339 335 338 342 341 337 339 346 346 343 342 343 343
301 302 303 303 302 301 302 303 304 304 304 304 304 304 304 305 305 307 308 310 310 311 322 328 331 337 334 331 331 336 337 334 335 337 335 338 335 338 338 340 342 342 343 343
302 302 301 303 302 302 302 302 303 304 305 305 306 307 305 304 303 305 309 308 308 314 313 316 325 335 336 340 338 335 336 335 338 340 338 337 336 335 335 336 337 338 338 338
301 301 301 301 301 301 301 302 303 303 304 305 306 305 306 305 305 304 306 307 308 310 312 319 323 333 332 337 340 342 336 336 339 339 337 334 333 332 332 332 333 335 336 336
302 301 300 301 301 302 302 303 303 303 304 305 304 303 308 307 304 306 306 307 306 310 313 323 325 324 328 333 336 333 328 337 339 337 336 335 328 326 326 328 329 331 332 332
302 300 301 301 301 302 303 304 303 304 303 303 307 307 309 310 308 307 308 309 309 311 314 322 319 319 327 334 332 324 326 330 332 334 329 324 323 322 322 323 324 325 326 327
301 301 301 301 302 303 304 304 303 302 303 304 308 312 312 311 312 312 311 311 312 313 316 318 322 326 326 325 328 324 325 326 327 325 324 324 323 324 322 322 321 321 322 323
300 300 300 301 300 301 303 304 302 302 304 304 309 313 315 312 314 314 312 313 312 315 316 318 325 325 325 326 324 323 323 322 322 322 322 321 320 322 322 321 321 321 322 322
301 301 300 303 303 304 305 303 305 303 303 308 310 313 316 314 313 315 314 313 314 316 321 328 325 324 327 324 323 323 323 322 322 321 320 321 323 323 321 321 322 323 323 323
303 304 306 307 306 305 306 307 308 307 306 306 310 310 315 314 317 315 315 316 317 322 326 325 324 324 321 321 321 321 319 322 321 321 320 320 323 323 322 322 322 322 323 323
305 306 308 307 306 308 309 310 311 312 313 312 313 314 315 315 319 320 319 320 321 323 326 327 325 321 322 321 321 321 321 321 322 323 322 321 323 322 322 322 322 323 324 324
304 303 304 306 310 311 311 313 313 313 316 315 316 315 314 314 316 320 320 320 321 324 324 327 322 320 320 321 321 322 322 322 323 321 320 320 320 321 321 321 321 321 322 323
306 307 308 310 311 314 316 317 316 318 316 317 317 318 315 318 318 320 321 321 325 321 325 327 324 323 322 322 321 322 321 320 319 319 318 318 319 319 320 321 321 320 321 322
308 308 310 307 311 313 315 316 317 316 317 317 317 319 319 318 319 320 321 323 323 325 325 327 324 323 322 321 320 319 319 318 318 318 318 318 319 320 320 321 321 321 322 324
307 304 308 311 310 313 314 315 315 315 316 317 319 317 318 319 321 320 322 322 325 325 323 324 325 323 323 323 322 321 320 320 320 320 319 319 319 319 319 322 323 323 323 324
311 311 313 313 314 313 313 314 316 315 316 318 316 316 317 320 321 322 324 323 322 322 321 322 323 324 323 324 322 322 322 322 321 320 320 319 319 320 321 320 320 322 324 324
312 313 312 313 313 313 312 313 314 314 317 318 317 320 321 320 321 320 318 315 313 321 322 323 324 324 324 324 323 323 322 322 321 321 321 322 321 319 319 321 320 320 320 322

GFSNW_925_thetae_003.txt.gz
Theta_e
305 305 305 305 304 304 306 308 312 311 312 317 316 318 317 315 317 317 316 316 319 322 323 324 325 326 326 327 327 328 328 329 332 330 329 327 326 327 328 336 341 336 339 338
305 305 304 305 303 304 305 309 311 309 309 310 312 313 315 316 317 317 317 316 316 318 320 322 324 325 325 326 327 329 329 330 332 333 330 328 327 327 327 329 335 343 339 338
305 305 304 305 304 304 304 309 311 311 311 311 311 311 313 314 315 315 316 316 317 316 317 320 321 323 324 325 324 332 331 331 332 334 333 328 327 326 326 328 332 334 335 337
305 305 304 304 304 304 303 308 309 310 312 312 312 313 316 315 317 316 316 316 316 317 318 317 319 321 324 324 327 327 330 333 332 331 331 331 328 325 325 326 328 332 333 335
305 305 304 304 303 304 303 309 309 309 309 310 309 309 311 310 311 313 314 315 316 317 318 320 319 320 323 325 325 328 330 336 334 332 330 329 329 329 326 326 326 327 329 331
305 305 304 304 303 303 304 305 306 308 307 308 308 308 309 310 309 309 312 315 316 319 319 319 320 322 323 324 327 330 333 336 340 340 335 334 333 330 329 329 328 327 327 329
304 305 304 304 303 303 304 303 304 308 308 307 308 308 306 308 309 312 312 312 315 317 314 316 319 320 323 324 326 325 330 334 334 337 338 340 334 335 333 331 330 329 328 328
304 305 304 304 304 303 304 304 302 304 308 306 307 308 308 307 308 309 308 309 311 311 313 317 321 321 321 322 322 327 330 333 335 338 340 342 338 341 341 343 339 332 331 329
304 304 305 305 304 303 304 305 304 303 306 307 307 308 308 309 309 310 310 309 311 311 314 316 320 321 320 322 321 322 327 332 337 340 340 341 335 341 340 339 340 333 333 331
304 304 304 304 304 303 304 304 303 303 305 305 306 308 308 309 309 313 313 313 312 311 314 316 317 318 318 321 323 324 325 329 332 335 338 336 342 340 340 341 341 347 345 344
303 302 304 304 303 303 303 305 305 304 306 305 306 307 308 306 309 310 313 314 314 316 320 322 319 319 321 323 325 328 326 332 332 334 335 337 340 339 341 346 344 345 345 344
301 302 303 303 303 302 302 304 303 303 305 306 305 306 305 306 307 308 309 311 311 314 321 324 324 331 332 327 329 326 331 330 332 332 335 343 340 342 341 341 343 344 344 343
301 302 302 302 302 301 302 303 304 304 306 307 308 308 307 307 305 305 308 309 311 314 314 315 321 330 335 337 333 330 333 332 335 337 341 341 340 338 338 338 339 340 342 344
301 302 302 302 302 302 301 305 304 304 306 308 307 307 308 307 307 306 306 308 311 309 312 314 322 327 329 334 339 344 337 338 337 343 341 338 336 336 335 336 337 337 340 341
302 301 301 301 301 302 303 304 306 305 305 308 307 306 308 307 306 308 306 307 309 309 312 317 324 324 326 333 336 330 328 335 343 340 340 338 333 330 330 331 331 331 333 335
301 302 302 301 301 301 304 307 305 305 306 307 307 309 311 311 307 309 310 310 311 311 314 315 322 321 324 332 330 326 329 333 335 337 333 328 326 325 324 324 324 325 326 327
301 301 300 301 302 303 305 306 304 302 305 305 308 311 313 314 312 311 312 312 312 313 313 316 324 324 325 324 328 327 326 329 329 330 330 330 328 325 322 324 322 322 324 325
301 301 301 301 301 302 304 305 304 303 305 306 309 312 317 315 315 316 314 314 313 317 316 322 322 324 325 325 324 323 323 325 326 325 327 327 326 324 324 324 324 322 322 324
302 302 303 304 305 306 309 305 305 303 304 308 309 314 317 316 317 316 314 314 315 315 318 325 324 323 324 323 321 323 322 322 324 323 324 324 323 321 322 323 323 324 324 323
305 306 307 311 308 306 307 309 310 306 308 306 310 314 317 317 317 314 314 314 316 321 324 321 322 320 320 321 320 322 322 320 320 321 323 324 324 323 323 322 321 320 324 325
307 308 309 308 308 309 312 313 313 313 314 313 316 319 320 317 321 320 320 325 321 324 327 325 322 322 320 319 320 322 322 323 319 318 319 321 321 324 324 322 322 323 324 324
306 305 305 308 311 313 313 315 315 316 318 318 319 319 318 317 317 322 325 323 323 326 323 321 323 323 321 320 320 320 322 322 321 321 322 323 323 321 322 322 322 323 324 324
308 309 311 311 313 316 315 318 316 318 318 319 320 320 318 320 322 321 326 322 325 324 325 322 320 320 321 322 322 321 322 320 320 320 320 320 320 321 321 323 322 322 323 324
310 311 312 309 315 316 318 319 318 318 319 319 318 318 321 322 322 322 323 322 323 326 325 323 322 322 322 323 322 322 321 320 320 319 319 319 320 321 322 322 322 322 324 324
310 310 312 314 314 316 316 318 316 316 317 317 318 319 319 320 322 322 323 324 322 322 326 325 322 322 322 322 321 320 320 320 320 320 320 319 320 321 321 323 322 323 324 324
314 313 314 314 315 314 314 316 317 317 318 318 319 319 320 321 321 322 322 322 319 318 324 324 324 323 322 322 322 322 321 321 320 320 319 319 319 320 321 320 321 322 323 324
312 313 311 312 312 314 316 316 317 318 319 319 318 320 321 319 320 320 316 316 315 319 321 323 322 324 323 322 322 322 321 322 321 320 321 322 320 319 320 323 319 319 319 320

GFSNW_925_thetae_006.txt.gz
Theta_e
304 304 304 305 305 304 306 308 311 312 314 316 317 318 317 315 317 318 319 319 319 320 321 326 327 328 328 328 328 328 329 328 331 329 330 328 328 328 327 329 338 335 337 340
304 304 304 304 304 304 306 308 309 308 309 313 313 314 315 317 318 319 320 319 319 319 319 323 323 326 327 328 327 328 329 330 333 329 330 331 329 327 327 326 329 337 338 338
305 304 304 304 304 304 305 308 309 310 311 311 312 312 313 313 314 316 317 319 320 320 320 320 321 322 324 326 327 336 329 329 334 333 333 331 332 329 328 328 328 331 333 339
305 305 304 304 304 304 304 307 309 309 311 312 312 314 315 315 316 315 317 318 318 319 320 319 319 319 320 324 328 329 328 333 332 330 329 331 331 329 328 329 330 332 331 333
305 305 304 304 304 303 305 307 308 310 310 309 309 308 311 311 314 314 313 316 316 317 319 320 321 320 323 324 325 326 326 333 332 333 331 331 332 331 329 328 329 330 330 331
304 305 304 304 304 303 305 304 305 308 308 308 308 307 307 310 310 311 312 311 313 316 317 317 317 317 319 322 325 330 330 329 337 336 332 332 333 333 331 330 327 328 329 331
304 305 305 305 304 304 304 305 305 305 310 308 308 308 307 308 311 310 311 312 314 314 313 314 317 317 320 321 323 326 334 333 334 338 338 338 332 331 330 330 330 329 330 331
304 304 305 305 304 304 304 305 305 304 307 307 307 308 307 309 311 312 309 310 311 311 311 316 317 319 322 323 324 326 329 336 336 340 341 337 335 334 335 334 335 334 332 335
304 304 305 305 305 304 304 305 305 304 306 306 306 309 308 308 310 311 311 312 312 311 312 316 320 323 324 324 325 325 327 337 335 339 338 343 341 340 339 339 341 344 345 344
304 305 305 305 305 304 304 305 305 304 302 305 306 308 308 309 310 312 312 314 314 313 310 315 319 321 321 324 326 325 328 332 334 337 336 335 340 339 338 343 343 345 345 345
304 304 304 303 304 304 304 305 306 304 305 305 306 307 308 307 309 311 311 310 315 314 311 312 315 319 320 321 325 328 327 326 331 338 343 344 339 340 343 345 343 342 342 343
304 303 304 303 303 303 303 305 305 306 306 305 304 306 307 306 307 309 309 310 311 316 317 320 322 322 326 326 326 323 325 326 328 331 334 336 342 346 343 341 342 345 348 344
302 303 303 304 304 303 303 304 305 305 305 306 308 308 308 308 308 306 309 308 310 313 315 318 320 325 328 332 328 328 326 332 329 332 335 341 341 339 339 340 345 345 346 348
303 303 303 303 303 302 302 304 304 306 306 308 306 306 308 308 309 309 307 307 310 312 313 315 318 323 324 326 330 337 336 334 341 335 347 343 341 340 340 340 340 341 339 339
302 302 302 302 302 302 303 304 305 305 305 308 308 307 307 309 308 309 308 308 309 310 311 317 318 322 323 327 328 329 330 335 341 348 343 342 340 337 333 334 335 335 335 335
302 301 301 301 301 301 304 307 306 307 306 307 308 309 310 311 309 308 310 309 310 310 314 316 315 318 323 328 328 327 330 332 334 332 333 329 329 327 327 328 327 327 329 330
302 303 302 301 301 303 305 307 306 303 304 307 308 310 314 314 310 310 311 310 311 313 315 315 317 323 324 326 328 327 328 330 329 328 328 329 327 327 325 325 326 326 328 328
303 303 302 302 302 303 305 305 305 304 305 305 309 312 315 314 312 313 314 314 313 316 316 315 323 322 322 326 326 326 325 328 329 330 327 326 327 327 325 326 326 326 325 326
304 304 305 306 306 307 310 305 306 304 305 308 310 312 317 313 316 317 314 314 314 317 318 321 323 321 323 323 324 323 324 326 326 326 325 325 325 324 324 325 324 326 327 326
306 307 309 312 310 307 307 308 309 307 307 307 310 313 317 312 313 315 315 314 316 321 321 321 321 320 320 320 322 321 321 321 325 325 325 323 325 325 323 323 323 322 320 322
309 309 310 309 308 310 312 313 312 312 313 312 314 318 321 316 321 323 323 325 323 324 320 324 321 321 320 320 321 322 320 319 320 322 323 322 321 320 319 321 321 322 323 319
306 305 306 309 313 314 312 312 313 314 313 316 320 320 320 321 318 321 323 325 323 326 322 321 322 320 320 319 320 321 320 320 322 322 324 324 324 324 322 321 323 324 325 325
310 311 313 313 314 317 317 318 312 318 317 320 320 322 320 322 323 320 322 323 327 323 323 322 320 320 320 320 320 319 319 320 321 321 321 321 323 322 322 323 324 323 325 324
312 312 318 315 316 315 317 319 319 319 320 322 318 320 320 317 320 323 324 323 323 325 326 324 321 320 321 322 322 323 322 321 320 321 320 322 324 323 323 322 322 324 325 325
314 315 320 317 317 319 319 318 319 320 319 320 320 320 321 322 323 323 323 322 323 321 326 323 323 322 323 324 323 323 322 322 321 321 321 322 322 324 324 324 324 324 324 325
316 315 314 314 314 315 316 318 318 320 320 320 320 320 320 320 321 320 319 321 320 318 322 322 322 323 322 322 323 323 321 321 323 322 322 323 322 323 322 320 322 321 322 324
312 313 313 314 316 317 317 318 319 319 320 321 320 322 323 320 320 317 316 318 318 320 321 321 321 322 321 323 324 324 322 324 322 321 322 319 322 321 322 325 322 320 320 322

GFSNW_925_thetae_009.txt.gz
Theta_e
304 304 304 304 304 304 305 306 308 307 307 309 313 314 315 314 316 317 317 317 317 318 318 319 318 319 321 327 327 326 324 323 324 324 325 326 324 323 320 323 323 326 325 328
304 304 304 305 304 304 305 306 306 306 308 309 312 313 314 314 314 314 315 317 318 319 319 320 320 320 320 321 322 326 326 325 325 326 325 325 325 324 322 322 321 324 330 329
304 304 304 304 304 304 304 306 307 307 308 309 310 312 312 314 313 314 314 315 317 318 319 318 320 320 321 320 320 337 330 324 326 327 327 325 328 326 325 322 322 322 323 323
304 304 303 304 304 304 304 307 307 306 308 310 308 310 311 311 311 311 311 314 315 315 319 318 320 320 319 320 323 323 321 326 325 326 328 327 326 328 326 325 323 323 323 323
304 304 304 303 303 304 304 306 307 306 305 306 307 308 308 308 308 310 310 312 314 313 317 317 319 317 317 318 318 317 318 326 329 330 329 327 327 328 329 325 325 325 325 325
305 304 304 304 303 304 304 304 305 305 306 305 306 308 308 309 309 309 310 311 311 313 313 313 314 313 313 315 318 318 319 324 331 328 330 330 329 327 328 329 326 326 325 325
304 305 304 304 304 304 304 305 305 306 305 305 306 305 306 307 308 309 309 310 312 311 313 312 312 314 315 317 318 317 320 320 327 327 332 335 331 330 330 330 332 327 326 326
304 305 305 305 304 304 304 305 305 305 306 305 306 305 306 307 308 308 309 310 311 311 312 314 316 317 318 318 319 319 320 321 328 328 330 331 333 331 332 330 329 335 343 342
304 304 305 305 305 304 304 304 305 304 304 305 305 307 306 307 308 309 309 310 311 312 312 317 317 321 322 321 323 320 320 326 329 327 331 333 331 337 338 338 342 346 345 345
304 304 305 305 305 304 305 305 304 303 302 303 304 306 308 308 309 309 308 310 310 312 312 316 318 317 318 321 325 327 326 329 330 333 329 334 340 339 337 341 348 344 343 344
304 304 304 305 305 304 304 305 304 305 304 304 304 305 306 307 308 310 310 310 310 311 317 311 316 316 316 321 322 323 326 330 329 335 338 338 341 339 343 347 345 349 349 349
303 304 305 305 305 304 304 304 304 305 306 305 304 305 305 305 306 308 308 310 308 308 316 319 320 316 323 324 327 322 326 329 331 327 334 340 340 339 342 342 348 349 349 351
303 304 304 304 304 304 304 304 304 304 305 305 305 306 306 306 306 306 308 308 309 311 313 315 319 322 324 328 326 331 327 332 330 337 329 336 337 337 346 344 343 340 343 344
304 304 304 304 304 303 304 303 304 304 305 306 306 305 306 306 307 308 307 308 307 311 312 315 317 319 322 325 325 328 333 331 336 338 340 341 341 342 341 341 338 336 336 337
302 304 304 303 302 302 302 303 304 305 305 306 305 305 307 307 307 307 309 309 308 309 311 316 318 319 321 323 325 327 327 334 336 340 334 335 337 332 333 335 334 332 332 335
303 303 303 304 303 302 303 307 305 305 305 305 309 306 308 311 312 312 310 309 308 308 315 317 317 315 319 324 325 325 325 328 331 334 328 328 327 326 327 328 328 328 329 330
304 305 305 304 303 303 304 307 306 306 304 307 308 308 312 311 313 309 309 309 309 311 316 316 317 317 318 324 323 324 326 329 329 328 328 329 327 326 325 324 324 324 326 328
304 304 304 304 304 304 305 306 304 303 305 306 308 309 313 311 314 311 311 311 313 315 317 316 315 317 320 325 323 326 325 329 329 328 327 327 326 325 325 325 325 326 326 324
306 306 306 306 306 308 309 306 306 305 305 308 309 311 313 312 315 316 316 315 315 316 316 315 316 320 322 322 321 324 326 327 328 327 326 324 324 325 326 324 324 325 325 325
308 309 310 313 310 309 307 308 309 307 306 306 308 309 313 315 314 317 318 316 316 317 315 319 318 319 319 320 322 322 322 324 324 325 326 326 325 323 323 324 322 321 323 325
309 310 310 308 309 310 311 311 310 311 310 310 311 315 317 316 318 319 319 321 320 320 321 321 320 319 319 319 320 320 321 322 323 322 321 321 321 322 322 322 324 324 323 323
306 305 307 308 314 313 312 311 310 309 312 311 317 319 318 319 315 320 320 323 320 324 322 321 319 318 319 319 320 320 320 321 322 323 324 323 320 317 318 322 324 325 325 325
311 310 314 312 314 315 316 314 310 313 317 320 320 321 317 318 318 321 320 318 324 322 322 319 319 319 319 320 320 319 319 321 322 322 322 321 323 323 323 324 325 325 325 327
314 315 312 318 318 315 317 319 316 316 319 319 321 320 319 318 321 318 324 324 323 325 323 319 318 317 318 318 320 321 321 321 321 322 322 323 324 324 324 325 325 325 324 325
318 316 312 318 317 317 318 317 319 318 322 322 322 322 321 321 323 321 322 321 320 320 324 322 320 320 321 322 321 321 321 322 322 322 321 323 323 323 322 322 323 324 323 321
318 316 317 317 318 318 318 318 317 318 318 320 319 322 321 321 318 318 318 320 318 318 320 321 321 320 321 321 321 321 322 323 320 320 322 322 321 323 323 322 322 320 323 323
314 316 317 318 319 319 319 318 318 318 318 319 321 321 322 317 315 316 317 318 319 320 320 319 319 320 320 319 320 320 321 319 318 318 319 319 317 318 318 318 318 317 318 318

GFSNW_925_thetae_012.txt.gz
Theta_e
303 303 303 303 304 304 303 303 303 304 304 302 304 311 310 311 312 312 313 314 315 316 316 317 317 318 317 319 319 318 318 318 320 322 320 322 323 322 317 321 319 319 322 324
303 303 303 303 304 304 304 302 301 305 305 304 306 308 310 311 312 310 312 312 313 314 316 317 317 317 319 317 318 322 321 322 323 320 319 319 321 322 321 314 315 320 323 322
303 304 303 303 303 304 303 301 304 299 301 305 305 307 310 310 310 310 310 310 313 313 313 314 316 318 318 316 318 321 315 318 319 324 323 321 321 323 321 320 322 321 321 323
304 304 304 303 303 304 303 300 302 302 303 305 305 305 306 309 310 308 308 310 310 313 313 315 317 316 316 314 318 314 314 316 319 321 323 323 324 323 323 321 321 321 322 318
304 304 304 303 303 304 303 304 305 303 302 301 302 304 306 309 309 308 308 309 310 309 313 313 315 313 314 313 313 312 312 316 318 323 324 324 325 325 325 324 323 322 319 319
304 305 304 304 304 304 303 304 304 304 304 302 302 303 305 305 306 308 308 308 309 310 311 310 311 311 312 312 313 313 314 314 317 321 323 325 326 326 325 324 323 323 321 320
305 305 304 304 304 304 304 304 304 306 305 303 303 304 304 305 307 308 306 306 308 309 308 309 309 309 310 312 313 313 315 316 315 321 322 328 327 326 325 324 326 324 322 321
304 304 305 305 304 304 304 304 305 305 305 304 304 305 305 305 304 304 307 307 307 307 308 309 311 313 314 315 314 315 316 317 319 323 325 324 330 329 326 324 326 335 326 330
304 305 305 305 304 304 304 304 304 304 304 304 304 304 304 303 303 306 307 305 305 307 310 312 312 315 319 321 320 318 320 317 319 323 327 330 326 333 333 330 348 343 342 340
304 305 305 305 305 304 304 304 303 304 303 303 302 303 303 303 304 305 305 308 307 308 311 313 314 315 315 320 321 323 326 326 323 326 331 327 338 337 334 336 335 341 341 340
304 305 305 305 305 304 304 303 303 304 303 303 302 302 304 303 303 306 305 307 307 306 312 314 313 313 313 316 318 325 328 331 334 329 337 342 326 336 334 335 348 349 351 348
304 304 304 304 304 304 304 304 303 303 304 305 304 304 304 304 304 302 303 308 307 308 311 312 314 314 316 317 323 324 329 327 330 327 334 326 325 338 343 341 343 344 345 345
302 304 304 304 304 304 304 304 304 304 304 302 302 303 304 304 304 304 305 304 307 308 306 309 311 318 318 321 322 326 326 327 327 330 329 332 341 342 339 337 340 339 338 338
304 304 304 304 304 303 304 304 302 303 305 305 304 304 303 304 304 304 304 305 306 308 308 309 308 314 317 320 324 324 327 328 332 330 329 331 334 338 337 335 335 335 334 335
302 304 304 305 304 304 303 301 302 303 305 306 306 303 304 306 307 304 305 305 306 306 308 311 314 316 316 320 321 324 325 330 335 337 331 331 330 334 333 332 331 331 331 332
303 304 304 305 305 304 303 302 305 305 305 305 305 301 303 306 310 308 305 306 306 305 305 311 314 314 316 318 323 323 322 323 325 331 326 326 328 326 326 327 327 328 328 326
305 305 305 305 305 305 303 302 305 305 305 305 307 304 306 310 308 306 304 304 304 307 310 314 315 316 311 317 323 322 323 325 329 327 327 328 326 327 326 325 326 325 327 330
305 305 306 306 305 306 306 306 306 303 303 305 308 307 309 309 311 311 311 307 310 312 313 313 315 314 314 321 320 319 321 325 328 326 326 326 326 325 324 323 323 325 326 327
307 308 309 307 306 306 308 307 306 304 305 308 308 310 312 310 313 313 313 314 315 313 314 314 314 319 319 320 320 322 324 328 327 325 324 325 326 326 323 323 322 323 324 325
309 309 309 309 310 309 307 309 308 305 306 306 306 308 311 310 314 314 314 315 314 313 313 315 315 317 317 318 321 321 323 324 324 325 325 322 323 323 323 323 323 322 321 323
307 304 307 307 308 309 310 310 309 309 310 308 308 309 310 313 317 315 317 316 315 314 318 319 318 316 319 320 322 322 321 321 321 321 320 321 322 322 323 324 324 323 323 324
307 306 306 307 309 311 311 305 306 307 310 312 313 317 316 316 315 314 318 319 318 322 320 318 317 318 319 320 321 320 320 321 322 322 323 322 319 319 321 322 323 324 324 325
310 308 310 309 310 314 312 312 312 314 314 316 318 318 316 316 317 318 317 319 322 322 318 315 315 318 318 318 320 321 321 321 321 323 323 322 323 322 320 323 324 325 325 325
310 311 311 313 314 317 317 319 320 315 316 317 318 320 317 318 320 319 323 322 318 321 319 316 317 317 316 317 318 320 321 322 322 322 323 322 322 323 323 324 322 321 321 323
313 311 314 316 314 315 317 317 318 317 315 318 319 319 318 318 318 317 319 320 318 317 321 320 321 320 320 321 321 321 321 321 321 321 321 322 321 321 321 321 322 321 320 319
313 314 317 315 317 318 318 318 318 317 315 314 314 318 318 318 316 318 318 318 319 320 321 319 318 319 319 319 320 318 318 318 318 318 317 316 317 316 316 316 317 317 315 315
314 314 313 314 315 316 317 315 315 315 316 318 317 321 320 315 315 317 317 320 320 320 319 319 319 318 317 318 317 316 317 317 316 313 309 309 310 312 314 313 314 314 313 313

GFSNW_925_thetae_015.txt.gz
Theta_e
303 303 303 303 303 303 304 301 301 303 304 301 299 305 306 309 311 309 311 312 313 314 314 315 315 316 317 317 318 320 318 311 318 318 317 319 318 319 315 319 318 315 319 320
303 303 304 303 303 303 304 299 298 304 304 304 303 303 307 309 309 309 310 311 311 311 314 315 316 316 317 316 317 320 319 316 316 316 317 317 318 318 318 317 314 321 320 320
304 304 304 304 303 303 304 299 302 299 298 301 304 304 305 308 309 309 307 309 311 312 312 312 314 315 317 314 315 320 313 313 317 318 317 318 318 320 320 318 319 322 321 319
304 304 304 304 303 303 303 298 299 300 302 303 302 303 304 309 309 309 308 307 309 311 313 313 314 314 314 313 315 312 311 315 316 317 318 319 321 320 321 319 320 321 322 317
304 305 304 304 303 304 303 302 302 302 303 302 301 301 305 307 306 307 310 308 307 308 310 311 312 311 314 314 312 311 309 316 314 317 319 321 322 320 322 321 321 320 320 316
304 304 304 304 303 304 302 302 303 304 305 304 303 302 303 304 304 307 308 306 305 306 307 309 308 308 308 310 312 310 312 313 315 317 317 319 322 322 322 322 321 320 321 319
305 305 304 304 303 304 303 303 303 305 306 304 304 304 303 304 304 306 305 304 305 306 306 305 306 306 308 310 310 310 312 313 314 316 318 326 322 322 323 322 322 320 320 319
304 305 305 305 304 303 304 304 304 305 305 304 304 304 303 304 303 303 303 304 305 303 305 307 309 309 311 310 310 311 311 313 316 318 321 322 324 327 325 322 322 325 320 320
304 305 305 305 304 304 304 304 304 303 304 304 304 303 303 303 304 304 305 304 303 306 306 308 311 311 315 315 316 311 312 313 317 317 323 327 324 329 332 330 325 339 330 323
304 304 305 305 305 303 304 304 304 303 304 303 302 303 302 303 302 303 302 304 305 306 308 308 309 312 313 314 319 316 316 322 321 319 321 324 328 339 334 333 326 339 337 336
303 304 304 304 305 304 304 303 303 303 304 302 302 302 303 303 303 304 301 304 306 303 309 310 309 311 312 312 314 318 321 324 327 321 327 331 335 339 345 341 340 346 345 346
302 303 304 304 304 304 304 303 303 303 304 302 303 303 303 302 302 303 302 303 304 306 307 307 308 310 312 312 317 316 321 323 328 325 328 327 331 334 339 337 340 342 344 344
302 304 304 305 305 304 304 304 304 303 303 303 303 302 303 303 303 303 304 305 303 305 306 309 309 312 313 314 316 317 319 321 326 327 328 332 334 333 334 334 335 335 335 337
303 304 305 305 305 305 305 305 304 303 303 305 303 304 302 304 304 303 303 303 305 307 308 309 308 311 311 315 315 314 315 322 324 329 328 330 334 332 332 332 331 332 333 334
304 305 305 305 305 305 305 304 304 304 302 306 305 302 303 304 303 302 302 303 303 305 309 310 311 311 312 315 312 316 320 325 326 326 330 331 331 329 328 329 330 327 331 332
305 306 306 306 306 305 304 302 305 304 303 305 305 299 301 303 305 304 302 303 303 305 307 305 306 310 312 316 312 321 322 322 324 329 326 327 327 326 326 328 328 331 330 328
305 307 307 306 306 306 303 302 304 305 304 305 307 305 302 306 307 304 304 304 303 306 305 307 309 311 312 313 317 320 320 320 323 325 325 328 328 327 325 327 327 327 327 327
307 308 309 308 307 306 306 306 305 304 303 304 307 308 307 309 310 311 310 305 307 310 312 313 314 313 312 314 315 319 318 322 323 327 324 325 324 324 324 323 327 326 326 324
308 308 308 307 306 306 306 307 306 305 303 305 306 308 312 310 311 312 311 312 313 312 314 314 313 312 314 317 317 317 320 323 328 326 324 324 324 324 323 323 323 326 326 326
309 308 308 307 308 308 308 308 307 305 305 305 305 305 308 309 312 313 313 313 314 312 311 313 311 310 312 314 317 320 324 324 323 325 325 324 323 323 322 322 322 323 324 325
308 304 305 307 308 309 310 308 308 308 306 306 306 306 307 310 314 315 314 310 312 313 314 315 311 312 319 320 321 322 322 322 321 321 320 321 321 321 320 322 322 323 324 324
307 306 307 307 307 310 310 309 307 306 309 309 311 314 311 314 314 314 315 314 313 320 318 316 315 313 318 320 321 322 322 323 323 322 322 321 321 320 321 321 322 323 324 325
309 307 309 307 309 318 313 313 317 319 314 314 316 319 316 316 316 316 316 321 323 319 315 313 312 315 318 318 319 322 322 323 324 324 322 321 322 322 322 324 324 323 323 324
309 309 313 314 316 318 318 319 320 318 315 317 317 320 317 317 318 319 321 319 316 319 318 317 319 322 322 321 321 320 320 320 320 322 322 322 322 321 321 320 319 318 317 321
312 312 312 316 315 315 315 314 315 316 316 316 317 317 315 315 317 316 316 319 317 317 321 321 320 320 319 319 318 317 316 316 316 316 318 318 317 316 316 315 315 315 315 315
313 314 316 314 314 315 314 313 314 313 315 313 314 317 316 318 316 318 317 316 318 320 321 320 319 318 317 317 314 312 309 308 307 308 308 309 311 312 312 311 311 312 312 311
315 316 313 311 312 312 312 311 310 310 315 318 317 319 320 316 318 319 319 321 321 320 319 318 317 317 316 314 312 311 309 306 306 305 306 306 306 307 307 308 308 310 311 309

GFSNW_925_thetae_018.txt.gz
Theta_e
304 304 304 304 303 303 303 299 299 302 303 299 299 303 303 308 309 308 309 310 311 313 314 315 314 317 317 315 317 319 318 311 316 318 316 319 322 320 315 319 317 312 315 320
304 304 304 304 303 303 304 301 301 303 302 300 300 303 304 305 310 309 307 308 309 310 312 313 315 314 315 313 314 320 317 314 315 315 316 316 316 318 317 316 313 319 319 320
303 304 304 304 303 303 303 301 302 298 301 298 301 302 303 305 307 310 309 307 308 310 311 311 313 314 314 312 314 318 313 312 314 318 317 317 318 318 315 317 320 321 320 320
304 304 304 303 303 303 303 296 298 300 302 301 303 301 301 307 307 306 308 310 307 308 311 311 312 312 312 312 314 311 310 315 314 316 316 317 318 319 319 316 318 319 320 320
304 304 304 303 303 303 303 303 302 302 302 303 303 301 301 305 304 305 307 310 308 306 308 310 311 309 311 312 310 309 308 315 313 316 316 317 318 319 320 319 318 317 319 317
304 304 304 304 304 303 302 302 302 303 303 305 304 301 303 303 303 304 306 307 305 305 306 308 306 305 306 307 309 309 309 312 314 316 316 316 319 318 319 319 318 318 319 319
304 304 304 304 303 304 303 303 302 304 305 303 304 303 303 303 303 304 304 304 304 304 303 304 303 302 303 305 307 307 309 311 312 315 316 321 317 318 323 320 320 319 320 319
304 304 304 305 304 304 304 304 303 304 305 303 303 303 304 302 302 302 302 303 302 301 305 305 306 306 309 309 309 309 309 308 313 317 317 317 318 327 334 333 331 321 320 320
304 304 305 305 304 304 304 304 304 303 304 303 303 303 302 302 302 302 303 301 300 305 304 306 307 309 308 312 314 309 308 310 311 313 319 322 322 330 332 332 335 338 330 320
302 304 304 305 305 304 304 304 303 303 304 303 302 303 302 302 303 303 302 303 303 304 308 308 307 308 310 311 314 312 310 312 313 315 319 319 323 332 336 335 336 341 341 342
303 304 305 305 305 304 304 303 303 303 303 301 300 302 303 302 302 303 302 302 303 304 308 309 308 308 309 309 308 312 313 315 316 315 320 321 325 335 345 339 338 338 341 341
301 304 305 304 305 305 304 304 303 302 302 303 303 302 302 302 301 302 303 305 301 302 304 307 304 309 309 312 312 311 312 317 320 318 319 318 327 328 333 334 336 336 336 337
302 304 305 305 305 305 305 305 304 302 303 301 300 301 302 302 302 302 303 303 303 304 305 308 308 311 310 310 312 314 313 316 318 319 320 323 330 331 330 331 332 331 333 335
303 306 306 306 306 306 306 306 305 302 302 303 300 303 302 304 303 302 301 302 302 303 307 307 307 310 309 312 312 310 311 312 315 318 319 325 331 330 328 330 330 330 331 331
306 306 306 307 307 306 306 306 306 305 303 302 302 302 302 302 302 301 301 302 302 304 307 309 310 309 309 311 311 313 311 312 316 318 319 324 327 327 327 329 331 329 331 331
307 306 307 307 307 306 306 302 303 303 303 304 307 301 301 303 302 300 301 301 301 303 304 306 309 307 310 313 315 312 314 314 315 321 322 324 326 326 327 329 331 331 331 330
306 306 308 307 307 306 304 304 303 304 303 305 305 307 303 303 306 303 301 301 302 302 305 306 305 309 311 313 312 311 313 313 316 319 322 327 327 328 327 328 327 328 329 330
307 307 308 308 307 306 306 306 304 304 304 303 305 308 307 307 306 308 303 303 303 306 307 309 311 312 312 313 312 313 313 314 317 319 321 325 325 326 326 326 327 328 327 326
308 307 307 307 306 306 306 306 306 304 302 303 303 307 311 308 310 311 311 310 312 311 313 313 312 312 312 311 310 314 315 317 320 323 323 324 326 327 326 326 326 327 326 325
309 307 306 306 307 308 308 305 305 304 305 304 303 303 306 306 310 313 312 312 312 313 310 311 312 310 309 310 311 316 316 319 321 325 326 326 326 326 326 325 324 325 325 325
308 303 303 307 308 309 309 308 308 306 305 301 302 304 306 307 310 314 313 310 309 312 313 311 310 311 315 317 317 321 322 322 322 321 321 321 322 324 324 323 323 324 324 325
307 306 306 307 307 310 311 311 309 307 310 310 309 312 307 310 311 314 313 312 307 316 316 311 314 313 316 321 323 324 323 323 323 323 322 322 322 320 322 324 325 324 324 324
308 305 307 309 312 318 317 317 317 319 317 315 316 318 316 316 316 316 316 319 318 315 312 311 319 319 316 316 319 320 322 322 322 322 323 322 321 319 320 320 321 323 322 320
307 310 311 314 316 316 317 316 315 316 316 315 314 317 316 314 313 317 320 318 315 317 316 319 319 316 313 311 311 312 314 318 317 317 317 316 315 315 314 315 318 318 318 317
310 311 313 312 313 313 313 312 313 313 313 312 314 313 313 315 318 316 315 318 317 316 318 318 316 314 312 310 309 309 310 309 311 310 311 311 312 311 311 311 311 310 309 309
312 312 312 311 312 311 310 309 309 309 313 312 313 315 316 318 317 318 319 315 318 320 319 317 314 312 310 308 306 306 306 307 307 307 308 308 309 310 309 308 307 306 305 304
313 312 308 309 309 309 309 308 307 305 311 315 316 319 320 316 317 319 318 319 318 317 314 313 312 311 308 305 303 303 302 303 303 303 304 305 306 306 307 306 305 304 303 303

GFSNW_925_thetae_024.txt.gz
Theta_e
303 304 303 303 302 302 304 305 306 304 304 306 306 306 306 305 307 308 310 311 311 315 317 319 321 323 321 317 321 326 326 328 331 327 326 325 326 327 327 327 330 327 328 328
303 303 304 303 303 303 305 307 306 305 304 306 306 306 306 306 307 308 310 312 312 312 315 319 319 320 317 316 322 326 326 327 330 330 328 327 327 327 327 327 328 331 329 326
304 303 304 304 303 303 305 307 306 306 306 305 306 306 306 306 306 306 306 311 312 313 312 315 317 318 316 315 317 318 320 327 329 331 330 328 329 328 327 327 330 328 330 329
304 304 303 304 303 302 305 306 306 305 306 306 305 306 306 305 306 306 306 309 310 311 314 313 314 316 316 315 315 317 321 327 327 329 326 325 328 327 328 329 329 330 329 330
304 304 304 304 304 303 305 306 305 305 305 305 305 305 306 305 305 305 306 307 307 307 312 311 313 313 315 316 315 317 317 325 324 327 324 323 325 325 326 328 329 329 329 330
301 302 303 304 304 304 306 305 305 306 305 305 306 306 304 305 304 306 305 306 306 306 308 308 309 310 310 312 314 315 317 320 323 327 324 324 326 325 325 326 326 327 329 329
301 301 302 303 304 304 304 305 305 306 307 305 305 304 303 304 304 305 305 305 305 306 307 308 309 309 309 310 311 312 316 317 320 324 325 328 326 326 326 326 326 326 327 327
301 301 305 305 304 304 305 304 305 306 307 305 305 304 304 304 303 303 305 305 306 306 307 310 309 310 310 310 310 311 313 316 317 321 323 325 324 323 324 326 327 326 328 329
300 303 305 305 305 305 304 305 303 306 306 307 305 305 304 305 305 305 304 305 305 307 309 309 310 309 309 310 310 310 313 315 317 317 320 323 323 322 327 326 332 329 335 335
301 305 306 307 306 306 306 305 304 304 306 305 305 306 306 305 305 306 305 305 306 306 309 309 308 309 308 309 311 313 311 315 316 316 317 319 320 325 332 331 343 340 340 341
302 305 307 306 306 307 307 306 305 303 304 305 306 305 306 305 305 307 305 306 307 308 310 309 307 309 310 311 309 310 312 313 313 314 316 317 316 318 325 334 337 336 338 341
303 307 306 306 307 307 307 308 306 304 304 305 305 305 305 305 304 305 305 305 306 307 310 311 312 310 311 311 312 311 311 311 314 314 315 315 316 318 320 322 325 333 332 333
305 307 306 307 307 307 307 308 306 302 304 304 305 308 306 305 305 305 305 305 304 306 306 307 310 312 311 314 312 312 312 312 313 313 313 315 316 316 318 320 323 325 329 330
306 307 307 307 307 308 308 309 307 304 305 307 308 305 306 306 305 305 305 305 305 305 307 309 309 311 310 313 312 312 312 313 314 316 315 314 314 316 318 319 323 327 328 333
307 307 307 307 307 308 308 308 308 306 305 308 308 306 307 306 306 305 305 305 305 305 307 308 309 309 309 311 311 312 312 313 315 315 314 315 316 317 319 322 323 326 329 333
308 307 307 307 307 307 309 309 306 305 304 306 308 307 308 307 306 306 306 306 306 306 306 306 306 306 310 315 314 313 312 313 314 315 316 316 317 317 317 320 321 323 328 335
307 307 307 308 307 308 309 308 306 304 304 305 307 309 308 307 307 307 306 305 306 305 306 307 307 308 310 312 313 312 312 313 314 314 314 316 316 318 317 320 323 325 331 335
307 307 308 308 307 307 307 306 305 304 303 303 307 309 309 308 311 312 306 306 305 304 305 306 308 309 309 312 311 312 312 313 314 313 312 313 314 316 317 321 327 330 333 330
307 307 307 309 310 309 308 307 304 304 303 304 303 308 312 307 308 310 307 304 307 305 307 308 310 310 310 310 310 310 311 313 312 312 312 313 317 318 319 322 325 322 330 330
307 309 312 317 311 307 306 305 306 305 305 303 303 302 305 305 308 311 311 311 309 312 309 305 306 308 306 308 315 321 312 310 312 314 314 316 320 322 322 323 321 324 328 330
313 315 316 311 309 308 312 314 310 308 309 304 304 304 307 306 310 312 310 311 308 314 314 310 310 311 310 312 315 316 318 314 313 314 316 319 322 323 323 325 328 329 327 328
310 310 307 311 315 316 316 315 314 315 319 318 315 316 308 310 308 313 313 314 314 320 318 314 313 308 310 311 313 313 315 319 320 318 318 321 320 320 322 321 320 321 320 321
312 314 315 316 315 314 314 314 316 316 318 318 318 320 320 319 317 321 321 320 321 319 318 313 308 310 310 309 310 312 312 312 314 315 314 312 312 311 313 314 315 316 317 319
317 316 316 317 317 315 314 315 316 315 316 317 320 321 320 319 320 319 321 320 316 317 317 313 312 312 311 309 309 311 311 311 311 312 312 311 310 310 310 311 314 315 314 316
316 316 318 316 314 314 314 314 314 315 315 319 321 320 319 320 320 319 318 320 318 314 314 314 313 311 310 310 309 311 311 311 310 310 310 310 309 308 307 306 306 308 311 311
314 314 315 314 314 314 314 314 315 315 318 320 319 320 320 321 319 317 317 317 315 313 312 312 309 309 309 309 310 310 310 311 310 310 309 310 311 309 307 306 306 305 307 306
314 314 313 314 314 314 314 313 313 313 316 318 318 317 317 316 316 316 313 313 311 310 308 306 307 308 309 309 309 308 309 309 310 310 309 308 307 308 308 309 307 306 305 305

GFSNW_925_thetae_030.txt.gz
Theta_e
302 302 303 303 303 304 306 310 314 310 308 310 309 308 307 307 309 309 308 308 308 312 313 316 319 325 326 323 322 327 327 326 331 332 331 329 329 330 331 332 336 331 334 333
302 301 301 302 301 303 306 312 313 311 308 309 308 308 307 306 309 309 307 308 309 309 311 315 318 320 320 320 322 325 327 331 333 334 333 331 331 329 330 331 330 336 332 332
302 301 301 302 302 302 305 312 313 312 309 309 309 308 307 308 309 310 308 307 309 309 310 311 315 317 319 318 320 329 324 329 334 336 335 334 333 330 330 330 332 332 332 333
301 301 302 302 304 302 307 311 311 309 310 310 309 308 309 310 309 308 306 308 309 309 309 311 312 314 314 317 322 321 326 332 332 331 333 333 330 330 330 332 333 334 333 332
301 301 302 304 304 304 307 310 311 310 310 310 309 308 309 309 307 306 306 308 308 307 307 310 312 312 313 317 316 318 322 330 332 334 333 333 334 330 330 330 330 331 332 332
301 301 302 304 305 305 307 307 304 308 308 310 310 310 309 307 308 308 306 308 307 306 307 308 308 309 309 311 313 316 320 326 331 335 334 334 336 333 331 330 330 330 333 335
301 302 305 306 306 305 307 306 304 305 309 309 310 310 310 309 308 307 307 307 308 308 308 308 308 309 310 311 313 314 317 322 327 332 334 338 334 333 332 331 330 331 332 335
304 304 307 306 306 306 307 307 304 304 309 309 310 310 310 310 309 308 309 309 310 308 308 308 310 311 311 312 313 313 315 319 324 332 334 334 334 333 332 332 333 332 332 333
303 305 307 307 307 306 307 308 306 304 306 308 308 311 310 311 311 309 308 309 309 308 308 309 313 314 317 312 312 313 314 317 320 327 332 335 333 331 330 331 333 342 334 331
305 307 306 307 307 307 307 308 307 303 305 306 307 309 311 310 311 312 309 309 309 309 312 312 312 313 314 316 314 314 315 317 319 323 327 331 330 329 329 333 344 340 340 338
307 306 306 307 307 307 307 308 308 305 306 305 307 308 309 310 310 311 310 310 311 313 315 316 318 316 315 315 316 317 316 317 319 320 325 329 324 327 335 337 331 331 334 335
306 306 306 307 307 308 308 309 309 308 306 307 307 307 307 308 309 310 309 309 309 309 311 314 313 313 312 315 316 316 317 318 318 319 322 328 322 323 322 323 325 325 327 326
306 306 306 307 307 308 308 309 308 306 305 306 306 309 310 310 309 308 308 309 308 309 309 309 310 313 312 316 314 315 315 316 317 318 319 320 319 319 319 320 320 322 321 323
307 307 307 308 308 308 308 310 308 305 306 307 309 309 310 309 308 308 308 308 308 308 308 309 312 312 311 313 312 313 313 314 316 317 317 317 317 317 318 318 318 319 320 321
307 307 308 308 308 308 309 311 309 307 307 310 310 309 310 309 309 309 309 308 308 308 309 309 310 310 311 311 312 312 312 312 313 315 317 320 321 318 317 317 318 318 319 321
308 308 308 308 308 310 313 314 309 307 306 307 310 308 310 309 309 309 309 309 310 311 310 310 309 308 309 312 315 313 313 313 313 315 314 316 317 316 317 318 319 318 319 320
308 308 308 310 311 311 312 312 309 306 305 306 308 308 310 308 308 309 309 309 308 307 306 305 307 308 308 309 311 310 310 311 313 312 313 315 316 317 317 317 319 320 319 320
308 308 309 310 310 311 312 308 306 305 305 305 308 309 309 307 310 311 306 306 305 304 304 303 306 307 306 309 308 308 308 308 308 309 310 312 314 316 317 318 318 319 319 319
308 309 311 313 312 313 311 306 305 305 307 309 308 310 316 308 309 310 308 305 309 305 305 304 303 306 309 305 303 314 314 312 312 308 309 311 313 316 317 317 317 318 318 318
309 311 316 319 315 310 307 307 310 309 308 307 312 308 317 309 311 312 312 308 312 313 313 304 305 306 310 313 313 313 315 313 312 311 313 313 316 316 317 317 317 317 317 319
314 320 320 315 310 313 315 323 321 321 325 319 319 315 320 311 316 316 313 315 313 320 318 316 312 311 313 313 313 313 314 313 313 314 314 314 315 315 317 317 318 318 321 322
314 316 318 317 319 319 321 322 320 321 324 320 321 322 321 320 313 315 318 323 321 318 314 315 314 313 314 312 313 313 312 312 312 311 315 315 315 318 318 318 317 317 316 315
320 318 319 320 320 322 321 320 323 322 320 321 321 327 325 325 320 325 324 317 315 315 317 313 313 315 315 313 313 313 313 311 311 311 310 310 311 311 313 315 314 313 312 311
320 319 318 319 319 318 318 319 320 320 320 321 322 323 322 320 321 319 321 317 315 316 317 317 315 316 315 314 312 313 313 313 313 311 310 310 309 309 308 311 311 310 309 309
319 319 321 318 316 315 315 316 316 317 319 321 324 321 321 319 318 317 317 318 317 316 316 314 315 316 315 314 311 311 312 312 313 313 312 311 310 310 308 308 306 309 310 309
317 317 317 316 315 315 315 315 315 316 318 320 319 318 320 318 317 317 317 318 318 315 314 311 312 315 314 313 312 310 309 309 311 312 311 310 310 309 309 307 306 306 306 305
318 318 317 316 315 315 315 315 315 315 317 318 318 317 317 316 315 315 316 315 316 314 314 311 313 314 311 311 309 308 308 308 307 310 309 311 309 308 308 309 307 307 306 305

GFSNW_925_thetae_033.txt.gz
Theta_e
302 301 301 301 301 302 304 308 313 313 310 308 309 307 307 306 306 309 309 309 306 308 308 310 311 316 317 315 316 317 321 323 322 323 327 329 326 325 324 325 324 324 324 327
301 301 301 301 301 302 305 310 312 312 310 309 308 308 308 307 309 309 308 308 307 307 311 313 314 314 313 314 314 314 320 322 325 323 323 325 327 325 325 323 325 326 325 327
301 301 302 302 302 302 305 311 313 311 309 309 309 309 308 309 308 309 308 307 306 309 310 310 312 312 312 312 313 318 317 322 324 327 325 326 327 327 326 325 327 326 327 328
302 301 302 303 304 303 306 309 311 310 310 310 309 310 309 309 310 309 307 306 308 307 309 307 311 310 310 310 312 313 313 321 326 329 329 329 330 328 327 326 326 328 326 331
301 301 303 304 305 304 307 309 308 306 307 308 309 310 311 310 310 308 307 307 307 307 307 308 309 309 309 310 311 310 311 318 324 333 331 330 331 329 328 327 327 328 327 327
304 304 305 306 306 306 306 308 305 305 308 308 309 310 311 310 310 309 308 307 306 307 308 309 307 306 307 308 309 310 311 316 322 333 333 334 335 333 328 328 327 327 329 328
304 306 306 307 306 306 306 306 305 305 308 307 308 308 309 311 311 311 309 308 309 309 308 308 308 307 308 308 308 310 312 313 320 330 332 337 333 332 333 328 329 327 327 334
305 307 307 306 306 306 307 307 305 303 306 307 307 308 310 311 310 311 310 308 309 307 308 308 307 309 310 310 310 311 311 313 319 329 333 333 333 331 330 332 338 338 342 336
306 307 306 306 306 307 307 307 307 303 304 307 307 308 308 309 312 311 310 309 308 309 309 310 310 313 313 317 311 312 312 313 319 323 334 339 326 326 330 331 343 335 339 341
307 306 306 306 307 307 307 308 308 304 304 304 306 310 310 309 310 311 310 310 310 310 311 312 313 314 314 316 319 315 314 316 318 321 327 333 324 326 331 340 339 330 328 334
306 306 307 307 307 307 307 308 308 306 305 305 306 306 309 309 309 311 311 310 311 312 313 314 315 317 315 315 316 314 317 319 319 321 327 333 321 322 332 330 323 324 325 326
306 307 307 307 307 307 308 309 309 309 306 307 306 306 306 307 307 309 310 310 310 310 311 312 311 311 314 313 320 314 319 317 320 320 325 319 320 320 320 320 322 320 321 321
306 307 307 308 308 308 309 309 309 307 306 306 306 309 309 310 309 309 310 309 309 309 309 309 310 313 311 313 315 313 312 313 314 317 317 316 317 319 318 319 318 317 317 319
307 307 307 308 308 309 309 309 309 306 305 307 309 309 309 310 309 309 309 309 308 308 308 308 311 312 311 312 311 312 311 311 313 313 317 317 316 318 318 317 318 319 318 319
307 307 308 308 308 308 310 311 309 307 308 310 309 307 309 308 309 309 309 309 310 309 309 309 309 308 309 309 310 312 311 311 312 313 311 315 314 315 315 317 318 319 320 321
308 308 308 309 310 311 312 312 308 307 307 308 310 307 309 308 308 308 309 309 309 309 309 310 309 309 310 311 311 310 309 308 308 309 309 310 311 311 314 317 317 318 319 319
308 309 310 311 311 310 311 312 310 307 305 307 308 312 310 308 309 309 308 307 306 306 305 304 305 306 308 308 310 309 308 308 307 307 307 309 309 311 314 316 316 318 319 318
309 309 310 310 311 311 312 307 306 306 306 306 313 314 313 308 311 311 307 307 305 304 304 304 305 305 304 307 307 309 312 313 315 313 309 308 308 309 311 313 315 318 318 318
309 310 311 313 313 314 312 306 305 306 308 311 312 316 319 309 311 310 307 306 310 305 307 305 303 304 308 308 309 310 311 314 313 311 312 310 309 309 311 314 315 316 316 316
309 311 315 319 315 310 308 308 309 309 309 309 314 313 317 312 312 313 312 309 313 314 313 303 306 305 311 311 310 310 310 312 313 315 310 309 310 310 312 314 316 317 317 316
312 319 322 314 310 313 314 323 322 322 323 317 316 314 322 313 316 316 314 316 314 316 316 316 312 310 313 311 312 310 309 309 310 312 313 313 315 316 316 316 317 318 318 319
313 314 318 315 317 321 322 324 322 323 325 323 322 322 319 317 313 315 316 320 317 319 314 312 312 313 313 312 312 311 310 308 308 309 310 310 310 313 317 316 317 315 312 311
317 321 322 321 322 320 322 314 320 324 322 321 321 325 325 322 318 321 323 319 317 316 316 313 313 313 313 311 311 312 311 309 308 307 307 308 308 308 310 311 311 310 309 308
324 324 316 321 323 321 319 318 318 318 318 319 324 327 324 324 323 320 321 317 315 315 313 315 314 313 312 311 309 309 310 312 310 309 307 306 306 307 307 306 308 308 308 308
323 321 317 321 317 316 316 316 317 317 317 319 322 322 320 320 319 318 316 315 316 317 316 314 313 313 311 311 310 309 308 308 312 309 308 307 306 306 306 306 305 305 305 306
322 319 319 317 316 316 316 316 316 316 317 319 320 319 319 316 317 316 315 314 314 315 315 314 313 313 312 311 309 309 309 308 307 311 310 308 307 306 306 305 304 304 304 304
322 321 319 318 317 317 316 316 316 317 317 317 319 316 316 318 315 314 315 316 316 314 314 313 313 313 312 311 309 309 309 308 307 308 309 308 308 307 306 306 306 306 304 303

GFSNW_925_thetae_036.txt.gz
Theta_e
301 301 301 302 301 302 302 304 307 311 310 304 300 303 305 307 308 307 307 307 307 306 310 310 310 310 313 311 312 314 314 318 323 322 320 323 329 323 320 322 319 318 321 325
302 301 301 302 301 304 305 304 304 311 308 306 305 305 309 307 308 308 309 307 306 306 310 311 311 311 311 311 312 314 315 320 321 322 318 319 321 328 321 316 317 320 323 324
301 301 301 303 303 304 305 303 307 304 303 305 307 307 309 309 308 308 307 306 304 306 307 309 310 311 310 309 309 312 314 311 317 322 322 321 322 323 323 322 322 321 322 324
303 304 305 305 305 305 305 302 304 306 306 307 306 306 308 311 310 308 306 305 307 305 305 306 310 308 308 308 311 311 311 310 312 315 318 322 325 326 327 323 322 324 323 324
304 306 306 306 306 305 306 304 303 302 306 305 306 306 309 311 311 311 308 308 307 303 304 307 308 308 308 309 309 309 309 309 311 315 326 328 328 328 328 324 324 322 321 323
306 306 306 306 306 306 306 305 305 304 307 306 306 308 308 308 309 311 310 310 308 306 306 306 307 307 307 307 309 310 309 308 311 320 325 330 333 329 329 324 323 324 324 323
306 307 306 306 306 306 306 306 306 305 308 308 309 308 308 309 310 310 310 308 308 307 305 305 305 306 306 306 307 308 309 309 309 319 324 335 327 324 327 335 333 331 337 336
307 306 306 306 306 306 307 307 307 304 306 307 308 309 310 308 308 310 311 309 307 304 305 305 307 308 309 309 309 308 309 309 311 321 327 329 327 324 324 328 332 326 330 343
306 306 306 306 307 307 307 307 308 302 305 306 307 308 307 309 311 310 309 308 306 308 305 306 310 315 316 320 317 308 312 311 310 315 329 335 325 323 327 329 332 324 330 341
305 306 306 307 307 307 307 308 308 303 304 304 305 308 308 306 308 309 310 308 307 308 310 313 316 316 316 319 321 316 315 314 317 321 331 327 322 321 324 333 331 323 325 328
306 306 306 307 307 307 307 308 308 306 305 305 306 307 308 308 308 310 309 310 306 307 311 312 312 315 314 316 316 317 320 321 320 324 328 332 321 321 321 319 319 318 322 325
306 306 307 307 308 308 308 308 309 308 306 307 306 307 307 307 307 308 308 307 305 309 307 309 310 312 313 312 318 314 317 316 319 319 323 318 321 320 317 317 317 320 318 320
306 306 307 308 308 309 309 309 309 307 306 306 306 309 309 309 309 309 310 308 307 304 303 306 309 312 310 313 313 311 312 311 315 314 316 313 319 317 315 314 316 319 318 316
306 307 308 308 308 308 309 309 309 307 305 308 308 308 308 309 309 309 309 308 307 305 303 303 306 307 306 309 309 309 309 309 310 311 310 312 315 313 312 312 314 317 318 318
307 308 308 308 308 308 310 310 309 307 307 309 308 306 308 308 308 308 308 307 306 306 306 309 309 307 307 304 305 308 309 310 311 310 308 307 308 310 310 311 312 317 317 317
308 309 309 310 310 311 310 310 308 307 307 306 309 306 307 308 308 307 306 307 305 309 308 308 307 307 306 307 306 306 308 308 308 310 309 308 307 308 308 309 312 316 316 316
309 310 311 310 310 309 310 309 310 307 305 304 308 310 307 308 308 305 304 305 305 305 304 305 305 305 306 308 310 308 309 310 312 312 311 311 310 309 309 310 313 314 315 317
310 310 310 311 311 311 311 306 306 305 305 304 310 312 310 308 309 309 305 305 304 304 305 304 305 305 303 307 308 309 309 310 312 313 312 311 310 310 309 308 310 314 317 316
310 310 311 312 312 312 311 307 306 306 307 310 311 313 317 307 307 305 306 304 310 305 307 305 303 304 309 311 309 309 309 309 311 312 312 309 311 311 309 308 309 311 313 314
310 310 313 315 314 311 308 308 308 308 307 305 311 313 314 310 311 313 311 309 312 312 311 304 306 306 310 311 311 310 308 308 308 310 311 312 311 309 308 309 310 311 314 316
312 314 315 312 310 311 312 315 314 312 313 308 309 311 314 310 315 315 312 313 312 313 308 308 309 310 311 310 311 310 308 307 307 307 308 309 311 316 311 313 315 313 313 314
315 313 313 312 311 315 318 314 314 317 318 316 319 317 313 312 308 313 313 316 312 312 308 310 312 311 310 309 309 311 310 308 307 306 307 307 307 309 311 310 310 309 309 309
314 318 318 314 313 312 317 313 311 316 314 317 317 319 316 313 310 313 317 317 312 309 309 311 311 309 307 307 308 308 311 309 308 306 306 305 305 305 305 306 307 307 307 306
318 321 310 315 315 314 313 312 311 311 311 312 315 319 318 317 316 313 316 312 310 312 312 314 311 306 306 305 305 305 308 309 308 307 306 305 305 304 304 304 305 305 305 304
321 314 313 313 311 310 310 310 310 310 310 311 314 313 312 312 313 311 310 312 309 308 310 309 308 306 305 305 304 304 305 309 308 307 306 305 305 304 303 303 302 302 303 303
319 315 314 311 310 310 310 310 310 309 310 310 310 313 312 314 312 313 313 311 310 314 311 308 308 308 306 305 302 302 305 305 309 308 307 306 305 305 304 304 303 302 301 300
319 318 312 310 311 311 311 310 309 309 310 311 310 311 314 310 311 312 310 309 308 307 307 306 306 307 306 304 302 303 303 305 305 309 308 308 307 307 306 305 305 304 303 302

GFSNW_925_thetae_039.txt.gz
Theta_e
300 300 301 302 303 303 303 301 301 308 308 303 299 302 303 306 307 307 307 306 306 305 308 308 308 310 311 310 313 313 312 317 323 323 319 318 324 325 319 333 327 316 319 325
301 304 305 305 304 305 305 303 300 308 307 306 304 304 308 307 307 307 308 307 305 304 307 308 310 310 310 312 310 312 312 320 317 320 318 318 320 326 321 322 317 320 330 329
305 306 306 305 305 305 305 303 304 302 300 302 305 306 308 309 309 309 307 306 304 305 306 305 307 309 310 309 309 311 313 315 313 319 319 315 319 320 324 320 319 322 322 326
306 306 306 306 306 305 305 299 302 304 302 303 304 305 307 309 311 310 308 305 306 306 303 304 305 307 308 309 311 310 311 313 309 311 312 312 314 316 319 319 321 322 321 318
306 307 306 306 305 305 305 303 303 300 305 305 305 306 307 309 309 309 311 310 310 309 302 303 304 306 307 309 309 309 310 313 309 311 313 313 315 321 325 325 321 320 319 320
307 306 306 306 305 306 305 303 304 305 307 308 308 308 310 309 309 311 310 310 310 307 306 305 303 303 306 307 310 309 310 311 309 313 318 323 328 325 328 328 327 326 321 326
306 306 306 306 306 306 306 306 306 306 309 309 309 309 309 309 310 309 309 309 308 307 305 304 303 303 306 307 308 307 310 310 307 311 318 335 323 322 324 329 327 327 332 336
306 306 306 306 306 306 307 307 307 306 306 307 308 309 309 308 308 309 310 309 307 305 306 304 305 309 311 307 308 307 307 310 309 314 323 327 325 323 324 324 328 324 329 336
305 306 306 306 307 307 307 307 307 303 306 308 307 308 308 309 308 309 308 307 305 307 308 306 311 313 317 314 314 308 310 310 315 311 331 334 325 323 320 323 328 321 326 326
306 306 306 307 307 307 307 308 308 303 305 304 306 308 308 306 306 306 308 307 307 306 309 311 314 315 312 320 317 315 316 316 316 316 332 327 321 321 319 325 323 319 322 324
306 306 307 307 308 308 307 308 308 306 305 305 306 307 309 308 308 309 307 304 307 306 310 310 311 313 313 315 313 316 317 319 323 326 329 331 319 320 321 317 318 318 320 322
306 306 307 308 308 308 308 308 309 308 306 307 307 307 307 307 308 309 308 309 307 306 308 309 309 313 313 312 314 312 317 313 318 319 321 318 320 320 314 313 313 314 319 318
306 307 308 308 308 308 308 309 309 307 306 304 305 309 308 309 308 308 309 307 305 305 303 306 308 311 308 312 312 312 312 311 313 313 312 312 317 315 312 312 312 312 315 318
307 308 308 308 308 308 309 309 308 306 304 308 306 307 307 308 308 308 308 308 307 303 302 304 306 310 307 310 308 311 310 310 311 311 310 312 313 311 310 311 311 312 311 316
308 308 308 308 308 309 310 309 308 307 305 307 305 306 307 307 306 306 307 306 306 306 306 307 309 309 308 306 306 311 309 310 311 312 309 310 310 310 310 311 312 311 311 315
308 310 311 310 310 311 310 311 308 307 307 302 307 304 305 307 307 306 304 305 304 306 307 307 306 305 307 309 311 309 309 310 311 311 310 310 310 309 310 310 310 312 312 315
310 310 310 310 310 311 310 307 308 307 305 304 308 309 306 307 307 303 303 303 301 304 305 304 304 305 305 307 310 310 310 309 310 311 313 314 312 312 310 310 310 310 312 314
310 310 311 311 310 308 309 307 306 305 305 305 314 314 310 307 304 305 301 303 302 304 304 305 305 306 303 308 311 310 309 309 309 310 310 311 311 309 309 310 309 310 315 316
309 310 310 311 311 310 310 306 306 306 306 304 310 316 316 306 305 303 303 302 309 304 307 306 306 306 310 310 310 310 308 308 308 308 308 309 311 311 311 311 310 309 309 312
309 309 313 313 313 310 307 307 308 308 307 302 309 309 315 309 311 313 312 309 310 311 309 306 306 307 308 307 309 310 309 308 307 308 308 308 311 315 308 309 307 307 308 315
312 312 312 311 308 310 312 314 312 311 311 306 306 309 313 309 316 315 310 312 311 309 309 310 310 303 305 306 306 309 309 308 307 307 306 306 306 309 311 311 310 311 311 312
314 313 312 310 311 313 315 310 311 314 316 312 314 315 312 311 310 311 313 315 311 311 306 304 308 305 304 305 305 306 308 308 305 305 305 305 305 305 306 306 306 306 306 306
313 315 315 312 311 309 315 308 309 311 310 311 315 319 314 312 309 314 315 314 311 306 308 309 308 310 305 303 303 304 308 307 306 305 304 304 304 303 303 304 304 303 303 304
316 320 309 312 311 311 310 310 309 308 308 309 308 316 318 314 315 311 314 311 308 310 309 310 307 306 304 303 302 302 304 306 306 305 305 304 303 302 302 302 301 301 301 301
318 313 310 311 309 308 308 307 307 307 306 307 311 309 307 309 311 308 307 310 308 309 306 311 307 306 304 303 302 300 301 306 305 305 305 305 305 303 302 301 300 300 300 300
319 314 312 309 310 308 308 308 307 305 306 306 306 310 311 311 309 311 311 307 304 307 307 306 307 305 304 303 302 299 300 303 306 306 305 305 305 304 304 303 301 301 301 300
317 317 310 308 308 308 308 307 307 305 306 308 306 309 312 307 309 311 308 306 305 306 305 303 303 304 304 303 301 300 300 302 303 307 306 306 307 306 305 304 304 304 302 301

GFSNW_925_thetae_042.txt.gz
Theta_e
302 305 306 306 305 305 304 300 297 307 307 303 298 302 303 305 306 306 306 305 304 305 306 307 307 309 310 312 312 313 313 316 318 317 317 318 318 322 326 332 328 319 322 329
304 306 306 306 305 305 305 301 302 307 306 305 303 303 306 307 307 306 307 307 305 303 305 307 308 309 310 312 312 311 311 313 318 317 316 314 318 320 321 318 328 330 334 330
306 306 306 306 305 305 305 302 303 301 299 299 304 306 306 308 309 309 309 306 304 304 305 306 305 308 311 311 309 311 312 314 315 316 317 313 314 314 319 319 327 331 331 329
308 307 306 305 305 305 305 298 300 303 303 302 306 306 305 308 310 310 309 308 309 309 306 303 304 305 306 309 310 310 309 314 313 312 312 312 313 313 314 316 319 328 325 325
307 306 305 306 305 305 304 303 303 300 305 305 306 306 309 309 309 309 311 311 310 309 311 308 306 304 304 306 309 310 310 312 314 312 311 311 312 314 315 316 319 318 319 319
306 306 306 306 306 306 305 303 303 305 307 307 307 309 309 309 309 308 309 311 311 311 309 306 303 301 302 305 308 310 310 313 312 310 312 314 317 318 325 328 328 327 321 326
306 306 306 306 307 307 306 306 306 307 308 307 309 309 309 310 310 310 308 308 309 308 306 305 306 303 304 304 305 307 310 311 311 312 311 328 324 323 326 325 322 326 328 328
306 306 306 306 306 307 307 307 307 306 307 308 309 309 309 308 308 309 309 308 308 305 306 308 302 304 306 305 306 308 308 310 312 312 315 327 325 322 323 325 325 320 324 326
306 306 306 307 307 307 307 307 307 304 307 309 307 309 309 309 308 308 308 305 305 306 308 309 311 309 313 312 310 308 309 309 312 315 320 338 324 320 320 321 328 319 320 324
306 306 307 307 307 307 307 308 308 304 305 306 306 309 309 307 307 306 306 307 306 305 308 310 311 312 309 315 315 314 313 312 311 316 321 328 320 321 317 328 324 317 320 321
306 306 307 308 308 308 308 308 308 307 306 306 306 307 309 309 308 307 308 305 307 308 310 311 310 312 312 314 312 314 316 317 322 322 331 334 320 317 320 316 314 314 316 319
306 307 308 308 308 308 308 308 309 308 306 307 306 307 308 307 308 310 307 307 309 308 309 309 309 312 311 312 315 312 315 313 314 316 320 313 317 314 312 312 313 314 313 317
307 307 308 308 308 308 308 309 308 307 305 302 302 306 307 308 308 308 309 306 307 308 304 307 309 311 309 313 313 313 311 310 313 314 312 313 315 313 311 311 313 313 312 314
308 308 308 308 308 308 309 309 307 306 303 304 305 307 306 306 306 307 308 307 307 304 302 304 309 311 307 311 310 312 311 310 310 312 311 312 314 311 311 311 312 313 313 313
309 309 309 309 308 308 309 309 308 307 305 306 304 304 306 307 305 305 305 305 304 303 307 305 308 307 307 307 308 310 311 311 312 314 311 311 311 311 311 312 311 312 313 313
309 311 311 310 310 310 310 311 308 307 307 302 306 302 305 307 307 305 303 304 303 305 304 305 305 304 307 310 311 310 310 310 310 311 311 312 312 312 312 312 312 312 312 312
310 310 310 310 310 310 309 307 307 307 305 305 312 308 304 307 305 302 301 302 300 303 305 305 304 305 305 307 310 310 309 309 309 308 309 310 311 311 310 310 311 311 310 311
310 310 310 311 310 308 309 307 306 305 304 303 314 316 311 306 305 304 299 301 300 303 304 306 306 307 304 308 310 309 308 308 308 308 307 308 309 310 310 308 309 310 311 313
309 309 309 310 311 310 310 307 306 306 305 302 308 312 319 305 306 302 302 301 307 303 308 306 305 307 308 308 309 310 309 308 308 308 307 308 310 310 309 309 310 310 309 310
309 309 311 311 311 308 308 307 308 308 307 300 308 308 313 309 312 313 310 309 309 310 308 306 303 304 305 306 306 309 309 307 306 308 307 307 308 308 309 308 310 309 309 311
311 311 311 310 308 310 311 314 312 311 310 306 306 309 312 308 316 315 311 311 310 308 308 309 304 303 303 303 304 305 308 306 304 304 305 305 305 306 306 306 306 306 306 308
312 312 311 310 310 312 312 308 308 311 314 310 312 312 311 309 310 313 312 313 305 308 305 302 308 308 304 303 304 304 306 306 304 304 303 303 304 303 303 303 303 302 302 303
312 313 314 309 309 307 312 306 307 309 308 309 312 317 312 312 310 313 314 310 310 304 307 307 307 307 305 303 302 303 305 305 304 303 302 302 302 302 302 302 301 301 301 300
314 318 311 310 310 310 309 308 308 307 306 307 306 313 313 310 312 308 312 308 306 308 299 302 305 305 304 303 302 300 302 305 304 304 304 303 302 301 300 300 300 300 301 300
316 312 309 310 308 306 307 305 305 305 304 305 309 307 306 307 309 305 305 308 306 308 303 304 305 304 303 303 302 300 299 303 303 304 303 304 304 303 301 300 300 300 300 300
317 315 312 308 310 308 306 307 306 303 304 304 304 309 309 310 308 309 310 307 303 305 305 304 303 304 304 303 301 299 298 300 303 304 304 304 304 303 303 303 303 300 299 299
315 314 310 309 308 309 306 305 306 303 305 307 305 308 311 306 308 310 306 306 305 303 303 300 301 303 302 302 302 299 300 300 302 305 305 305 305 305 304 302 301 302 302 299

GFSNW_925_thetae_045.txt.gz
Theta_e
305 307 306 306 305 305 305 302 303 305 306 311 306 309 308 307 308 307 308 307 307 307 307 308 308 308 307 311 312 312 313 314 313 308 308 312 315 320 324 332 334 332 331 328
307 307 306 305 305 305 305 304 305 305 306 311 310 308 308 307 309 309 309 308 307 307 307 307 308 309 309 312 311 312 313 313 309 305 309 313 315 318 320 325 329 335 333 330
307 306 306 305 305 305 305 306 308 307 305 304 307 305 308 309 308 310 310 309 307 306 306 308 307 308 312 312 310 312 311 312 310 307 308 315 317 318 318 322 330 333 334 330
306 306 306 306 305 305 305 304 307 304 309 308 306 306 306 309 310 310 310 311 309 310 310 307 307 307 307 312 311 312 312 311 310 310 310 310 312 313 315 318 323 332 333 335
306 306 306 306 306 305 304 308 308 304 307 305 307 307 309 309 309 309 310 310 310 311 313 310 309 308 308 308 310 311 311 311 310 310 307 310 314 314 315 316 318 323 326 331
306 306 306 306 306 306 306 302 303 306 307 307 308 309 309 309 310 309 309 310 306 309 310 309 310 309 309 307 308 310 311 311 310 309 308 313 317 315 316 317 321 322 326 329
306 306 306 306 306 307 306 306 306 307 309 308 309 309 309 310 309 310 309 309 309 308 308 308 309 309 309 309 309 309 310 311 311 310 310 320 318 324 318 327 327 328 331 333
306 306 306 307 307 307 307 307 307 307 309 308 309 309 309 309 309 308 308 308 308 308 308 311 310 309 310 309 310 309 309 311 312 313 317 318 328 326 325 331 327 324 328 332
306 306 307 307 307 307 307 307 307 305 308 310 309 309 308 309 308 308 307 306 307 307 310 312 312 312 311 311 310 309 310 311 312 312 318 327 327 322 322 324 333 320 324 327
306 307 307 308 308 308 307 308 307 305 307 307 307 310 310 308 308 306 307 307 308 307 310 312 312 313 309 315 312 311 313 312 312 312 314 314 319 321 320 335 329 317 319 322
306 307 308 308 308 308 308 308 308 307 307 309 307 307 309 308 309 308 308 309 308 309 311 313 312 313 313 314 312 313 312 314 313 313 315 317 315 320 325 319 316 317 318 319
307 307 308 308 308 308 308 308 308 307 307 309 307 307 307 308 308 309 308 309 308 309 309 310 310 312 312 314 316 311 316 311 314 313 315 309 313 315 315 315 315 315 315 316
307 308 308 308 308 308 308 308 307 307 308 309 308 309 307 308 307 308 310 309 308 310 306 308 309 311 310 313 314 312 311 310 311 312 312 313 314 314 314 313 313 314 315 314
308 308 308 308 308 308 309 308 307 306 306 312 311 306 308 306 306 307 308 308 308 308 305 308 310 311 307 311 309 311 310 310 310 313 312 312 313 313 314 314 313 313 313 315
309 310 309 309 309 309 309 308 308 307 308 314 313 307 306 306 306 305 305 307 308 308 308 308 309 307 307 309 310 310 310 311 311 313 311 312 313 314 314 313 313 312 313 313
310 310 310 309 309 310 310 312 309 308 306 310 315 307 307 308 307 306 305 305 307 307 308 307 307 305 307 311 312 310 310 309 309 310 309 311 311 311 311 312 312 311 312 312
310 310 310 310 310 310 311 311 307 307 306 309 317 317 309 307 307 307 308 305 306 307 308 309 308 308 306 308 310 310 310 309 309 308 308 310 312 313 312 311 311 311 311 313
310 310 310 310 309 309 309 308 307 305 305 307 318 320 315 308 310 311 305 310 309 308 309 309 308 309 309 311 310 310 309 308 308 308 307 308 309 312 311 311 311 311 311 311
309 309 309 309 309 311 310 307 306 306 307 314 313 318 323 308 309 307 310 309 311 307 312 311 309 308 311 310 310 310 309 308 307 306 306 307 307 308 308 308 310 312 312 312
309 308 311 317 311 308 308 307 309 309 308 308 311 311 319 314 313 312 311 310 310 311 311 309 306 314 308 308 308 310 309 307 306 306 306 306 306 306 306 306 306 306 308 309
310 313 316 311 308 309 312 315 314 314 316 311 311 311 317 313 318 316 313 312 312 310 310 312 310 314 311 308 308 309 308 306 306 305 305 305 305 305 305 304 304 303 304 305
312 312 311 310 312 315 316 314 313 315 318 315 318 318 314 315 313 316 314 314 312 313 309 311 317 314 311 309 308 308 308 306 305 304 304 303 303 303 303 303 303 303 302 303
312 313 317 315 314 315 315 316 319 315 314 314 315 316 318 314 313 315 315 315 315 309 311 314 314 312 312 310 308 307 309 307 306 305 304 304 303 302 302 302 302 303 302 301
318 322 319 315 316 315 316 316 315 314 312 313 311 317 319 316 317 314 316 312 311 311 313 316 313 312 311 310 308 306 305 309 307 307 306 306 305 304 303 302 302 301 302 302
319 318 319 316 315 312 313 311 311 312 309 311 314 313 312 313 313 311 311 311 312 313 313 312 312 313 312 310 309 306 304 307 309 307 307 306 306 306 306 305 304 302 302 301
319 320 319 315 314 317 314 313 314 310 310 309 310 314 314 314 312 312 313 313 313 313 313 311 310 311 312 311 309 307 304 304 307 308 307 307 307 307 307 307 305 304 302 302
320 320 316 316 315 316 316 313 314 308 311 313 311 313 313 311 311 313 312 313 313 310 309 308 308 311 311 309 308 307 305 305 306 307 307 307 308 307 306 303 302 302 304 302

GFSNW_925_thetae_048.txt.gz
Theta_e
307 307 306 306 305 305 309 310 310 308 310 315 314 315 312 307 311 310 310 310 311 311 311 311 312 311 310 311 311 311 312 313 315 311 310 311 313 322 325 329 331 331 332 333
306 306 306 306 306 305 308 312 310 309 312 317 315 312 312 311 311 312 312 311 311 311 311 311 310 310 308 310 310 310 312 312 313 310 310 311 312 314 320 324 328 332 334 334
306 306 306 306 306 305 308 312 315 313 311 310 310 310 311 312 310 311 312 312 312 311 311 310 310 309 309 310 310 311 309 309 311 311 311 310 314 316 318 323 327 329 330 331
306 306 306 306 306 305 308 312 312 310 312 310 310 309 310 310 311 310 310 312 312 313 314 312 310 309 309 310 310 312 312 315 311 310 310 310 310 309 314 320 323 327 327 329
306 307 307 306 306 306 310 313 312 308 308 308 310 310 311 311 311 310 310 311 311 312 315 313 312 311 311 310 312 311 312 314 311 311 310 310 309 308 309 312 317 321 323 326
307 307 306 306 306 307 309 306 305 308 307 309 311 311 311 311 310 310 310 310 311 310 311 310 311 311 312 313 312 313 313 314 313 311 309 308 309 309 311 311 315 319 323 325
307 307 307 307 306 307 308 306 307 310 312 311 311 311 311 310 311 310 310 309 311 310 309 310 310 311 312 312 311 310 313 314 314 312 309 312 310 310 311 313 314 318 321 324
307 307 307 307 307 307 309 307 308 309 312 310 310 311 310 310 309 309 310 309 309 309 310 312 314 312 311 312 311 310 311 313 313 314 312 311 311 313 318 314 316 318 324 325
307 307 308 308 308 307 309 310 308 307 311 311 310 310 311 310 310 312 310 309 309 309 311 313 315 316 314 313 312 310 310 313 315 313 313 314 315 311 310 321 325 328 330 332
307 307 308 308 308 308 310 311 309 307 312 311 311 311 311 309 310 310 311 311 310 309 312 314 316 315 314 314 315 313 315 316 315 313 313 312 310 310 310 326 331 325 326 330
307 308 308 308 308 308 310 311 308 309 311 311 310 310 311 310 311 311 310 312 311 310 313 315 315 315 314 313 313 313 313 314 314 313 314 314 311 310 318 325 319 318 319 326
308 308 308 308 308 308 309 311 307 308 308 313 311 310 310 310 310 311 311 311 311 310 310 311 311 314 314 314 317 309 314 312 315 313 315 312 307 308 316 316 318 317 318 322
308 308 309 308 308 308 309 311 309 309 312 314 313 312 310 310 309 310 313 312 312 311 308 310 309 312 310 315 315 312 309 306 310 310 311 307 311 312 315 316 315 315 316 316
309 308 309 308 308 308 309 312 311 310 311 316 314 310 311 309 309 309 309 310 310 310 308 310 312 312 309 313 311 310 308 309 310 309 307 309 312 311 315 314 314 314 315 316
310 310 309 309 309 309 311 312 311 310 312 317 315 311 310 310 311 310 309 309 312 312 312 311 310 308 308 310 311 311 310 310 311 312 309 309 309 312 313 314 313 313 314 315
310 310 310 310 309 310 313 314 312 311 310 315 318 312 313 311 312 312 311 309 311 311 311 311 310 308 309 313 314 312 310 309 308 309 309 311 313 311 311 313 314 313 314 316
310 310 310 310 310 312 314 316 311 309 309 315 321 321 314 310 310 312 313 312 311 311 311 311 311 310 311 312 314 312 311 308 308 307 308 309 309 310 309 312 312 312 312 312
309 310 310 310 310 310 313 312 308 308 311 312 320 322 321 313 316 315 310 315 314 311 312 311 310 310 311 313 310 311 310 308 307 307 307 308 307 307 308 308 310 312 314 314
311 309 309 310 311 314 313 309 306 308 310 318 317 323 324 314 316 313 314 314 317 312 314 313 313 312 313 312 310 311 310 308 307 307 306 307 307 306 306 306 306 307 308 310
310 310 314 320 314 310 309 309 313 313 313 313 317 316 322 318 317 317 315 313 313 315 314 312 313 313 310 309 309 311 310 308 307 306 307 306 306 306 306 306 306 306 306 307
313 317 320 314 310 311 314 319 320 320 322 320 318 317 321 318 320 317 314 314 314 314 314 315 315 315 313 310 308 310 310 308 307 306 306 305 305 305 305 305 305 304 305 305
316 316 314 314 315 320 321 319 317 319 318 317 318 319 318 318 316 318 316 316 315 316 312 314 316 315 312 310 308 308 310 309 308 306 306 305 305 304 304 304 304 304 304 303
314 317 322 321 320 323 318 325 320 317 315 315 316 318 319 317 316 317 317 318 316 313 314 315 316 313 311 310 309 307 308 310 309 308 306 306 306 305 305 305 304 304 303 303
322 324 324 320 319 319 319 319 318 316 316 316 315 319 321 319 320 318 318 316 314 314 317 315 312 313 311 310 309 308 307 308 309 309 308 307 306 306 306 305 304 304 304 303
323 323 324 320 319 319 319 318 317 316 316 316 317 317 318 317 316 314 313 314 314 315 316 313 312 313 312 310 309 308 307 307 308 308 308 307 307 306 305 305 304 304 303 303
323 323 323 320 320 320 319 319 319 317 315 315 314 315 315 315 314 314 314 313 315 314 314 312 310 312 311 311 310 309 306 306 307 307 306 306 306 304 305 303 303 304 304 304
324 322 321 322 322 321 321 320 319 316 316 317 317 317 315 314 314 315 312 315 314 312 311 309 311 310 310 309 308 308 306 306 306 306 305 305 305 304 303 303 303 303 304 304

GFSNW_925_thetae_051.txt.gz
Theta_e
307 307 307 307 306 306 313 316 317 313 314 319 318 321 317 310 315 314 314 314 315 315 316 316 315 315 316 314 314 314 313 314 316 315 315 315 315 318 320 327 333 332 331 333
307 307 307 307 306 306 310 318 317 314 315 320 319 317 316 314 315 315 315 315 315 314 314 315 315 315 314 312 312 313 314 315 315 316 316 315 313 315 321 324 325 332 333 331
307 307 307 307 306 306 309 317 320 318 315 314 316 316 315 315 313 314 314 314 314 314 315 314 315 313 312 311 312 312 311 314 316 317 317 314 316 313 315 320 325 327 330 332
307 307 307 307 306 307 310 316 316 314 317 315 315 314 314 314 314 313 313 313 313 314 316 315 315 314 313 312 312 312 312 313 314 314 313 313 313 314 315 317 319 322 326 329
307 307 307 307 307 310 313 316 315 313 314 313 314 313 313 312 312 312 313 313 313 313 314 314 316 315 317 315 312 312 312 315 314 317 314 312 312 312 313 312 313 319 323 326
307 307 307 307 307 311 312 310 310 314 309 313 313 312 312 312 312 312 312 311 312 313 313 312 313 313 313 315 316 316 315 315 316 317 315 313 313 313 312 312 312 312 315 320
307 307 307 307 307 311 311 310 311 315 315 314 313 312 312 312 312 312 311 311 311 312 310 311 312 312 312 313 313 313 316 318 320 319 314 316 313 312 311 311 312 313 313 314
307 307 308 308 307 309 311 311 312 313 315 312 312 312 312 312 312 312 312 310 310 310 312 314 315 314 313 314 313 313 313 318 320 320 317 313 311 311 310 317 316 317 319 319
307 307 308 308 308 308 312 312 310 311 316 315 313 313 313 313 314 314 312 312 311 312 313 314 316 317 318 315 315 313 313 315 318 317 316 316 313 312 315 314 319 315 318 320
308 308 308 308 308 309 312 311 312 312 316 314 313 314 313 311 313 312 314 313 313 311 313 315 319 317 316 317 316 316 316 319 319 320 317 315 312 312 312 315 316 319 324 323
308 308 308 308 308 308 312 313 312 313 317 315 313 312 313 313 313 315 314 315 314 312 315 316 317 317 317 314 314 317 316 317 318 316 317 318 314 313 314 315 313 310 321 322
308 308 308 308 308 308 310 313 311 311 311 316 314 313 312 312 312 314 313 315 313 311 312 312 311 314 314 314 317 312 317 316 317 317 316 315 313 311 311 308 311 312 322 329
309 308 309 308 308 308 310 313 312 311 316 317 316 314 313 312 312 312 315 314 313 313 311 311 310 313 311 316 314 313 311 309 310 310 312 312 311 308 309 310 312 316 317 321
309 309 309 309 309 309 310 313 314 314 316 318 317 313 314 312 312 312 311 312 312 312 313 313 312 313 309 312 312 310 309 308 310 310 308 306 309 310 309 312 314 316 316 318
310 310 309 309 309 309 311 314 315 315 316 320 319 315 315 313 313 314 313 312 312 315 316 315 314 310 309 309 310 310 309 309 309 311 306 309 308 308 311 314 314 315 318 317
310 310 310 310 310 310 313 317 316 315 315 318 322 318 317 315 315 314 314 312 313 313 312 312 312 311 312 314 314 312 310 308 309 307 307 306 307 306 309 314 314 314 314 315
310 310 310 310 310 312 315 318 314 312 314 317 320 324 320 317 316 316 314 314 315 313 313 312 311 311 313 313 315 312 309 309 309 308 308 306 306 307 308 308 310 312 313 314
310 310 310 310 310 311 315 314 311 311 314 317 322 322 323 318 320 319 314 317 316 315 314 313 312 312 311 314 311 311 309 308 308 307 308 307 306 306 306 307 307 308 309 310
311 309 309 312 313 316 316 312 310 311 314 320 321 326 323 319 319 318 317 316 320 315 317 314 313 314 316 313 310 312 309 309 309 307 307 307 307 307 307 306 306 306 308 308
310 311 317 322 317 314 311 312 314 314 316 318 323 321 324 320 321 319 318 317 317 319 317 315 317 314 313 311 310 312 311 308 308 308 308 307 307 307 307 306 306 306 307 307
316 321 323 317 312 315 316 323 323 322 322 322 322 320 322 319 323 320 318 317 317 318 319 316 319 318 315 311 310 310 310 309 308 308 308 307 307 306 307 307 306 305 305 306
318 317 317 318 318 323 324 320 319 321 321 318 318 318 320 321 320 320 318 318 318 320 314 316 318 318 313 312 310 310 309 309 309 308 307 307 307 306 306 306 306 305 304 304
318 320 324 325 323 326 321 326 324 320 318 317 317 317 322 320 319 319 320 320 320 315 315 320 317 316 313 312 310 310 309 309 310 309 308 307 307 306 306 306 305 305 305 304
324 325 328 323 323 322 320 320 319 319 317 317 318 319 324 323 322 321 321 318 314 316 320 316 317 317 313 312 311 310 309 309 310 310 309 308 308 306 306 305 305 304 305 305
325 323 327 322 321 321 321 321 321 322 321 320 319 318 320 322 320 318 314 317 317 316 318 316 315 315 313 312 311 310 309 309 309 308 308 308 306 306 305 305 305 305 304 305
324 324 323 322 322 322 322 323 321 321 320 319 319 320 319 317 315 316 313 315 316 317 316 313 315 314 313 311 311 309 309 308 308 308 307 307 307 305 305 305 305 305 305 304
324 324 322 322 324 322 323 322 323 321 321 320 320 320 317 316 316 315 314 315 316 314 312 312 314 312 311 310 309 308 308 308 307 307 307 306 306 305 305 305 304 304 305 306

GFSNW_925_thetae_054.txt.gz
Theta_e
308 307 307 307 307 307 314 319 320 317 316 320 321 322 319 311 318 317 317 316 317 317 317 318 318 318 317 316 315 316 316 314 317 317 318 319 318 319 318 321 333 332 332 331
308 308 308 308 307 306 310 321 319 317 318 322 322 319 318 316 316 317 316 317 317 317 317 317 317 317 316 315 314 316 316 316 316 317 317 317 316 316 316 317 319 327 333 332
308 308 308 307 307 307 310 321 322 320 317 317 318 319 317 317 315 316 315 315 315 316 316 316 317 318 316 315 313 315 313 315 317 318 318 317 318 317 316 316 321 323 323 329
308 308 308 308 309 311 312 318 318 316 318 317 317 317 316 316 315 314 314 315 315 315 315 316 316 315 317 316 315 313 313 314 315 315 315 315 316 316 316 316 316 322 323 325
308 308 308 308 311 313 315 317 318 316 315 315 316 314 315 314 314 314 314 314 313 313 314 314 315 314 315 316 317 315 313 314 315 316 315 316 316 315 315 316 315 316 318 321
308 308 308 308 311 312 314 314 314 316 313 315 315 315 314 314 314 314 313 313 313 313 313 312 312 312 313 314 314 318 316 316 316 317 314 316 317 317 315 315 316 316 316 319
308 308 308 308 311 312 313 313 315 319 316 315 315 314 313 314 313 314 313 314 312 312 312 312 312 312 312 312 313 314 315 318 320 320 317 322 317 316 316 314 315 315 315 316
307 308 308 308 309 313 315 313 314 316 317 315 315 314 314 315 314 314 313 313 312 312 313 315 316 315 315 314 313 312 313 316 320 321 319 316 314 315 315 317 315 314 316 317
308 308 308 308 308 312 314 312 313 316 320 317 314 315 314 315 315 315 314 313 313 313 313 315 317 319 317 316 314 315 314 315 321 320 319 317 314 313 314 314 316 314 314 314
308 308 308 308 308 311 313 315 314 316 320 316 315 316 316 314 314 315 314 314 314 313 313 316 319 318 316 318 316 316 318 320 322 321 320 315 313 313 314 315 314 317 317 318
308 308 308 308 308 310 313 315 314 316 320 316 315 315 316 315 315 317 315 316 315 314 315 315 315 315 315 315 314 317 316 322 320 321 320 319 316 316 317 316 316 315 314 314
308 309 309 308 308 309 311 316 315 314 315 318 316 316 313 314 314 315 315 316 315 314 314 314 313 315 314 315 317 312 318 314 314 315 318 314 313 314 313 313 313 313 313 313
309 309 309 309 308 308 310 316 316 315 318 319 318 317 315 314 313 313 315 314 314 314 313 313 312 314 313 315 314 313 310 308 311 311 312 311 311 309 308 309 310 309 310 312
309 309 309 309 309 309 309 315 316 317 317 320 321 316 316 314 314 313 313 313 313 315 315 315 313 313 311 312 312 310 310 310 309 310 309 307 309 308 308 309 310 310 311 315
311 310 309 309 309 309 311 314 315 316 317 322 320 317 316 316 315 315 315 314 315 318 319 318 317 313 312 311 311 309 309 310 309 310 307 305 306 307 305 307 312 313 315 317
311 311 310 310 310 310 315 318 317 316 316 318 321 319 319 317 317 317 316 316 315 315 315 315 314 313 313 316 316 312 311 310 307 308 308 307 305 305 305 308 311 313 314 314
311 311 311 310 310 311 316 320 317 314 314 318 320 323 322 319 319 318 318 316 316 316 315 315 314 314 312 314 317 313 310 310 309 308 306 306 305 305 305 304 305 308 309 310
311 310 310 310 310 311 315 316 314 313 315 318 322 321 324 321 323 323 318 317 318 317 316 315 313 313 314 316 312 312 310 309 308 308 308 307 307 306 305 304 304 305 307 309
311 310 310 312 313 318 319 315 313 313 315 322 322 325 322 321 320 320 318 317 320 319 317 317 315 318 313 315 313 312 310 309 309 308 308 307 307 307 306 305 304 304 305 305
311 311 316 322 320 317 315 314 316 316 317 318 323 323 325 321 322 321 320 318 318 322 318 317 321 314 316 313 311 312 310 309 308 309 308 307 308 307 307 306 305 305 305 303
315 322 324 320 316 317 320 324 326 326 325 323 323 325 326 320 323 323 319 320 319 319 320 322 322 319 318 313 311 311 311 310 309 308 308 308 308 308 307 306 306 305 304 303
318 316 316 320 321 324 326 327 322 321 324 321 321 321 320 322 322 323 321 320 321 321 318 320 319 319 315 313 311 313 311 310 310 309 308 308 308 307 307 306 306 305 305 304
318 321 324 325 325 324 325 326 324 327 324 322 321 322 327 324 321 321 321 321 320 319 319 325 318 319 315 314 312 311 310 310 311 311 309 309 308 308 307 306 306 306 305 304
325 327 326 325 325 326 326 325 327 323 323 324 322 321 323 325 320 320 320 320 320 319 319 319 320 318 315 315 313 312 312 313 311 311 310 309 307 307 307 307 306 306 306 305
325 325 325 324 323 323 323 324 325 324 323 322 322 320 323 320 319 317 317 316 317 318 320 319 319 317 315 314 312 312 311 310 311 310 308 308 307 307 306 307 307 306 306 306
323 323 324 325 327 325 325 323 324 322 322 322 321 321 321 319 318 318 317 316 316 318 319 316 316 315 313 314 311 310 310 309 309 309 309 307 307 307 306 305 306 307 307 306
324 325 325 326 326 325 325 324 323 320 320 321 319 321 321 318 318 317 316 316 318 315 314 314 316 314 314 312 310 309 308 309 309 308 307 308 307 307 306 306 306 307 307 307

GFSNW_925_thetae_057.txt.gz
Theta_e
309 309 308 308 307 308 312 317 323 317 317 320 322 321 318 315 317 317 317 317 317 317 317 317 317 317 317 316 315 315 314 313 312 313 314 315 315 318 317 318 322 326 330 331
309 309 308 308 308 308 309 318 321 317 318 320 320 319 316 315 315 315 315 316 315 315 316 317 318 317 316 315 314 315 312 313 314 313 313 315 316 315 313 312 311 314 318 326
309 308 308 308 309 310 310 319 322 318 317 316 316 318 317 316 314 314 314 315 315 314 314 314 317 317 316 316 315 316 313 312 313 314 315 314 315 315 315 313 310 312 315 318
309 308 308 309 311 312 313 320 316 316 317 316 316 315 314 313 313 313 313 315 313 312 313 313 314 314 315 315 317 315 312 312 312 312 313 313 314 314 315 314 313 314 314 316
308 308 308 310 312 314 315 316 318 316 315 316 315 314 315 314 314 315 313 314 313 313 313 313 313 312 312 313 314 314 314 315 312 313 313 313 314 315 316 316 315 314 314 314
308 308 308 310 313 315 315 316 316 317 314 315 314 314 314 314 314 313 312 314 314 314 313 312 311 310 309 310 311 314 316 316 317 316 314 315 316 314 315 315 316 313 313 313
308 309 308 310 312 313 314 314 316 319 316 314 315 314 314 314 313 314 313 313 314 313 311 312 311 312 311 311 310 309 313 316 318 316 316 318 316 314 315 316 316 315 315 314
308 308 308 309 312 314 314 314 315 318 318 316 315 315 315 315 314 314 314 313 313 312 312 314 315 316 317 316 314 314 313 313 316 314 316 315 314 313 313 314 315 315 315 315
309 309 308 309 312 314 316 314 315 317 321 316 315 317 315 315 314 315 315 313 313 311 312 316 317 319 316 315 314 312 313 315 319 318 316 316 312 312 312 312 313 313 316 317
309 309 309 308 309 313 315 316 315 317 322 316 316 315 316 315 315 316 315 315 314 311 313 314 314 316 313 313 314 314 313 315 317 319 322 319 314 313 315 317 316 315 315 314
309 309 309 309 308 310 314 317 315 316 319 317 316 315 316 316 315 318 315 317 315 313 313 312 312 312 312 312 311 312 313 315 318 317 320 317 311 312 316 313 310 310 311 312
309 309 309 309 309 309 313 317 316 315 316 318 317 317 315 314 314 315 314 316 315 313 314 312 312 312 312 313 313 312 312 313 312 311 313 310 310 309 308 308 308 308 308 309
310 309 309 309 309 309 309 312 316 317 318 319 319 318 317 314 314 313 315 315 314 314 313 312 312 311 312 313 314 313 311 309 310 308 310 309 308 307 307 306 307 306 306 308
311 310 309 309 309 309 309 312 315 317 317 321 321 317 316 315 314 313 313 314 314 314 312 314 312 311 311 312 312 311 310 309 310 309 309 308 308 306 305 305 304 306 308 307
311 311 310 309 309 310 310 312 315 316 317 320 319 318 317 317 316 315 314 314 315 316 316 316 316 312 311 310 311 310 308 310 310 309 308 308 307 306 305 304 305 306 307 311
311 311 311 310 310 310 312 318 318 316 317 318 321 319 319 318 316 316 317 316 316 315 316 317 315 314 313 315 315 312 309 310 309 309 307 308 307 306 305 305 304 304 306 308
312 311 311 311 310 310 315 318 316 315 315 318 322 322 320 318 317 318 318 317 317 317 317 317 316 314 313 315 313 313 310 310 310 309 308 308 307 307 305 305 303 303 304 304
312 311 310 310 310 310 311 315 316 315 316 317 322 322 325 320 324 324 319 318 317 318 317 316 315 315 314 315 313 312 311 309 309 308 308 307 308 307 306 305 304 304 305 303
311 311 310 310 311 315 317 316 315 314 315 320 324 326 325 322 323 322 319 318 320 319 320 318 317 315 308 310 313 313 311 309 309 309 308 308 308 307 307 305 304 303 303 302
311 311 314 320 320 317 317 313 315 314 315 317 322 322 325 323 322 323 322 320 320 323 320 318 317 311 312 315 314 313 311 310 309 309 309 308 308 308 307 306 305 303 303 302
313 320 324 320 318 317 320 324 323 323 324 322 322 322 324 321 323 324 321 321 320 322 320 320 316 315 317 315 314 313 312 311 309 308 308 308 308 308 307 307 306 305 304 304
318 314 315 317 321 324 326 328 325 326 326 322 323 324 323 323 322 319 316 321 320 321 319 319 317 317 316 315 314 311 312 312 311 310 309 309 309 308 307 307 306 305 305 303
314 319 323 326 327 326 327 325 323 325 327 325 324 323 327 325 321 317 320 320 319 317 316 315 317 318 316 314 314 312 311 311 311 311 310 309 309 307 307 307 307 306 305 304
322 328 318 328 329 327 327 327 327 325 324 324 324 325 326 322 321 320 318 318 319 320 320 318 318 316 316 314 314 313 312 311 312 311 310 310 307 308 307 307 306 306 306 306
326 327 321 326 326 328 326 326 327 325 324 324 324 323 322 320 319 317 317 317 318 319 320 318 317 316 315 315 312 312 310 311 311 310 309 309 309 308 308 307 307 306 306 306
325 325 325 325 326 326 324 324 325 323 324 326 324 322 321 319 318 317 317 317 318 318 318 317 316 315 314 314 314 312 312 309 309 310 309 309 307 307 308 307 307 307 307 306
324 326 325 326 327 325 326 324 322 323 322 323 321 322 321 319 319 318 316 318 318 316 317 316 315 316 314 313 313 312 310 312 309 307 310 308 307 305 305 307 307 308 307 305

GFSNW_925_thetae_060.txt.gz
Theta_e
309 309 308 308 310 311 313 313 315 315 317 314 312 311 313 313 312 312 312 313 313 314 313 314 315 315 315 314 313 314 310 308 311 312 311 312 312 311 309 315 319 318 323 324
309 308 308 309 311 311 310 312 314 316 315 312 311 312 313 312 312 312 312 313 312 311 312 314 315 315 315 314 313 314 310 309 311 311 309 310 312 312 311 307 306 310 312 314
308 308 309 312 313 313 312 312 312 310 308 308 311 311 311 312 312 312 311 311 309 309 309 309 312 312 313 313 316 319 310 307 310 311 312 311 312 312 312 308 307 309 310 312
308 308 309 313 314 314 314 309 311 310 312 311 310 311 312 313 313 311 310 312 311 309 309 309 311 310 309 311 314 311 308 309 310 310 311 312 312 313 313 313 312 312 311 311
308 308 310 313 314 315 314 310 311 309 308 310 311 310 311 313 313 312 312 313 312 310 311 312 312 309 308 310 307 310 309 313 312 313 313 313 314 314 314 313 313 314 313 311
309 308 310 313 314 314 314 314 314 308 309 310 310 311 312 313 312 311 312 313 312 312 312 311 309 307 306 306 308 307 311 312 312 314 313 313 313 313 313 313 313 313 314 312
309 308 309 312 314 314 313 314 313 309 311 311 312 313 314 314 312 312 312 311 312 311 309 308 308 308 308 308 308 303 309 311 311 313 313 314 310 311 312 312 313 313 314 315
309 308 309 312 313 315 314 315 314 311 311 312 314 313 313 310 311 313 314 313 311 307 307 309 310 310 310 312 310 308 307 308 310 315 310 311 312 312 314 314 312 316 315 315
309 309 308 309 312 315 315 315 315 313 312 312 315 313 312 310 311 311 314 311 310 307 307 308 312 313 312 311 311 307 308 309 311 314 315 314 313 310 311 313 311 311 311 311
309 309 309 308 310 312 315 316 315 316 315 310 312 312 312 311 310 310 312 313 311 306 305 311 311 313 310 306 311 311 309 310 311 316 317 316 309 310 312 314 312 309 308 308
310 309 309 309 309 312 315 317 315 314 311 312 314 313 313 313 309 311 310 309 308 307 306 309 309 310 310 309 309 310 311 309 312 310 315 316 309 310 311 309 307 307 306 306
310 310 310 309 309 309 311 316 316 316 313 312 316 317 317 313 312 309 309 308 309 307 308 308 304 309 310 309 310 311 309 307 307 311 308 307 306 307 305 306 306 305 305 304
310 310 310 310 309 309 309 311 314 315 311 312 314 315 317 314 313 313 311 308 308 308 306 305 307 308 306 309 310 310 310 306 308 308 306 306 307 307 306 305 305 303 303 305
310 311 311 310 309 309 309 310 311 314 313 315 314 317 315 315 314 313 313 311 312 309 306 306 308 309 304 302 306 309 306 308 308 308 307 307 307 306 307 306 305 304 304 305
310 310 311 311 310 310 311 312 315 315 316 315 313 315 316 316 314 313 313 313 310 309 312 310 311 308 306 306 308 309 307 307 309 306 305 306 306 305 307 306 305 305 304 305
310 311 311 311 311 311 313 312 317 315 316 316 315 314 315 317 315 313 312 311 309 309 310 310 314 309 307 308 311 306 304 305 305 306 305 305 307 306 307 305 305 304 304 304
308 310 311 311 311 311 312 314 315 315 315 316 318 315 316 317 317 315 312 315 312 310 310 311 310 310 308 306 305 307 306 306 306 306 306 307 306 306 306 306 305 303 303 303
310 311 311 310 310 310 311 314 314 315 314 315 318 318 318 316 317 318 315 316 313 312 313 310 310 308 306 305 307 308 308 307 306 306 306 306 305 306 306 306 305 304 303 303
311 311 310 310 311 312 315 315 315 314 315 316 319 319 321 319 321 319 319 317 318 316 317 313 312 306 305 306 307 308 308 307 306 305 305 305 306 307 306 306 305 304 304 303
310 312 313 313 317 317 315 312 310 310 310 311 313 315 318 316 318 317 320 318 320 319 318 314 310 308 306 306 308 309 307 306 306 308 306 305 305 305 305 305 305 304 304 303
312 314 316 318 316 316 314 317 318 318 319 314 314 315 317 315 315 315 316 317 315 317 317 318 313 310 312 312 312 309 307 307 306 306 306 305 305 305 305 305 305 305 304 303
315 313 314 315 315 318 322 323 321 322 321 320 319 318 317 316 317 315 312 318 318 315 314 312 312 310 314 311 311 310 308 309 309 309 308 308 307 308 306 306 305 305 305 304
312 314 318 320 320 320 326 323 321 320 320 321 320 321 317 315 311 311 314 318 316 310 313 311 309 313 315 311 309 309 308 310 309 309 308 309 309 308 307 306 306 306 305 305
315 323 315 323 324 326 326 326 324 322 321 319 318 318 317 315 315 314 317 314 316 317 313 314 313 311 311 310 309 309 308 308 310 310 310 309 309 308 307 306 306 306 305 305
320 322 318 322 323 324 324 321 322 321 319 318 318 317 314 314 315 313 312 315 315 312 311 311 310 309 310 309 307 307 308 307 307 308 308 307 307 306 307 306 307 306 306 305
320 321 322 319 324 322 323 321 320 317 317 316 316 316 316 316 314 315 315 314 311 312 310 310 309 310 310 307 307 307 308 307 307 307 308 308 307 306 306 307 306 306 305 304
324 322 319 321 324 324 323 318 318 317 315 316 315 318 319 314 316 316 313 313 311 311 310 310 309 309 312 311 308 308 308 307 307 306 306 305 305 305 303 305 306 306 304 304

GFSNW_925_thetae_066.txt.gz
Theta_e
309 311 312 312 313 314 315 311 311 314 312 308 303 307 309 310 310 308 309 310 310 311 309 310 314 313 311 312 311 313 308 307 310 310 308 308 309 310 306 315 318 309 318 321
309 312 312 313 313 314 315 311 309 313 311 310 307 309 310 310 310 309 309 309 308 306 308 311 311 311 310 310 316 316 311 306 307 311 307 307 309 309 307 303 303 309 316 314
310 312 313 313 314 314 314 305 309 307 304 303 308 310 310 311 310 310 309 309 307 307 308 307 310 310 310 308 313 317 307 304 307 308 310 308 311 311 310 307 310 310 310 312
309 312 313 314 314 314 311 304 308 306 308 308 307 308 309 312 311 309 308 310 308 308 309 309 310 309 308 308 309 308 305 311 309 308 310 311 311 312 312 311 310 311 309 313
309 311 313 314 315 315 313 310 308 303 305 305 308 307 310 311 311 310 311 311 310 309 310 310 311 310 308 308 307 306 304 311 310 311 311 311 312 311 312 311 311 311 310 312
309 310 313 314 314 314 312 310 309 304 306 306 309 309 311 311 310 310 311 311 309 311 312 309 308 307 304 306 308 305 307 306 306 309 311 309 311 311 311 311 312 313 312 313
308 309 313 313 314 315 314 312 308 307 310 309 310 312 311 311 311 312 311 310 311 310 305 305 304 303 304 305 304 300 306 306 305 308 306 305 307 309 310 313 315 312 313 311
309 309 310 313 314 314 315 314 311 305 309 309 312 311 310 309 309 311 312 310 307 303 304 305 307 305 308 307 305 304 302 305 306 307 303 308 312 310 309 311 312 309 310 308
310 309 309 309 314 315 315 314 315 307 306 309 312 311 310 308 309 309 311 308 305 302 301 303 308 305 308 309 307 303 304 302 306 304 310 312 311 308 307 308 314 306 307 306
311 310 309 309 313 315 315 315 314 313 309 308 308 309 309 306 306 307 307 309 307 302 300 300 299 301 308 302 306 307 302 303 306 309 311 312 308 307 308 312 310 305 306 305
311 312 310 309 310 310 315 315 315 314 308 308 311 309 309 308 306 309 307 306 304 302 301 300 307 307 308 305 302 306 302 299 298 309 310 306 307 306 307 305 304 305 304 304
310 311 311 310 309 309 311 314 314 314 311 309 313 314 314 312 310 305 303 305 304 303 302 301 303 308 308 304 299 306 306 301 300 301 302 302 305 304 304 304 305 305 305 303
310 311 311 311 309 310 311 311 312 313 308 309 311 312 315 316 315 312 308 304 303 303 300 300 300 299 304 304 302 305 307 302 300 302 303 303 303 303 304 304 304 304 304 304
309 310 311 311 311 311 311 312 312 314 308 311 310 313 313 314 315 311 311 307 306 303 301 302 301 302 300 301 301 300 302 305 308 307 303 303 303 303 304 304 304 305 306 305
308 310 311 311 311 311 311 314 313 314 312 312 310 312 314 314 314 311 310 309 307 309 309 307 306 302 302 300 303 301 303 304 305 304 302 302 302 304 304 304 305 305 306 304
308 309 311 310 311 311 313 311 314 314 314 310 312 309 311 314 312 309 309 309 309 310 311 312 309 306 306 307 309 304 302 301 301 303 301 301 303 303 304 305 305 306 306 305
310 310 310 310 310 311 311 311 314 313 314 314 311 310 309 314 309 307 308 311 312 312 312 312 313 310 307 310 306 306 304 303 302 301 303 305 304 305 304 304 305 305 305 305
306 311 310 310 310 310 312 313 312 313 313 313 313 312 312 314 311 312 311 314 314 314 315 313 312 310 310 312 310 306 306 303 303 303 302 304 304 304 303 304 304 304 304 304
306 310 310 310 310 311 313 314 314 313 314 312 310 312 315 310 312 311 312 315 319 314 316 316 313 311 312 311 309 307 305 306 306 304 303 303 304 304 303 303 303 303 304 303
309 312 312 313 315 314 313 312 311 309 306 309 315 307 313 311 311 314 317 315 315 319 315 308 307 307 310 309 307 304 305 306 304 306 305 303 303 303 303 302 303 303 303 303
311 311 312 314 313 313 312 316 315 316 315 309 311 308 313 310 315 317 312 312 312 316 309 314 310 309 311 311 309 306 305 305 305 304 304 304 304 303 303 303 304 304 304 303
313 312 312 313 311 314 319 321 320 320 319 314 315 314 312 311 310 314 311 317 315 315 308 312 306 305 305 308 309 309 307 307 306 305 305 305 304 305 304 304 305 305 304 304
310 311 313 312 314 319 323 319 319 321 318 317 317 317 312 312 308 313 314 318 316 307 311 308 303 305 305 306 307 308 308 307 307 307 307 307 306 307 306 306 307 306 304 303
308 317 320 323 319 320 319 320 319 317 315 315 314 315 315 310 314 310 315 311 311 316 313 305 306 307 306 306 307 308 308 307 307 307 308 308 307 308 308 307 305 305 304 302
313 315 315 319 319 316 318 319 319 316 314 313 314 314 312 314 315 310 310 314 315 310 308 306 306 306 305 306 306 304 306 307 306 306 306 307 308 307 306 305 305 305 305 302
312 314 318 315 318 318 320 319 318 313 313 311 311 314 315 315 312 314 314 313 311 309 306 306 305 306 305 305 305 307 308 307 307 306 305 305 305 305 305 304 304 305 305 303
318 318 314 314 315 318 317 319 320 312 314 314 312 316 316 311 314 314 309 310 309 307 307 306 304 305 305 305 306 307 305 305 305 304 304 303 303 303 301 302 304 305 304 302

GFSNW_925_thetae_069.txt.gz
Theta_e
310 312 313 313 314 315 314 312 317 312 312 315 310 313 312 310 312 311 312 312 311 313 314 316 317 317 315 312 316 314 311 314 316 315 312 311 313 314 315 326 328 322 329 323
310 312 314 314 314 314 315 316 313 312 311 315 314 312 312 312 313 312 312 312 311 311 312 317 315 314 311 312 318 316 313 313 317 316 314 313 315 314 312 311 315 323 327 319
310 312 313 314 314 313 311 313 315 313 310 307 312 312 313 313 311 311 311 312 311 312 313 313 314 313 311 310 315 316 312 313 315 316 316 314 316 315 314 315 319 318 319 318
310 312 313 314 314 314 311 311 312 309 314 313 312 312 312 313 313 312 312 312 312 312 314 314 314 312 312 312 311 313 315 317 314 314 313 314 314 314 314 315 315 318 317 317
309 312 313 314 314 313 312 316 313 309 310 309 313 312 313 313 313 313 313 313 313 313 314 313 314 313 313 312 312 312 312 317 315 316 314 314 314 313 313 313 313 314 315 317
308 311 312 313 315 314 313 309 307 313 309 312 313 314 313 313 312 313 313 312 313 314 313 312 311 310 309 310 312 312 314 316 315 315 314 313 313 314 313 314 317 316 316 319
309 309 310 313 314 315 314 311 309 315 315 314 314 313 313 313 313 314 313 313 313 311 308 308 309 310 310 311 310 308 313 316 316 315 312 313 314 312 312 316 316 317 317 315
311 309 309 313 314 314 315 313 311 314 316 313 313 313 313 312 313 314 314 312 310 308 309 313 314 314 314 312 310 311 310 314 317 318 314 312 313 312 312 315 315 311 312 311
311 310 309 310 314 315 314 314 313 311 316 314 313 313 312 314 314 314 314 310 307 307 310 314 316 318 314 315 311 308 311 312 317 318 317 316 315 309 309 311 315 310 309 309
311 311 310 309 309 312 315 315 314 314 317 312 312 314 314 311 312 314 312 313 311 307 310 315 315 314 310 315 313 313 314 316 318 318 318 316 312 309 311 317 315 308 308 308
310 311 311 310 309 309 313 314 314 314 316 314 312 312 313 311 312 316 312 313 310 309 313 312 311 313 311 310 309 312 313 317 318 315 316 317 311 309 313 311 308 308 307 306
309 310 311 311 309 309 311 313 312 313 315 315 311 312 312 313 313 313 310 312 311 310 311 309 309 312 310 311 316 309 314 312 316 314 315 310 310 309 308 307 308 307 306 305
308 310 311 311 310 311 312 312 313 313 315 315 315 316 314 315 313 312 314 310 310 310 307 309 310 313 311 314 313 312 311 307 313 310 311 309 309 308 308 308 307 306 306 305
308 309 310 311 311 311 311 313 313 313 312 317 314 312 314 313 313 311 311 310 307 307 308 311 312 314 308 313 311 312 311 310 312 311 311 308 308 309 309 308 307 307 307 307
307 308 310 310 311 311 311 313 313 314 315 319 319 314 313 313 312 311 310 310 309 312 314 314 315 309 309 308 309 313 310 312 314 318 312 311 310 309 308 309 308 309 309 309
310 309 309 310 310 311 313 317 314 314 314 317 318 313 314 314 310 311 311 310 311 312 315 315 311 308 313 313 313 313 310 310 311 311 309 309 309 309 308 309 309 308 309 308
306 308 310 310 310 310 313 317 314 313 313 317 317 316 314 314 310 311 312 312 314 316 315 316 317 314 311 312 315 313 311 310 309 308 308 309 308 310 309 308 309 308 308 308
305 307 310 310 310 310 312 313 312 313 314 315 317 318 318 315 319 320 315 316 316 315 317 315 314 311 309 310 311 313 312 310 309 308 308 310 309 309 309 308 308 310 309 309
306 309 310 311 311 314 313 314 313 312 314 318 317 319 322 315 318 318 319 318 321 317 319 317 313 313 312 312 314 314 312 310 311 309 308 308 309 310 310 310 310 309 309 309
308 311 312 318 315 313 313 313 314 315 314 315 316 314 320 317 318 320 320 319 320 321 317 312 314 314 314 313 311 312 312 309 309 310 310 310 310 311 311 310 309 309 309 309
310 314 318 314 313 313 315 319 318 317 317 315 315 315 320 315 322 322 318 319 319 320 317 315 313 313 316 314 314 313 313 308 310 311 311 311 311 311 309 309 308 308 308 309
312 313 312 313 315 317 320 323 321 320 323 319 320 318 316 318 316 320 317 320 317 317 314 315 312 317 313 312 314 314 313 311 311 310 311 310 309 309 309 310 309 308 309 307
310 311 315 317 318 320 323 325 323 324 323 322 320 323 319 316 315 317 318 319 318 314 316 313 314 316 313 313 312 313 312 312 311 312 311 311 310 310 309 309 310 309 308 306
311 319 316 322 322 322 324 325 326 322 322 322 321 321 322 316 318 317 319 317 316 316 316 316 316 316 314 313 312 313 313 312 312 312 311 311 311 310 310 310 310 309 308 306
314 318 317 323 323 323 323 322 322 322 320 320 320 319 319 318 317 315 315 317 317 318 318 316 317 314 313 314 313 312 311 312 312 310 310 310 310 310 310 310 308 307 308 306
313 315 320 322 323 325 324 324 325 319 319 318 318 320 319 319 316 316 318 317 317 315 316 316 314 314 313 313 312 312 311 311 310 309 308 308 307 306 307 307 307 307 307 306
317 319 318 316 319 320 321 323 325 319 321 324 320 321 320 315 316 317 314 318 317 316 316 314 312 312 312 311 311 310 309 308 308 308 308 307 307 306 306 306 306 307 307 305

GFSNW_925_thetae_072.txt.gz
Theta_e
310 313 314 314 314 314 318 318 321 315 315 319 318 319 316 311 316 316 315 316 317 319 319 320 319 319 318 316 319 317 317 320 321 321 317 317 321 324 326 328 331 330 331 328
311 313 314 314 314 312 318 319 318 315 317 320 318 316 315 315 316 316 317 317 316 316 319 320 319 318 314 316 319 320 316 318 321 320 319 318 321 320 322 323 326 331 329 327
311 313 314 314 313 313 315 317 318 316 317 316 318 316 315 315 313 314 315 316 316 318 319 319 319 317 315 314 318 317 317 318 319 320 321 321 321 319 320 323 327 329 329 327
309 312 313 315 313 313 315 317 315 315 315 315 315 315 314 314 315 314 314 314 315 317 320 320 319 318 317 316 316 318 321 322 320 318 317 318 318 318 318 321 324 327 326 327
309 311 312 314 314 314 316 317 316 314 315 315 315 313 315 315 315 315 315 315 314 316 318 318 319 318 318 318 317 318 318 322 321 320 317 318 318 317 316 316 318 322 323 324
309 309 311 312 315 315 315 315 313 317 312 315 316 316 314 314 315 315 314 314 316 316 315 315 315 314 315 315 317 317 318 320 321 320 317 316 317 318 316 317 318 320 322 324
311 309 310 314 313 316 317 316 316 318 315 315 316 315 314 315 316 316 315 315 316 314 312 313 313 313 314 314 314 314 317 320 318 318 317 316 319 316 316 318 319 320 321 320
311 310 309 312 315 314 318 317 317 317 316 315 315 315 315 315 315 316 315 314 313 313 314 316 317 317 316 315 314 314 316 317 317 319 317 317 315 315 316 319 319 317 318 317
310 312 310 310 310 314 318 317 317 317 318 316 314 315 315 315 315 316 315 314 311 313 316 318 321 322 321 319 316 314 314 316 319 318 322 319 320 314 314 315 319 315 315 315
309 311 311 310 309 310 317 318 316 319 319 316 316 317 317 315 315 315 316 316 314 313 315 320 321 322 316 322 318 318 319 320 322 320 322 319 316 313 314 316 320 314 313 313
308 310 311 311 309 309 313 317 315 319 318 318 316 316 317 316 317 316 317 316 314 313 316 317 320 320 318 317 317 316 318 322 323 321 322 325 315 314 318 317 313 312 312 311
307 309 311 311 310 311 312 317 314 315 319 320 316 316 316 316 317 316 316 315 314 313 314 315 316 319 316 318 321 314 320 318 322 320 321 316 315 314 313 312 313 311 311 309
308 308 310 311 311 312 313 316 316 318 319 319 318 319 316 316 316 316 318 315 315 315 314 313 314 318 316 321 320 317 315 314 318 317 314 314 315 312 312 311 311 310 309 309
308 308 310 311 311 312 312 317 315 317 318 319 319 317 318 316 316 317 316 316 314 315 315 317 317 319 314 318 318 318 316 315 316 317 315 313 313 313 312 311 311 310 309 309
308 307 309 311 311 311 313 315 316 317 320 320 319 317 316 317 317 317 316 314 314 314 316 316 318 316 315 315 315 319 315 316 320 322 316 316 313 313 312 312 311 310 310 310
308 310 310 310 310 311 315 321 317 316 317 321 320 317 319 317 316 317 317 316 316 317 316 318 315 314 314 319 319 317 316 315 316 316 314 313 312 312 311 312 311 310 310 310
306 306 308 310 310 312 316 321 317 315 316 320 319 320 319 318 316 317 317 315 316 317 318 318 319 316 314 314 318 317 317 316 315 314 313 313 312 312 311 311 310 309 309 310
305 306 310 310 310 311 315 315 312 314 318 318 321 320 321 319 322 323 318 320 318 318 319 318 319 313 312 314 316 317 315 314 314 314 312 312 312 311 312 311 311 312 312 310
307 308 311 312 313 319 318 315 314 314 318 322 322 326 325 320 323 322 321 320 323 320 321 320 318 317 316 318 318 316 315 315 315 315 313 312 312 312 312 312 312 312 311 310
309 311 317 323 319 314 314 316 319 319 319 319 323 321 326 322 323 323 323 322 321 322 321 315 318 319 318 318 318 316 314 315 313 314 315 313 312 312 312 313 312 311 310 309
311 318 321 317 314 317 318 322 322 321 323 322 321 321 324 320 325 324 322 321 321 321 319 318 317 317 317 317 317 316 315 314 313 312 313 312 312 312 313 313 311 311 310 310
315 316 315 316 318 320 322 323 323 322 328 325 324 324 320 322 321 323 321 322 320 319 318 318 319 318 316 316 317 317 315 315 315 313 314 313 313 312 312 312 312 312 310 309
312 315 318 320 321 323 325 328 329 329 327 326 325 326 323 319 321 322 322 321 319 316 319 320 318 317 316 317 316 316 315 315 315 315 314 313 313 313 313 312 312 312 311 310
315 318 321 323 324 325 327 328 328 326 326 326 327 326 326 322 323 322 322 320 318 317 316 322 317 316 316 316 316 316 315 315 315 315 314 313 313 313 312 312 312 311 311 310
315 317 320 320 322 326 326 327 327 326 325 326 325 325 325 324 323 320 318 318 319 319 319 315 317 317 316 316 315 315 314 314 314 312 312 312 312 312 312 312 312 311 311 310
315 316 318 319 323 321 325 327 328 326 326 324 326 326 325 324 321 317 317 318 318 315 315 318 317 317 316 316 315 314 312 311 311 310 309 310 310 310 310 309 309 311 310 310
317 317 316 316 315 317 318 322 325 325 325 327 324 324 323 319 319 317 316 318 317 316 317 317 318 317 316 314 312 311 309 309 309 308 308 308 307 306 307 309 308 308 309 309

GFSNW_925_thetae_078.txt.gz
Theta_e
309 311 312 314 313 314 319 323 326 320 317 323 321 321 320 314 320 318 319 320 322 323 323 324 324 326 323 320 321 322 323 324 331 327 325 327 329 331 332 336 340 336 343 346
309 310 312 313 314 314 316 325 319 318 320 326 324 319 318 319 320 320 319 320 318 321 321 325 323 322 319 320 321 325 324 323 328 327 326 325 325 327 328 329 333 340 340 343
310 310 312 313 314 315 316 324 321 320 319 319 320 319 318 317 316 319 321 321 320 318 320 319 323 320 319 319 321 322 322 321 327 330 327 325 326 326 327 327 330 332 339 346
312 310 311 313 313 316 318 321 317 319 320 318 318 319 318 317 318 316 317 320 321 322 326 319 320 321 319 319 319 320 320 321 322 325 323 322 325 325 326 326 328 335 341 344
312 311 310 312 313 318 321 321 322 317 319 319 319 315 317 318 318 320 318 318 317 319 327 326 327 324 321 319 320 319 320 323 326 324 323 322 322 324 324 325 325 328 336 338
311 312 310 311 314 321 321 320 319 322 316 319 318 316 316 317 318 317 318 319 319 319 321 320 322 321 323 324 324 322 321 322 326 326 322 322 322 322 322 322 323 336 339 334
309 312 312 311 312 315 320 319 323 324 318 318 317 316 317 319 320 319 319 320 321 319 316 316 316 317 317 319 320 321 323 327 325 327 323 325 322 321 321 320 323 330 333 332
309 310 312 312 311 313 318 320 323 324 321 317 317 317 317 318 319 319 318 317 317 317 319 320 320 318 319 318 317 317 318 321 324 326 327 325 323 321 321 320 323 327 329 328
308 309 312 312 311 311 318 322 321 325 323 320 318 318 319 321 320 320 317 316 317 318 321 322 324 331 326 325 320 317 318 319 325 324 325 325 324 319 319 320 325 324 325 325
307 308 311 313 312 311 312 321 321 325 325 320 319 322 322 318 318 320 319 318 318 318 322 322 329 330 323 328 324 323 319 320 323 324 325 326 323 319 318 322 323 322 322 322
307 308 310 312 312 312 312 322 321 324 327 322 318 319 320 319 320 322 321 319 319 318 319 322 330 325 325 323 324 326 323 327 328 322 326 331 320 319 320 324 321 319 319 318
308 308 309 312 313 313 314 322 322 321 322 324 320 318 318 319 321 321 318 320 320 320 320 320 323 324 321 323 326 319 325 323 332 325 330 325 320 321 322 321 320 318 318 316
308 308 309 311 312 313 314 320 320 320 322 323 320 318 318 318 318 319 322 322 320 319 318 320 319 323 320 323 323 321 320 318 322 323 322 322 322 319 319 318 319 317 316 314
308 308 308 311 312 312 313 320 321 320 323 323 324 321 319 318 318 318 320 320 319 319 318 319 321 322 321 322 321 326 322 320 319 320 319 318 317 318 316 314 314 315 313 313
309 309 308 309 311 311 312 318 321 321 324 329 325 321 320 319 318 319 319 320 320 320 320 320 321 321 321 321 321 325 320 321 326 327 320 321 320 318 317 316 314 314 314 313
307 308 309 310 311 311 316 324 320 320 321 324 324 324 322 319 320 320 320 321 320 320 320 321 322 320 321 322 324 321 320 319 321 322 322 321 319 320 317 317 316 314 314 314
306 306 306 308 310 312 320 323 321 318 320 325 326 323 323 321 320 321 321 321 320 321 321 322 321 324 319 322 324 319 318 318 318 320 319 321 320 318 316 316 315 314 313 313
306 306 308 311 312 312 316 317 316 317 321 324 326 327 326 322 322 322 321 321 322 321 322 324 325 322 320 324 320 319 318 318 318 319 318 318 319 317 315 314 315 315 314 314
306 308 312 313 315 322 322 318 316 318 322 329 326 328 328 324 324 324 325 323 327 323 325 327 324 325 322 321 320 320 318 318 319 319 318 317 317 316 315 315 314 315 315 314
309 310 317 325 322 319 317 321 322 321 323 323 328 325 331 325 325 329 327 326 327 328 326 323 325 327 322 321 320 320 318 318 318 318 318 318 318 317 316 315 316 315 314 314
313 318 322 322 318 320 321 323 324 324 327 325 325 326 327 326 328 330 327 327 327 329 327 324 326 325 320 319 320 318 318 317 317 318 317 317 316 316 315 313 315 314 314 314
316 319 320 320 321 321 325 325 325 327 329 328 326 327 325 328 325 329 326 326 325 326 321 322 324 321 320 319 317 317 318 316 316 316 317 316 315 315 316 315 315 314 314 314
319 318 320 321 322 326 326 327 329 330 328 328 328 329 331 331 329 329 327 325 325 321 322 329 322 320 321 319 317 316 315 315 317 316 316 316 316 314 315 315 315 315 313 314
321 321 319 322 324 325 326 329 330 328 328 328 330 331 332 330 327 329 325 325 323 322 323 323 321 325 321 320 317 316 315 316 316 317 315 314 313 314 315 315 314 314 313 312
320 319 320 321 320 321 324 327 327 327 328 330 333 332 330 329 329 326 323 322 322 321 320 320 325 321 321 320 317 316 315 314 315 312 312 312 311 311 311 310 310 311 312 314
318 319 320 319 319 320 320 328 326 326 329 329 331 330 331 329 326 322 319 320 321 318 320 323 321 321 319 317 315 314 312 311 311 310 310 310 310 309 309 309 308 308 309 310
319 319 318 318 318 319 319 318 319 321 328 331 329 330 329 321 319 320 319 320 320 319 321 322 322 320 317 315 312 311 310 309 309 309 308 309 309 309 309 309 308 308 308 308

GFSNW_925_thetae_081.txt.gz
Theta_e
312 310 310 312 313 314 316 321 326 324 317 323 325 324 319 315 319 320 319 319 321 323 324 325 327 326 324 319 320 320 323 320 329 329 326 326 326 332 333 331 333 339 348 349
312 311 310 311 313 314 316 322 324 318 320 324 324 319 318 317 318 319 321 320 319 319 322 326 325 324 319 319 321 321 321 322 324 329 326 324 324 325 324 324 326 335 345 348
311 312 311 311 312 314 317 323 323 321 319 318 318 320 318 317 315 317 318 321 320 318 320 320 322 322 318 318 318 323 321 319 322 329 329 324 322 322 323 324 324 340 341 345
309 312 312 311 312 315 318 323 317 318 318 317 316 319 319 317 317 317 316 320 321 324 324 325 320 323 320 319 320 319 319 321 321 325 326 323 321 322 323 323 326 339 345 344
309 310 312 311 312 319 322 321 320 321 318 320 321 316 317 317 317 318 319 320 318 325 325 325 327 324 324 322 321 318 317 322 324 323 323 322 322 322 323 324 335 340 341 341
308 309 311 312 311 316 323 323 322 325 321 320 317 316 316 316 319 316 317 319 321 322 321 322 323 321 320 323 323 322 321 323 324 324 326 324 322 322 320 332 335 335 341 334
307 309 311 312 311 310 315 322 322 327 327 318 317 316 318 319 320 320 318 319 322 318 316 316 315 315 316 318 318 317 320 324 323 325 325 326 322 321 321 321 331 332 332 331
307 308 309 312 312 311 312 321 322 329 329 318 317 317 318 319 318 318 317 317 316 316 318 319 318 317 318 317 317 317 316 320 322 325 326 325 324 322 321 321 330 331 330 328
306 308 309 312 312 312 313 321 320 325 330 320 318 318 319 321 321 320 317 316 316 317 319 323 326 329 328 328 321 317 316 318 321 326 329 326 323 319 319 320 328 330 328 325
305 308 308 312 312 312 312 319 321 324 329 321 319 324 324 320 321 322 320 318 318 316 322 326 329 330 325 328 328 327 319 319 322 324 327 327 322 318 318 323 327 324 324 323
305 308 308 311 312 313 313 319 322 322 327 326 320 319 321 320 323 324 320 320 321 318 320 328 331 329 328 325 323 323 325 326 326 323 325 326 321 320 325 324 319 318 318 318
305 308 308 310 312 313 314 322 322 320 323 325 322 319 318 319 320 322 319 320 322 320 322 323 326 328 322 324 326 320 321 324 324 325 326 323 321 323 322 319 318 319 316 316
306 308 308 311 312 312 313 315 322 322 324 323 321 318 317 318 318 319 323 323 320 322 319 321 322 324 322 324 325 323 321 318 322 321 324 323 321 320 319 319 318 317 315 314
306 308 308 310 311 312 312 315 321 322 325 327 323 320 319 318 317 318 320 320 319 320 319 317 321 323 321 323 322 324 322 322 320 320 319 319 319 319 317 315 316 316 314 313
307 309 309 309 310 311 311 312 320 322 324 328 327 322 319 319 318 319 320 320 321 322 322 321 321 321 321 321 321 322 320 323 323 323 323 323 321 319 316 315 314 315 313 313
307 307 307 308 310 311 313 324 321 320 321 324 329 323 321 319 318 319 320 321 322 321 322 321 321 320 320 321 325 321 320 321 319 321 320 321 320 319 320 316 314 315 314 314
307 306 306 307 309 311 318 323 320 317 317 325 329 326 323 320 320 321 321 321 322 321 322 322 321 322 319 322 323 320 318 318 320 318 319 320 319 320 317 318 315 314 314 314
306 306 306 310 312 312 314 318 317 317 320 325 328 329 326 321 323 324 323 323 322 323 322 323 325 322 322 323 321 319 319 319 318 319 318 318 318 317 317 317 317 314 314 314
305 308 309 313 313 320 323 319 318 316 322 329 329 331 331 323 324 325 324 322 326 326 325 325 325 325 320 320 321 321 320 319 318 318 317 318 318 317 317 316 316 315 313 313
309 309 316 323 322 319 317 320 324 324 324 324 328 329 331 327 326 327 328 326 328 329 327 326 325 324 322 322 321 320 322 317 316 318 318 318 317 317 317 317 315 314 314 314
312 318 323 322 319 320 324 323 324 325 326 326 325 324 327 326 328 330 328 329 328 328 328 326 327 324 322 321 322 321 318 318 316 317 317 317 317 317 316 314 314 313 314 315
315 314 318 321 323 324 323 326 326 326 328 330 328 328 328 331 328 327 327 327 327 328 324 324 322 322 321 322 319 317 317 317 316 317 318 317 316 315 315 314 313 313 314 314
318 319 321 322 323 320 324 326 326 329 329 330 329 333 332 329 326 327 326 327 327 323 323 323 321 321 317 317 316 318 316 316 317 316 315 315 316 315 314 315 315 314 315 314
321 322 313 323 323 324 325 326 330 328 327 325 329 328 330 329 328 328 325 323 322 322 323 325 323 320 317 315 317 320 317 317 316 315 315 314 314 313 313 313 312 312 313 313
322 321 317 322 321 321 323 325 327 324 327 324 326 324 328 328 327 322 321 321 322 321 324 324 322 320 320 320 318 314 315 314 313 313 313 312 311 311 311 310 309 309 309 311
319 320 321 321 321 321 322 324 329 325 327 326 326 329 329 329 325 320 320 320 320 321 324 323 321 321 319 318 315 314 313 311 311 310 309 309 310 310 310 309 310 309 309 310
319 320 319 319 319 320 320 322 322 328 329 333 331 328 329 322 322 321 320 320 322 321 323 321 320 319 318 315 314 311 311 311 309 309 309 308 309 310 309 309 307 307 307 307

GFSNW_925_thetae_084.txt.gz
Theta_e
308 311 311 310 310 313 316 315 320 323 322 314 316 319 319 315 315 315 316 317 319 322 322 323 324 323 319 318 319 319 320 314 319 328 324 324 327 328 326 331 332 339 343 354
308 310 311 311 310 311 316 315 317 320 319 317 317 315 316 314 312 314 316 318 316 318 321 324 323 322 317 317 317 316 317 316 320 323 323 321 319 319 318 321 324 337 336 346
308 309 311 312 311 311 315 315 320 311 308 307 312 314 314 313 313 314 315 318 317 318 319 318 320 321 317 317 316 321 317 313 319 322 327 323 320 319 319 318 320 337 340 341
307 308 310 312 311 315 317 316 317 310 311 310 312 312 314 316 316 314 313 317 320 319 318 321 324 322 320 317 319 317 315 319 320 321 320 321 320 320 321 320 322 335 340 339
306 308 310 312 312 316 323 315 318 316 313 312 311 311 311 314 314 315 316 320 322 321 321 322 323 322 319 322 320 318 312 321 321 321 325 322 320 320 326 333 339 340 337 335
306 308 309 312 312 314 319 322 321 318 318 311 310 311 314 318 316 315 317 319 317 316 318 320 320 318 317 316 319 317 319 317 318 322 323 323 321 320 321 333 338 338 340 333
306 307 308 312 312 311 314 320 319 319 323 311 312 315 317 317 317 316 315 315 317 316 312 313 312 313 311 313 313 311 314 317 316 320 320 324 321 319 319 329 333 331 329 328
306 307 308 311 312 312 313 320 319 320 324 318 313 314 314 316 315 314 315 315 313 311 314 314 312 313 314 318 314 312 310 313 315 320 320 320 322 319 319 320 329 331 329 327
308 306 308 311 312 312 313 322 320 320 323 315 316 315 316 316 315 315 315 314 313 313 313 317 322 319 325 325 322 312 311 310 314 319 325 323 320 318 318 320 327 326 326 324
310 306 308 310 312 313 313 320 321 321 322 320 318 318 317 315 315 314 314 314 314 311 314 321 316 320 323 320 326 324 318 312 315 320 322 324 321 318 317 322 322 321 323 321
311 306 308 309 312 313 313 318 323 320 318 319 319 317 318 318 316 316 314 314 316 312 315 320 315 315 317 315 320 320 320 316 313 316 318 320 320 320 320 318 316 317 318 316
311 307 308 309 312 312 313 321 321 322 317 318 320 320 318 319 318 314 312 316 315 313 315 317 317 316 317 316 316 316 315 317 317 318 318 317 318 320 317 315 315 316 317 316
309 307 308 309 311 312 312 314 321 320 317 318 317 317 317 318 318 318 316 315 314 315 310 312 315 318 314 317 317 318 318 314 314 316 321 319 318 318 316 315 315 313 313 312
307 308 308 308 310 311 311 312 316 320 318 322 318 318 317 317 317 319 320 316 315 313 309 309 313 317 313 316 315 316 315 316 314 314 315 316 319 317 314 313 314 313 311 311
306 308 309 310 310 310 311 311 315 319 320 322 320 321 318 317 318 318 319 317 314 314 314 313 315 314 315 313 313 315 315 316 316 317 316 314 314 316 314 312 313 312 311 311
306 307 307 307 308 310 315 318 319 317 319 318 321 319 317 318 318 318 317 316 314 313 314 314 315 314 313 315 312 315 315 316 314 316 315 316 316 318 318 313 310 311 309 311
306 307 307 306 309 310 316 320 320 317 317 319 323 322 317 317 317 316 315 317 315 313 314 315 315 316 313 313 312 315 315 315 316 315 316 316 317 316 317 316 313 313 311 312
306 306 306 308 311 313 314 316 318 316 319 319 323 322 319 317 316 317 314 316 314 315 315 316 318 316 314 315 315 315 316 316 316 316 313 313 314 315 315 316 316 312 312 311
306 307 308 312 313 316 322 319 318 316 320 322 322 323 326 317 317 317 317 314 318 317 318 318 317 316 315 316 315 316 316 317 316 316 315 314 314 315 315 315 315 312 310 310
309 310 316 318 321 320 318 320 318 317 317 316 321 321 326 319 319 320 321 319 321 322 321 318 317 317 315 314 315 315 315 315 314 315 315 316 315 314 314 314 315 314 313 311
312 315 318 321 318 318 318 318 320 319 321 318 319 318 321 321 322 324 323 324 322 319 320 321 313 320 320 318 318 316 316 314 312 312 313 314 313 313 313 313 314 314 313 313
313 312 314 318 318 319 321 319 322 322 323 322 322 321 318 322 320 323 322 325 325 326 322 323 319 318 316 316 317 318 313 313 313 315 315 315 315 315 314 313 313 314 313 312
315 316 318 321 316 316 321 322 322 324 323 324 326 327 323 323 320 319 321 325 326 321 322 320 316 316 314 313 315 314 314 315 314 314 315 315 315 315 314 314 313 313 312 312
315 320 313 317 319 320 320 320 322 322 323 323 324 324 325 322 322 320 323 322 320 323 322 319 317 313 312 313 313 315 314 312 312 313 313 313 313 314 315 314 314 314 314 314
318 319 313 318 316 316 319 321 321 322 320 320 319 318 323 324 323 321 321 322 322 319 317 316 314 312 315 313 313 309 309 307 307 309 309 309 309 309 309 309 309 309 309 310
317 316 318 316 316 316 315 318 322 322 323 321 318 321 326 326 323 321 322 320 317 315 317 315 314 317 314 309 308 307 308 307 307 307 308 309 309 309 308 307 306 306 306 307
318 317 313 314 313 314 313 314 319 322 322 324 323 325 324 318 320 321 318 317 314 316 317 316 313 312 309 307 307 308 308 307 307 307 307 308 307 306 305 303 304 304 305 305

GFSNW_925_thetae_087.txt.gz
Theta_e
306 308 309 311 311 311 315 313 316 318 319 316 312 316 318 314 313 313 315 316 317 321 321 323 322 318 317 316 318 318 316 311 318 325 320 319 317 320 324 327 332 334 339 346
306 307 309 310 311 311 313 312 312 318 316 314 315 314 314 311 312 312 316 317 314 317 319 322 321 320 316 315 316 316 317 314 320 324 321 320 318 317 317 318 325 336 337 340
306 307 308 310 311 312 315 313 312 309 304 304 310 312 313 312 314 315 314 316 316 317 317 319 321 322 319 316 317 322 315 312 317 325 325 321 320 318 318 316 319 329 331 343
307 307 308 310 311 315 316 313 314 311 309 310 310 310 313 315 315 314 313 320 320 317 320 321 322 321 318 318 320 313 313 318 319 320 319 320 319 319 323 320 321 331 336 339
308 306 308 311 311 315 318 315 317 315 313 310 309 308 313 314 313 314 317 319 318 319 319 321 321 320 318 321 317 317 312 320 318 321 326 321 320 321 320 334 337 335 333 332
308 306 308 311 312 314 317 319 318 315 317 308 310 309 313 317 314 315 317 319 315 315 316 319 318 317 315 313 316 313 316 315 317 323 319 328 328 321 319 330 335 334 337 330
311 306 307 310 312 311 315 318 317 317 321 310 312 316 316 316 316 315 314 315 316 315 311 312 310 310 310 313 307 307 312 315 313 319 319 327 324 321 324 332 331 329 328 326
315 305 307 309 312 312 317 319 317 317 321 317 312 313 314 314 313 314 314 314 313 310 311 313 311 315 313 319 312 308 308 310 315 317 319 319 321 318 319 326 331 327 327 325
318 306 308 309 312 312 314 320 319 318 315 317 314 314 314 313 313 312 314 312 310 310 311 315 319 317 323 322 320 314 310 307 313 317 322 319 317 317 316 319 327 326 325 324
318 306 307 308 312 312 314 319 320 319 320 319 317 316 315 311 312 312 311 313 313 309 314 318 313 318 322 319 325 322 314 310 312 319 319 320 319 318 318 324 320 324 324 323
319 306 308 308 311 312 314 320 321 319 315 315 319 317 317 316 312 313 312 312 314 310 316 317 311 313 315 312 318 320 317 313 310 313 315 319 318 318 319 315 316 318 321 321
318 306 308 308 311 312 314 319 320 321 314 315 319 318 318 319 316 310 309 312 313 310 313 315 313 314 314 312 314 314 316 316 316 316 315 313 315 318 316 313 315 316 314 314
317 306 308 308 311 311 312 315 317 319 314 315 317 317 318 317 318 318 316 312 310 311 308 312 313 316 312 317 315 317 315 312 312 316 319 317 318 316 314 314 315 314 314 315
315 306 308 308 309 310 310 311 315 320 315 319 318 320 316 316 318 319 319 314 312 309 306 306 311 315 311 313 314 314 314 312 312 312 313 314 317 316 313 314 313 312 312 313
313 306 308 309 310 310 311 312 315 318 318 321 318 319 318 315 319 318 317 316 312 311 312 311 314 311 313 310 311 313 312 313 315 315 311 312 311 315 314 313 312 311 310 310
310 307 307 307 307 309 316 316 318 316 320 316 321 317 315 315 317 316 314 313 311 310 312 312 312 312 312 313 309 312 311 312 311 314 312 313 315 315 316 313 311 311 309 310
306 307 306 306 308 309 316 319 319 316 317 317 322 320 315 315 315 313 312 314 312 312 311 313 313 314 310 310 309 312 312 314 313 314 313 316 317 316 316 316 316 312 311 310
306 306 306 307 310 313 314 315 316 316 318 317 321 321 317 316 314 316 311 314 312 312 312 313 316 313 311 313 313 313 313 314 315 314 312 312 312 314 314 314 314 314 311 309
306 307 308 310 313 316 321 317 318 317 319 321 320 321 321 315 314 314 314 312 317 313 316 315 315 312 315 316 314 315 314 315 315 314 314 313 314 313 313 314 313 313 311 309
308 310 316 318 319 318 317 319 316 315 315 314 319 318 324 315 316 319 320 319 321 320 317 314 315 315 313 313 312 313 313 315 312 313 314 314 314 313 314 313 313 311 312 311
313 316 319 318 317 318 316 317 318 317 320 316 317 317 320 317 320 324 322 322 318 322 318 320 313 316 316 315 315 313 312 313 312 311 311 312 312 311 312 312 312 313 314 314
312 312 313 316 317 317 320 318 317 319 321 318 320 319 315 320 316 320 318 322 319 324 320 323 320 315 314 313 317 316 313 313 311 312 313 313 313 313 313 313 312 312 313 313
313 315 317 319 315 317 319 320 319 321 320 321 322 323 318 318 316 317 320 323 321 319 323 321 316 314 315 312 311 313 313 313 313 314 314 314 314 314 314 314 313 312 313 312
314 318 311 316 318 318 317 317 318 318 321 321 320 323 323 318 320 317 322 319 318 324 323 320 314 313 312 310 311 312 311 311 311 311 312 312 312 312 313 314 313 312 313 313
316 317 313 317 314 315 317 316 318 319 318 318 317 316 318 320 319 317 319 322 324 322 319 313 312 310 310 312 311 307 307 307 307 308 308 307 307 308 308 306 306 306 306 306
314 315 317 313 315 313 312 314 316 317 318 315 315 318 322 323 318 320 320 322 319 314 312 312 310 310 310 309 306 306 306 305 305 306 307 307 307 306 304 304 304 304 304 304
316 317 311 312 312 313 312 311 318 317 318 320 319 323 322 315 318 320 318 317 312 309 312 311 310 311 307 304 305 306 306 305 305 306 307 306 305 304 303 302 304 304 304 304

GFSNW_925_thetae_090.txt.gz
Theta_e
308 307 308 309 310 311 314 310 315 316 317 314 310 314 315 312 311 311 316 315 316 320 321 322 319 317 316 314 317 318 315 311 319 321 318 317 317 319 321 325 332 333 336 338
315 306 308 309 311 311 314 311 310 316 315 313 312 313 313 312 311 313 313 316 316 318 319 322 322 317 316 315 315 316 315 314 320 319 318 317 317 316 315 317 326 337 336 332
318 306 308 309 311 313 314 311 311 309 302 302 311 312 312 314 313 315 314 317 315 317 320 321 322 322 319 317 322 322 315 313 319 321 320 317 319 318 319 314 322 328 329 337
318 306 308 309 311 315 314 309 311 310 310 310 308 310 312 314 314 313 314 319 318 316 319 319 322 319 318 318 319 314 314 319 319 320 319 318 320 319 322 331 319 329 328 336
317 306 307 310 311 315 316 314 315 313 313 308 310 307 312 313 313 314 318 318 316 317 320 319 319 318 317 319 315 316 314 321 318 321 321 325 325 321 326 335 336 335 334 336
318 306 307 309 311 314 316 317 316 313 313 307 308 308 313 314 315 314 315 316 315 314 314 316 314 313 312 311 313 312 315 315 318 322 318 327 328 323 330 332 333 333 336 329
319 308 307 309 311 312 315 317 315 313 315 309 313 315 315 315 314 314 313 314 315 314 310 310 308 309 313 311 306 305 313 313 313 319 319 329 323 320 328 331 330 329 327 325
319 312 306 308 311 312 315 318 315 315 316 313 311 314 314 313 311 312 312 313 311 308 310 312 311 312 313 317 310 308 306 311 315 316 318 317 320 317 318 321 328 326 325 323
317 315 306 308 311 312 313 317 319 315 312 313 313 312 313 312 312 311 313 311 309 310 311 314 317 314 322 321 319 313 308 307 315 315 318 319 314 318 319 318 321 325 324 323
315 317 306 308 310 311 313 318 320 318 318 316 314 313 313 310 310 311 310 311 312 308 313 316 311 317 320 317 323 321 311 310 313 317 317 318 316 317 317 323 320 323 324 323
315 317 306 308 310 311 314 319 319 318 313 313 318 315 313 313 310 312 310 311 311 308 316 315 309 312 313 312 316 319 314 311 308 311 315 316 316 317 318 315 315 318 322 321
314 316 306 308 310 311 313 318 318 319 313 313 317 318 318 317 314 309 308 311 311 309 313 313 310 312 312 309 310 312 315 314 315 313 313 311 312 317 316 312 315 317 319 317
314 314 307 307 309 310 311 314 316 318 314 311 315 316 316 316 317 316 313 310 308 309 307 311 310 314 310 314 313 315 313 310 314 315 316 317 316 315 314 314 315 314 314 315
315 312 307 308 309 310 310 311 317 319 314 316 316 320 316 315 318 318 318 312 310 306 304 306 311 313 309 311 312 312 312 311 311 312 311 313 314 315 314 314 313 314 314 314
316 309 308 309 308 308 310 311 315 317 317 318 318 316 315 314 318 317 316 314 310 309 311 310 313 309 311 308 310 311 311 312 313 314 311 313 312 313 313 313 313 313 313 313
316 307 307 307 307 308 316 313 316 316 319 313 320 315 315 314 315 314 312 311 308 308 311 311 310 309 310 312 308 311 309 308 310 314 310 310 315 314 314 312 311 311 310 311
314 306 307 306 307 309 315 316 318 316 317 314 319 320 315 314 313 311 311 312 309 310 310 312 312 312 309 309 308 312 310 310 311 312 313 316 316 316 316 315 315 313 312 310
306 306 306 307 308 311 312 314 315 316 317 315 320 320 316 314 313 314 309 312 310 310 311 310 314 311 309 312 311 311 312 312 314 312 312 311 311 313 314 314 313 314 312 310
307 306 308 310 313 315 319 316 317 317 316 317 318 319 319 312 312 312 313 311 316 311 314 313 313 311 314 315 314 314 313 313 314 312 312 312 314 313 312 313 313 313 311 310
307 309 314 316 318 318 317 318 316 315 314 314 318 316 323 313 314 316 319 318 319 318 315 312 313 312 311 311 311 311 313 312 312 312 313 312 312 312 313 313 312 311 311 310
312 314 318 317 317 317 315 318 318 316 319 315 316 317 320 315 319 319 320 322 318 320 316 320 313 316 314 314 313 312 311 311 310 310 310 310 310 311 311 311 312 312 312 312
312 313 314 316 316 315 319 318 315 318 320 316 318 317 314 318 313 322 320 322 319 323 316 323 318 315 313 313 313 315 311 312 313 311 311 312 312 312 312 312 312 312 313 313
314 316 316 319 315 317 320 318 318 319 318 318 320 322 317 315 313 319 320 323 322 316 322 322 314 312 313 311 311 312 311 312 312 312 313 313 313 314 313 313 313 312 312 312
315 316 311 316 317 317 316 315 316 316 319 319 318 319 319 315 319 317 321 318 318 324 325 318 315 312 311 310 310 311 311 311 310 310 311 311 311 308 308 307 307 308 308 306
314 316 316 317 314 313 315 314 315 317 316 316 317 317 316 317 319 315 317 322 324 322 321 315 311 309 309 310 308 307 308 307 306 307 307 306 306 306 304 304 304 304 304 304
311 313 317 313 314 313 311 312 314 314 314 312 313 317 320 322 316 319 319 319 318 315 312 310 308 308 308 308 305 305 305 305 304 305 306 305 304 304 303 302 303 303 303 302
314 314 310 311 312 312 311 308 312 314 316 318 316 321 321 313 317 319 315 317 313 309 309 308 307 308 308 304 304 304 304 304 305 305 305 304 303 303 302 302 303 303 304 304

GFSNW_925_thetae_093.txt.gz
Theta_e
320 312 307 308 310 311 315 313 323 315 315 321 317 321 319 312 313 314 317 317 320 323 323 324 320 320 318 316 319 321 319 323 326 324 320 320 322 328 330 328 337 342 340 343
320 313 307 308 311 312 315 318 318 315 314 320 318 317 314 315 316 316 318 319 320 320 323 326 324 321 317 318 317 320 320 322 327 325 323 323 327 323 324 330 337 343 334 338
320 312 306 308 311 314 314 317 318 314 310 309 316 315 315 317 315 318 318 321 318 321 324 324 324 323 321 320 323 322 319 321 327 328 326 324 329 330 322 326 329 338 336 342
320 312 306 308 311 314 313 314 317 312 317 315 313 314 315 316 317 316 320 322 320 319 324 322 323 321 321 322 320 319 321 324 324 324 324 325 327 335 336 326 326 332 334 336
319 313 306 308 311 313 316 321 322 317 319 311 314 313 316 315 315 317 321 320 318 321 324 322 322 319 321 319 320 322 321 327 323 326 324 328 325 330 338 337 337 337 338 338
318 316 306 307 311 313 317 316 315 319 313 312 314 315 316 317 317 315 317 318 318 319 317 316 318 315 313 313 318 321 322 322 327 328 325 329 330 327 329 333 336 337 336 337
317 319 306 307 310 312 314 316 317 320 317 315 317 316 317 316 316 315 314 317 318 316 313 313 313 316 318 317 314 313 323 323 322 326 329 329 325 323 327 330 333 333 334 333
316 318 307 307 310 311 314 316 318 321 318 315 315 317 317 315 314 315 314 315 314 313 317 317 320 318 319 321 318 315 318 322 323 328 327 323 323 321 322 325 328 332 332 331
315 317 309 307 309 311 313 316 318 320 319 317 314 316 316 318 317 317 315 313 311 317 320 322 322 324 323 322 320 319 317 321 323 324 324 325 322 321 321 322 327 331 330 332
313 316 311 307 309 311 313 317 318 319 324 321 316 318 318 315 315 319 316 316 316 315 322 325 328 328 324 327 322 322 320 321 322 325 323 321 321 321 321 327 327 326 329 330
312 315 311 307 309 311 313 318 318 319 319 320 319 316 317 316 316 320 316 317 317 318 325 325 327 329 325 324 323 325 321 324 324 322 324 325 320 321 323 323 322 323 329 328
312 314 311 307 309 310 312 318 317 318 319 319 317 317 317 317 317 317 313 319 319 317 323 322 319 324 321 319 325 318 328 323 331 323 324 320 320 322 320 320 322 323 325 327
312 314 310 307 308 309 310 313 316 317 320 317 319 320 315 315 315 315 321 317 315 316 315 320 319 322 319 322 321 321 319 317 326 325 324 323 322 320 318 319 320 321 320 324
313 315 309 308 308 309 309 311 317 318 319 321 321 319 317 314 315 316 316 315 311 312 313 318 321 322 316 321 320 322 320 318 322 323 319 320 321 320 320 318 319 320 319 321
314 316 307 308 308 307 309 311 315 317 320 320 323 318 315 313 316 316 315 316 318 318 319 319 319 317 319 316 317 322 318 322 324 326 322 324 323 321 319 319 320 320 321 320
315 315 307 307 306 308 316 318 315 317 319 319 323 318 317 314 315 316 316 316 317 317 320 320 317 315 319 323 326 322 318 317 319 321 318 320 319 319 318 318 318 317 318 318
315 312 306 306 306 308 316 319 316 315 317 319 320 325 318 315 315 315 318 316 316 319 319 320 321 320 318 321 328 321 318 317 317 316 318 320 320 321 319 319 318 315 316 316
314 306 306 306 307 310 312 313 314 315 317 320 326 326 320 315 319 321 316 320 318 317 319 318 322 319 319 327 322 319 318 317 318 318 318 319 319 318 319 318 317 318 318 317
310 305 307 309 312 317 318 316 316 316 317 320 324 328 326 316 318 319 320 318 325 318 322 322 322 323 324 324 323 321 320 319 319 318 318 316 318 318 317 317 317 317 317 316
307 308 313 320 318 317 316 318 320 320 318 319 324 321 328 319 320 322 325 323 325 329 324 320 324 326 321 320 320 319 319 318 317 319 319 318 318 317 317 317 317 316 316 316
310 315 321 317 316 317 319 321 321 319 321 320 320 323 325 320 326 327 325 327 324 330 327 327 327 322 323 319 320 319 318 317 317 317 318 317 317 317 317 317 316 316 316 316
313 314 314 317 319 319 323 322 319 322 321 320 322 322 322 324 321 329 325 327 324 328 323 327 324 324 320 318 318 319 317 317 316 315 315 316 316 316 317 316 316 316 316 315
315 316 319 320 319 321 323 322 322 323 321 322 323 325 325 322 323 325 326 327 328 323 326 327 323 321 318 317 317 318 317 317 316 315 316 316 316 316 316 316 315 315 314 313
317 318 320 321 321 321 322 320 322 321 324 325 326 325 327 323 326 325 327 324 324 327 327 326 322 321 319 317 317 317 317 317 317 316 315 314 313 311 309 308 308 308 308 307
317 320 319 320 319 318 319 318 320 321 322 324 325 324 324 325 324 320 323 325 326 325 325 323 321 319 318 318 317 317 316 315 313 311 311 311 310 309 307 306 306 305 305 306
313 316 321 319 318 319 316 318 320 321 322 320 323 325 327 326 324 325 326 325 325 323 322 322 318 318 317 316 315 314 313 311 310 309 309 308 308 308 306 305 305 305 306 306
313 316 316 316 317 317 316 315 316 318 322 327 325 325 325 321 325 325 323 325 323 321 318 318 318 318 317 314 312 311 309 308 309 308 308 307 306 305 305 306 305 305 305 305

GFSNW_925_thetae_096.txt.gz
Theta_e
320 319 307 307 309 313 319 321 324 319 317 325 322 322 319 312 316 318 320 321 323 325 326 323 324 324 324 320 323 325 326 326 329 325 325 326 325 326 327 328 336 334 337 346
319 319 306 307 310 314 319 324 324 319 318 323 322 321 317 318 317 317 319 321 323 325 326 327 324 323 322 322 322 325 325 326 329 328 327 327 326 326 328 328 328 336 336 338
318 319 307 307 311 314 317 324 324 321 322 320 319 320 319 318 318 318 319 322 322 324 325 326 324 323 321 322 323 323 322 326 329 329 326 327 330 329 327 328 329 330 334 340
317 319 307 307 311 314 317 322 322 319 319 319 319 319 318 318 317 318 318 323 322 323 325 324 324 323 323 322 324 324 325 329 328 328 328 328 329 329 327 328 328 330 331 333
317 318 308 307 311 314 322 326 324 322 321 320 319 315 319 317 316 318 318 321 321 322 325 325 323 323 323 323 323 325 326 328 328 329 328 328 332 333 331 329 330 329 333 334
317 316 311 307 310 315 322 323 323 326 315 319 319 319 318 317 317 318 321 321 321 321 321 320 321 320 319 320 324 326 326 328 328 330 328 329 330 330 331 334 334 334 331 341
318 316 315 307 309 312 318 320 324 326 320 319 319 318 317 317 318 317 314 321 321 319 318 318 318 320 321 321 321 323 326 331 329 328 329 332 329 327 329 331 332 333 336 338
317 315 316 307 308 311 317 319 323 327 320 319 319 318 317 319 319 317 314 319 320 319 319 321 322 322 322 322 322 321 326 327 328 329 330 329 327 326 327 328 331 331 336 337
316 314 315 307 308 311 315 319 321 326 323 320 319 319 319 320 321 319 317 318 318 321 322 322 325 326 325 324 323 322 322 325 325 324 328 329 328 324 323 325 330 330 334 337
314 313 314 309 307 310 313 320 319 324 325 320 320 320 320 320 320 321 320 320 320 321 320 323 326 328 327 326 324 325 324 324 325 325 324 324 325 323 323 329 331 330 333 335
313 313 314 310 307 310 312 321 320 323 325 324 321 319 322 321 321 321 322 321 321 321 322 322 327 327 327 326 326 326 324 325 325 324 325 327 323 324 326 328 326 327 332 333
311 312 314 311 307 310 311 321 319 319 324 324 321 321 320 321 321 321 321 324 321 321 321 322 324 324 324 325 327 325 330 323 328 323 326 326 326 325 324 324 325 326 329 330
310 312 314 310 307 309 310 317 319 321 323 322 321 322 319 319 319 319 322 322 322 322 324 322 322 323 321 321 320 321 325 323 326 324 323 324 325 324 323 323 323 323 325 328
310 312 314 308 308 309 309 315 317 322 321 323 322 321 321 318 318 319 320 321 319 321 322 321 321 322 322 322 324 322 321 323 323 324 323 325 325 324 322 322 321 321 323 326
311 314 315 307 308 308 309 313 316 319 324 321 323 322 320 317 320 320 319 320 321 321 321 321 321 322 321 322 322 322 323 321 324 322 321 321 321 322 323 322 322 321 322 323
312 314 313 307 307 307 316 318 316 318 321 323 321 322 321 319 320 320 321 321 321 321 321 321 321 322 323 323 326 324 322 321 322 323 322 322 323 322 322 322 322 321 321 322
313 315 310 306 306 309 317 320 319 317 320 324 322 324 320 319 321 321 322 321 322 322 322 322 323 324 321 324 329 323 321 322 323 322 322 323 322 322 322 321 321 318 320 320
314 313 306 306 306 308 312 316 316 316 321 322 326 327 322 319 322 323 322 323 323 323 324 323 324 325 324 329 326 325 323 322 322 322 322 322 322 322 322 320 319 319 318 319
313 306 306 310 313 315 317 315 315 317 321 322 324 329 327 320 323 323 323 323 325 324 325 325 325 327 334 327 327 326 324 323 323 322 321 321 322 322 321 319 318 317 317 317
310 308 313 316 318 318 317 320 323 323 322 322 325 326 327 322 323 324 325 325 326 329 327 325 328 332 328 327 326 325 324 323 322 323 323 321 321 320 319 318 317 316 317 317
310 314 321 320 317 320 322 322 321 320 321 322 320 325 327 322 325 325 326 327 327 329 330 329 332 330 328 325 325 325 324 322 321 321 320 321 320 319 318 318 317 316 316 317
314 316 317 319 322 322 323 321 321 321 320 321 322 323 326 325 326 328 328 328 328 327 326 328 331 327 327 324 323 323 323 322 321 319 320 319 318 317 317 317 317 317 317 317
315 319 321 322 320 322 320 322 321 321 321 323 323 325 328 327 327 327 329 327 327 326 328 330 328 327 325 323 322 323 321 320 319 319 319 318 319 319 318 319 318 317 317 316
319 319 318 322 322 322 321 319 319 321 324 325 323 326 325 327 329 327 325 327 327 329 330 329 325 328 325 323 322 322 322 321 321 320 320 320 319 317 315 313 313 312 312 311
317 319 321 321 320 320 320 320 323 325 326 328 326 326 325 326 328 327 328 330 328 327 327 325 326 326 324 323 322 322 322 321 320 318 317 315 314 313 312 310 309 309 309 309
313 318 322 321 320 320 321 321 323 325 325 328 326 328 326 326 328 329 329 328 328 325 324 324 326 325 324 323 321 320 319 318 316 315 313 312 310 310 310 309 308 308 309 309
313 315 315 319 321 321 317 318 320 323 328 329 327 327 327 327 329 328 327 327 323 323 324 324 324 325 324 322 319 318 316 314 313 311 310 310 310 309 309 309 308 308 308 308

GFSNW_925_thetae_099.txt.gz
Theta_e
317 318 316 307 308 313 321 324 324 323 322 326 325 324 320 313 318 318 319 321 323 326 329 325 324 328 327 324 326 327 327 328 329 327 326 325 327 326 329 333 339 336 337 356
318 317 316 307 309 312 320 327 327 323 322 327 324 323 319 318 319 318 318 322 322 325 326 328 326 327 325 324 324 328 327 327 330 330 326 325 325 327 326 328 329 333 335 348
317 317 317 307 309 312 317 327 325 323 323 325 322 321 321 320 319 318 317 321 322 323 325 325 327 325 324 324 324 331 327 327 328 332 330 328 326 327 327 327 329 328 334 352
317 317 318 307 309 312 317 326 325 323 323 321 320 320 320 318 319 319 319 322 322 323 326 326 326 325 324 324 327 327 326 329 329 329 331 330 327 325 327 328 330 331 330 338
317 317 318 307 309 313 322 329 326 322 323 321 320 317 322 319 317 318 320 320 322 322 325 328 328 325 326 327 325 327 329 332 332 330 330 328 328 328 328 327 327 328 330 340
315 317 318 308 308 315 325 325 325 328 319 321 321 322 320 319 316 318 320 321 322 322 324 323 324 323 324 326 325 327 329 334 335 335 329 330 331 331 330 329 328 329 333 342
314 316 316 312 307 310 319 324 326 327 325 321 321 319 318 317 319 318 316 320 321 322 321 322 322 321 321 323 322 325 329 334 333 336 335 332 332 330 331 333 334 333 337 340
313 315 315 316 307 309 315 322 326 329 326 321 321 319 318 319 320 319 315 318 322 320 320 323 324 324 325 324 323 324 326 328 335 335 336 333 332 331 331 331 333 333 337 338
313 314 316 316 307 309 312 321 323 327 328 322 320 320 320 322 323 320 318 319 320 320 322 322 326 331 330 328 324 324 324 327 331 331 335 336 333 327 327 327 334 332 334 338
312 312 315 316 308 309 311 321 324 326 327 323 321 320 321 321 322 323 321 320 319 320 323 324 325 330 328 329 326 326 326 327 327 328 327 334 330 326 325 328 334 333 333 335
313 311 313 315 309 308 311 321 324 326 326 325 322 322 321 320 322 324 324 322 322 322 324 324 326 327 327 327 327 328 328 329 328 328 333 331 326 324 327 332 329 331 333 335
312 311 312 315 308 308 310 319 323 322 327 327 323 321 321 321 323 323 323 325 324 324 323 323 326 325 326 324 326 326 329 326 330 327 334 329 327 330 328 328 329 329 330 332
312 311 312 315 308 308 310 318 322 321 325 324 323 322 321 320 320 318 323 322 324 322 324 325 324 325 323 326 326 326 324 327 327 327 326 325 324 325 325 325 325 325 327 329
311 311 313 314 308 308 309 317 319 322 325 324 323 322 322 320 319 319 320 324 322 323 321 323 323 323 323 324 325 323 323 327 324 326 326 326 325 324 324 323 322 322 324 327
311 311 315 313 307 308 309 314 317 321 325 325 324 323 321 320 320 320 320 321 322 321 322 322 323 323 324 322 323 324 324 323 323 324 324 326 324 324 323 323 322 322 322 324
310 312 315 310 307 307 314 319 317 319 321 327 325 324 323 320 321 321 321 322 323 323 323 323 323 324 321 324 326 326 325 323 323 324 324 324 324 324 324 322 323 323 322 323
311 314 315 307 307 308 317 321 321 320 322 323 321 326 324 322 322 322 322 321 323 324 324 324 324 325 321 324 328 327 324 323 324 324 325 324 324 324 323 322 322 321 321 321
312 314 311 307 306 307 311 315 317 319 321 321 322 326 325 322 323 323 324 324 324 325 326 326 325 328 326 328 328 327 326 325 324 325 324 324 324 323 324 322 322 322 321 321
314 311 306 309 311 315 316 318 318 318 323 323 322 326 326 323 323 323 325 325 326 327 326 326 328 328 335 329 329 329 327 326 325 324 323 323 324 324 323 322 321 321 320 319
311 308 313 316 316 319 314 320 325 321 319 323 326 323 329 323 323 325 326 325 325 329 328 329 329 331 329 330 329 329 327 325 325 325 325 323 324 324 323 321 320 318 318 318
310 314 319 321 318 318 321 320 321 322 322 320 320 323 327 324 326 325 325 327 326 328 329 329 334 337 330 330 329 329 327 325 324 324 324 323 323 322 321 320 318 318 318 318
314 318 320 321 322 323 321 321 320 321 320 321 320 321 327 326 326 329 328 328 327 328 328 328 334 331 330 328 326 327 327 326 325 323 323 322 322 320 320 319 319 318 318 317
316 319 322 324 322 325 321 323 322 321 320 322 321 319 326 328 327 327 328 328 327 327 328 331 332 332 330 328 326 325 324 323 323 322 322 320 319 319 319 319 319 317 317 317
320 320 318 321 323 323 322 322 322 320 321 323 323 324 325 325 327 325 326 325 326 328 330 331 331 333 329 327 325 325 324 323 322 321 320 321 321 321 320 319 317 316 315 314
318 319 323 323 323 322 322 321 322 323 323 323 323 326 326 326 325 324 326 328 328 326 327 327 333 331 329 327 325 324 323 323 322 321 321 321 320 319 317 315 313 312 311 311
313 318 323 322 322 321 321 322 322 325 328 329 327 326 325 325 324 325 325 326 328 327 325 329 332 330 328 327 325 323 321 321 321 320 320 318 317 316 314 312 310 310 310 311
316 316 316 319 321 321 322 322 325 327 332 331 329 327 326 324 326 328 325 326 326 325 325 327 330 330 328 326 324 322 320 320 319 318 317 315 314 312 311 311 310 310 310 310

GFSNW_925_thetae_102.txt.gz
Theta_e
318 317 319 313 307 310 322 324 325 325 322 324 326 327 325 313 318 319 319 320 321 323 327 327 329 330 328 326 327 329 329 329 331 330 328 327 326 327 329 333 338 338 340 351
318 319 318 314 307 310 316 327 327 326 322 325 328 326 321 318 319 318 318 319 323 322 327 327 329 329 327 326 325 328 328 330 330 331 330 327 326 327 327 327 330 338 337 357
317 319 317 317 307 309 315 326 330 326 324 324 327 326 322 320 321 319 318 318 322 322 325 327 328 332 326 325 324 335 326 328 330 330 333 332 327 326 326 326 328 328 330 349
317 317 317 319 307 309 316 325 328 326 323 323 323 321 322 320 319 320 319 320 322 323 327 329 330 327 327 325 325 325 326 329 330 328 329 331 331 326 326 328 327 329 333 346
315 316 318 318 308 309 320 327 330 329 324 323 321 317 319 320 319 319 320 320 321 322 322 330 330 328 328 329 328 327 327 330 333 334 331 332 331 331 326 326 327 328 336 351
313 315 318 318 309 311 326 326 327 329 324 322 321 322 322 320 319 319 318 320 321 323 325 324 325 324 324 328 328 328 330 334 337 340 337 334 332 333 332 327 328 329 349 349
312 313 316 316 311 308 316 324 326 331 328 323 322 321 320 318 319 320 317 319 321 323 322 321 321 321 323 323 324 325 329 335 334 341 337 338 336 332 332 336 330 342 342 344
313 312 315 316 315 308 313 317 325 329 334 328 322 321 319 319 320 318 317 317 321 322 319 321 325 324 326 325 323 325 327 333 338 341 338 336 334 334 332 336 338 336 339 340
313 313 313 316 316 308 310 318 323 325 331 328 322 320 320 321 323 323 319 319 319 320 321 323 328 332 334 331 326 324 329 333 337 337 341 339 337 332 331 332 342 337 336 339
312 313 312 316 315 309 309 317 323 323 330 328 322 321 322 321 323 325 323 320 320 320 324 325 331 333 330 330 333 326 331 332 332 332 338 335 332 331 329 331 338 333 334 337
312 313 312 314 315 309 309 317 323 323 330 328 324 321 322 322 323 325 324 322 323 322 325 325 328 328 331 330 330 331 332 331 331 334 338 338 329 328 328 337 331 333 335 337
313 313 312 313 315 309 309 315 323 322 325 329 326 322 321 321 323 324 325 326 328 324 325 325 325 326 325 327 327 326 329 331 333 333 339 333 330 334 332 331 331 330 332 333
313 313 311 312 314 309 308 314 319 323 321 321 322 324 322 322 320 320 321 324 323 325 323 327 324 326 325 326 326 327 326 327 328 329 333 329 326 326 326 327 327 326 328 330
313 312 311 313 314 308 308 314 317 320 324 325 322 319 321 320 320 320 319 323 325 324 323 322 324 324 324 324 328 324 326 328 324 326 328 326 325 324 325 324 323 323 325 327
312 312 311 314 313 308 308 311 315 319 324 329 327 322 322 321 320 320 320 321 323 322 323 323 324 324 326 325 323 324 323 324 324 324 328 332 326 325 324 324 323 322 323 325
311 311 312 315 310 308 312 318 316 317 320 326 329 325 324 321 320 321 321 322 323 323 323 324 324 326 326 323 326 327 324 324 324 325 325 325 324 325 325 323 323 323 323 324
311 312 314 314 307 308 315 319 320 319 322 325 327 327 325 322 321 322 322 322 323 323 324 324 325 327 322 321 327 327 326 325 325 324 326 326 325 326 324 323 323 322 322 323
312 313 315 309 307 307 310 315 317 318 321 320 319 325 328 324 322 323 323 324 324 325 326 326 326 329 327 328 327 327 327 325 325 325 325 325 325 324 325 323 323 323 322 322
312 314 310 309 309 314 315 316 319 317 322 323 319 321 328 324 324 323 324 324 326 325 326 326 326 327 339 331 330 329 329 328 327 326 325 324 325 325 325 324 323 322 322 321
313 310 312 317 314 318 315 320 324 320 319 324 327 322 332 328 323 323 327 325 326 330 330 327 330 332 334 330 330 330 329 328 326 327 326 325 325 326 326 324 324 321 320 320
310 314 319 322 318 318 319 319 323 321 317 317 322 324 329 328 325 327 326 327 326 329 332 330 332 333 334 331 330 332 329 328 326 325 325 325 328 325 325 323 320 319 319 319
313 314 319 320 317 321 321 322 319 322 321 320 319 319 328 326 329 327 327 331 328 330 327 329 341 330 333 332 329 329 329 327 326 324 326 324 324 322 321 320 320 319 319 319
315 318 322 322 321 325 325 324 323 321 321 320 320 320 328 329 327 330 330 331 327 325 331 331 334 337 333 330 328 327 327 326 325 325 323 323 322 320 320 320 320 319 319 318
319 320 319 323 324 324 323 323 323 322 321 323 321 321 329 327 326 326 325 324 325 329 330 329 328 340 334 330 328 327 326 325 325 324 322 322 321 322 322 321 320 318 317 317
319 319 322 323 322 323 324 323 323 323 322 323 322 320 322 331 327 325 325 325 327 326 326 327 338 339 335 330 327 326 325 324 324 323 322 323 322 321 319 318 317 315 314 312
314 317 321 323 324 324 324 324 323 323 325 324 324 327 327 328 328 324 324 324 325 325 330 335 337 338 333 332 327 325 325 323 322 322 322 321 320 319 318 315 313 312 312 312
315 319 318 319 323 323 322 324 325 326 330 330 330 327 328 328 328 324 323 324 324 327 331 332 337 337 335 330 327 325 323 322 322 320 319 320 318 317 316 313 312 312 312 311

GFSNW_925_thetae_105.txt.gz
Theta_e
317 317 318 318 312 308 318 324 326 324 323 323 323 324 326 324 319 319 318 318 318 321 327 326 331 330 330 327 325 328 326 326 327 328 328 326 325 324 324 327 334 338 338 361
315 316 317 316 314 308 312 324 326 326 325 323 322 327 326 321 318 319 317 317 317 321 327 330 331 329 327 327 326 326 324 327 328 328 327 328 324 324 323 322 322 328 337 355
313 315 316 317 316 308 312 324 329 328 326 325 322 326 327 324 320 320 319 319 318 320 326 326 331 329 327 326 325 330 324 324 326 328 329 328 332 326 324 323 322 325 326 353
313 313 315 317 317 308 313 324 327 328 328 323 321 324 323 322 319 320 318 320 321 323 326 329 329 326 326 327 327 325 323 325 326 328 331 328 329 330 326 323 324 328 348 352
314 313 314 316 317 308 315 324 328 329 330 328 323 319 319 321 320 319 319 320 321 323 327 329 329 329 329 330 327 327 324 327 335 335 336 336 335 331 332 329 324 344 355 353
314 313 313 315 316 310 321 326 327 330 330 329 323 321 323 322 320 318 319 319 321 324 326 325 324 325 326 328 329 327 329 333 334 338 334 336 338 334 334 338 338 337 347 347
313 314 313 315 315 314 311 317 321 331 333 332 332 325 322 321 320 321 319 317 320 323 321 318 319 318 321 323 324 321 329 333 333 337 336 340 336 331 332 338 338 336 341 340
312 313 314 313 315 315 311 311 318 328 333 333 333 328 321 321 319 318 317 320 320 318 318 320 326 328 328 329 328 323 326 330 334 336 336 337 337 335 333 333 337 337 340 346
311 312 313 313 313 314 311 310 315 323 330 332 331 330 322 320 323 323 319 319 318 319 319 322 331 332 329 332 330 328 333 334 334 332 337 341 338 332 331 329 341 334 339 343
311 311 312 313 313 314 313 309 313 322 328 327 329 330 323 321 323 326 323 320 319 319 323 326 334 334 329 331 332 334 331 330 333 335 338 336 333 332 330 340 340 334 337 333
312 312 312 313 312 314 312 311 316 321 328 327 329 326 326 323 323 327 324 324 323 322 325 328 334 330 328 328 331 335 334 333 335 329 331 336 330 330 329 333 332 334 341 339
313 313 312 313 312 314 311 313 318 322 327 326 321 320 321 321 323 324 327 329 329 327 327 330 330 329 326 327 332 327 332 332 335 333 332 325 328 332 332 331 329 329 330 338
313 313 313 312 312 314 311 311 311 319 326 320 318 319 324 322 321 319 322 325 327 328 325 328 329 328 327 330 328 330 330 329 332 333 331 332 331 326 327 326 324 325 325 328
313 313 313 311 312 314 310 311 315 315 323 328 321 318 320 322 321 319 319 321 326 325 325 325 324 327 325 326 329 327 329 327 325 333 332 327 326 326 325 323 323 323 324 328
312 313 312 311 313 314 308 308 310 312 321 328 326 325 325 320 320 320 319 320 324 326 324 324 325 329 328 326 322 325 324 326 324 330 330 328 327 326 326 323 322 323 324 326
312 311 311 312 314 309 310 319 315 311 316 327 330 327 324 321 321 320 322 322 324 325 325 325 328 327 326 323 330 326 325 325 324 330 327 326 327 327 324 324 324 323 324 324
311 311 312 314 313 308 313 318 318 317 317 327 329 329 326 322 322 322 322 322 325 325 325 326 327 326 324 322 326 328 327 327 326 327 326 326 326 326 325 325 324 323 324 323
311 311 314 314 308 307 309 313 315 315 322 324 326 327 327 324 324 324 323 324 324 328 327 328 329 329 329 329 327 328 329 327 326 325 325 326 324 325 324 324 324 322 322 323
311 312 313 309 307 313 314 313 317 317 322 326 323 325 332 325 325 324 325 326 328 326 327 326 330 330 335 333 330 332 330 328 327 326 326 325 326 327 325 324 323 323 323 322
313 312 311 316 313 315 317 319 325 324 322 326 329 325 332 329 328 325 327 326 328 331 330 331 331 335 334 332 330 331 332 328 327 327 327 326 327 326 325 324 322 321 321 320
310 313 321 320 317 317 321 322 325 324 321 320 323 325 329 327 329 329 328 331 329 333 333 333 335 334 331 332 334 331 330 329 327 328 326 328 325 324 322 321 320 320 321 321
312 313 315 320 321 322 321 324 322 325 321 321 317 321 329 329 327 331 330 332 332 332 329 333 336 334 336 333 332 332 332 329 328 326 326 326 324 322 320 320 320 320 319 318
313 317 320 322 322 320 323 324 325 324 325 323 319 320 326 328 328 330 330 331 332 326 333 334 330 338 336 333 331 330 329 328 327 327 325 324 323 320 320 321 320 319 318 317
318 320 318 321 322 323 324 324 324 323 326 323 323 323 331 328 329 330 330 330 329 332 333 333 332 337 334 332 330 329 329 327 327 325 324 324 323 322 321 320 319 319 317 315
318 319 320 322 321 322 324 326 324 324 323 325 325 325 331 329 331 328 325 326 327 329 330 328 336 335 333 331 330 329 328 327 324 323 324 324 322 321 320 317 315 314 313 312
315 317 321 321 323 324 324 325 325 325 327 325 326 328 329 328 329 328 328 325 327 327 337 337 334 333 332 331 329 327 326 324 323 323 323 323 321 319 317 315 314 312 312 313
315 317 317 319 322 322 322 324 326 326 328 329 330 329 328 327 328 328 327 326 325 335 337 335 334 334 333 331 330 326 324 324 324 324 322 320 318 316 316 315 313 312 312 312

GFSNW_925_thetae_108.txt.gz
Theta_e
312 314 315 316 318 310 310 316 321 321 322 317 314 317 320 322 322 314 315 315 314 318 324 326 329 329 329 326 325 323 323 320 325 325 323 322 321 321 322 324 328 337 343 353
314 313 314 315 316 310 310 314 318 322 322 317 315 315 320 321 323 317 315 316 315 322 325 326 329 328 327 325 326 323 321 320 325 326 324 324 325 324 321 317 319 330 339 350
314 314 312 314 315 312 310 315 320 319 317 315 317 317 318 323 318 318 316 317 317 321 323 324 329 327 326 325 326 337 322 318 325 326 325 324 327 327 326 318 319 320 326 343
313 314 313 312 316 314 310 315 318 321 326 323 324 319 319 321 319 317 315 318 320 319 326 326 327 326 325 326 328 326 321 322 323 325 334 334 333 334 334 331 324 323 327 345
313 314 313 312 315 312 312 316 320 323 325 325 324 319 319 318 316 316 315 317 324 323 324 323 322 326 326 326 322 325 321 326 331 335 332 332 335 334 339 340 339 353 352 354
312 313 313 313 313 313 314 320 321 323 325 327 327 318 318 319 315 317 317 318 318 322 325 322 319 320 321 324 325 322 328 328 330 335 331 334 338 335 337 339 338 340 350 347
312 313 313 313 313 314 312 311 316 322 329 330 331 331 326 318 317 318 315 314 317 320 316 316 315 319 320 323 321 316 328 326 326 331 329 339 333 332 331 336 336 341 345 343
311 311 312 312 313 313 314 312 310 320 327 330 330 330 326 316 316 315 315 318 316 313 313 314 321 324 321 321 325 324 322 323 328 329 331 333 335 332 334 332 334 338 345 345
311 311 311 312 313 312 313 315 310 313 326 325 327 328 322 316 317 319 317 316 314 313 312 318 326 326 327 327 327 323 322 323 326 327 333 335 332 332 331 331 336 335 339 339
311 311 311 311 313 312 313 314 314 312 324 323 326 328 327 321 319 318 317 317 316 313 315 324 326 326 327 325 329 329 325 325 327 330 332 331 329 329 330 338 334 335 335 335
311 312 312 312 312 312 313 315 313 314 322 323 324 323 322 320 319 319 317 319 317 315 320 324 324 326 324 324 325 331 332 327 331 324 328 329 327 329 331 330 332 335 334 334
311 312 312 312 312 312 313 310 314 313 319 321 323 322 319 316 317 319 318 319 321 319 321 321 324 325 323 321 326 323 329 328 332 331 327 322 324 328 328 327 336 336 331 338
311 312 313 313 312 312 313 311 309 316 321 321 318 315 319 318 318 319 315 315 320 319 315 320 321 321 320 324 322 327 326 323 327 325 326 329 328 324 325 324 322 323 330 333
311 312 313 313 311 311 313 312 313 311 315 322 322 323 321 320 322 321 319 318 320 317 315 316 315 320 316 319 321 323 321 320 323 326 326 326 324 322 320 321 322 324 324 328
311 311 312 312 311 312 313 311 309 309 316 321 320 320 321 320 321 320 318 319 316 317 315 315 316 319 319 316 314 318 319 318 322 326 323 320 322 321 320 320 320 322 322 323
312 312 311 311 312 314 308 311 315 311 312 318 325 322 323 321 321 318 316 315 315 315 316 316 318 319 316 316 320 318 317 319 319 326 323 320 322 322 321 320 321 321 319 320
312 311 311 311 313 311 310 314 315 314 313 320 324 324 321 320 317 316 316 316 316 315 316 319 320 319 314 315 319 319 322 321 322 321 320 323 322 321 320 322 322 322 322 321
312 311 312 313 313 308 308 313 314 311 315 319 321 320 324 321 317 318 315 317 315 316 318 318 322 321 320 321 318 322 322 321 321 321 320 320 320 319 320 321 320 319 319 320
312 312 313 310 307 309 312 312 315 316 320 318 318 320 327 322 320 317 318 316 318 316 319 319 321 321 324 322 321 330 321 321 321 320 320 320 320 320 320 320 319 318 319 318
312 313 310 309 313 311 315 319 319 318 315 318 323 321 324 325 323 319 320 318 320 324 322 320 320 320 322 323 322 326 323 321 320 322 322 322 322 320 319 318 319 318 318 318
311 311 312 318 316 317 315 317 320 320 318 314 319 319 322 322 325 324 323 325 320 324 323 324 325 326 325 325 323 323 323 321 322 319 319 319 320 319 318 317 318 319 318 317
312 311 313 317 319 318 317 319 318 321 320 316 317 319 322 322 321 323 324 326 326 328 321 327 325 325 323 325 327 325 322 322 322 323 323 321 318 318 317 318 319 318 318 317
312 315 319 319 317 315 320 321 320 320 321 317 316 322 319 321 321 323 323 327 327 326 326 327 321 321 326 324 325 326 324 324 323 323 322 321 319 318 318 318 319 317 316 315
316 319 319 317 318 318 319 321 321 318 320 319 313 323 322 322 321 323 326 324 325 326 327 327 323 328 326 324 323 324 324 324 323 321 320 319 319 318 318 317 316 315 314 313
317 318 319 320 317 317 320 321 323 322 321 320 319 324 324 325 325 326 327 329 330 325 327 323 322 327 324 323 323 322 322 320 320 321 319 319 318 317 317 316 315 313 312 312
314 316 320 318 319 320 321 321 323 322 323 321 322 322 326 326 326 327 326 323 324 322 324 323 326 325 323 322 322 320 320 319 319 319 319 318 316 314 313 313 312 312 312 312
316 315 314 316 317 319 318 321 322 322 325 325 326 324 324 321 325 326 324 322 318 330 330 325 325 326 323 321 320 320 320 320 319 319 319 318 316 314 312 310 312 312 312 312

GFSNW_925_thetae_111.txt.gz
Theta_e
311 314 313 312 315 318 308 312 316 317 319 317 310 317 317 319 322 315 314 312 314 320 324 327 328 327 327 325 324 323 321 318 323 323 322 321 321 324 324 328 328 339 342 345
310 313 313 312 314 314 311 308 314 319 316 320 316 313 318 320 320 318 315 316 315 322 324 325 327 326 325 324 325 324 321 319 323 325 325 324 324 326 320 315 317 331 337 338
310 313 313 312 314 314 311 312 318 316 313 312 316 317 318 320 320 319 314 315 315 321 323 323 325 326 325 323 325 337 323 317 323 326 327 325 332 333 331 315 317 318 326 326
310 312 312 313 313 314 311 311 314 318 324 323 325 322 323 326 323 315 314 320 321 319 325 325 324 325 322 323 325 324 322 322 321 322 332 332 335 338 339 335 336 319 321 322
311 312 311 312 313 314 311 309 319 321 323 323 326 321 322 323 322 314 315 321 323 320 322 319 319 323 323 324 321 321 321 328 329 332 331 333 334 334 338 338 341 339 347 349
310 311 311 311 313 314 311 314 316 320 322 325 328 326 324 322 315 316 314 317 321 322 321 320 317 317 317 322 324 321 326 327 328 332 329 330 332 333 335 337 341 342 345 345
310 311 311 312 312 313 313 310 311 320 326 327 329 330 329 319 316 316 316 315 318 319 314 313 315 317 320 319 321 316 324 324 326 328 328 334 329 331 333 333 336 342 346 342
310 311 311 311 312 312 313 313 310 316 325 326 327 328 327 315 315 315 317 317 315 311 312 314 319 319 320 320 322 322 319 322 326 328 329 330 335 333 331 331 332 338 344 342
310 310 311 311 312 312 312 313 314 310 321 323 326 327 326 316 315 317 316 315 310 310 310 321 323 322 326 325 325 321 321 318 324 326 330 335 331 330 330 329 334 337 339 345
310 311 311 311 312 312 311 313 311 310 318 320 324 327 325 322 317 316 315 316 315 312 315 323 322 324 326 324 327 327 323 323 326 328 329 327 325 328 327 334 331 335 337 340
310 310 312 311 311 312 311 313 313 312 314 317 322 322 322 319 316 316 314 317 315 312 319 322 322 323 323 322 322 329 328 326 326 321 326 327 324 327 329 327 334 333 333 335
310 310 311 312 312 312 311 312 311 311 309 314 321 322 322 322 319 316 315 318 317 316 318 319 320 322 321 318 324 323 330 325 327 326 325 320 321 326 325 328 333 333 335 331
310 310 312 313 313 312 311 313 313 311 314 319 317 321 314 317 320 317 316 313 317 316 313 316 318 322 318 322 322 323 322 322 326 324 325 327 325 324 324 327 329 330 333 330
311 311 312 313 313 312 311 313 312 311 310 319 318 321 321 319 321 318 315 318 316 313 311 313 312 318 313 317 319 322 322 321 324 323 325 325 325 321 321 323 325 329 331 333
312 311 311 311 311 311 311 312 313 312 311 317 317 317 315 317 318 320 319 318 315 313 313 313 314 315 317 312 313 318 317 316 323 323 321 320 321 319 320 323 323 324 326 328
312 311 311 310 310 312 312 308 313 310 310 314 321 319 320 322 320 315 314 312 313 312 314 314 314 315 313 315 315 314 314 314 316 321 318 318 319 318 319 321 320 321 326 329
313 312 311 310 311 312 308 311 311 309 310 315 321 321 319 320 314 314 313 313 314 313 314 315 317 316 311 313 320 319 317 318 320 319 320 322 321 319 319 321 320 321 323 329
312 312 311 312 313 312 310 313 312 311 309 316 321 319 321 319 316 317 312 314 312 314 315 317 319 318 315 317 313 315 320 321 319 319 319 318 316 317 319 319 320 320 322 324
311 311 312 312 309 306 310 311 311 310 316 316 314 316 325 320 317 315 316 313 316 314 318 316 318 319 323 320 317 323 320 320 320 319 318 317 318 318 317 317 319 319 318 317
311 312 309 307 310 311 315 319 317 315 312 315 319 319 322 323 321 320 319 316 318 322 319 316 320 319 317 317 317 321 318 317 317 319 320 319 319 318 317 317 318 318 316 315
312 309 310 314 317 315 314 317 317 318 318 312 318 318 319 319 326 324 321 320 318 322 320 321 321 320 320 322 319 320 318 317 317 319 317 318 318 316 316 316 318 318 316 316
311 311 312 315 316 314 316 317 317 319 318 314 316 317 316 321 321 326 325 326 325 326 321 325 322 322 320 321 322 322 319 318 320 319 318 319 318 317 316 316 317 317 316 315
311 314 318 315 314 313 317 319 318 317 318 315 317 321 319 319 319 321 324 327 325 321 324 325 320 317 320 320 322 323 320 320 321 321 320 319 316 317 317 316 316 316 314 314
315 318 316 316 316 316 316 317 317 316 317 318 316 320 319 318 320 321 325 322 323 326 324 324 321 318 319 320 322 324 322 320 320 320 318 316 316 316 317 317 316 314 313 313
317 318 318 318 314 314 316 317 319 319 319 317 317 322 321 322 322 322 323 327 327 325 325 323 317 317 321 321 321 321 320 320 318 317 316 316 316 316 314 314 314 313 312 312
314 316 318 316 316 317 317 320 322 320 320 319 321 323 323 323 323 327 325 326 327 322 319 317 316 319 321 320 320 319 318 318 317 317 317 316 316 315 313 313 313 312 312 311
316 316 312 314 315 315 315 317 321 319 321 323 325 325 325 321 323 324 322 322 316 319 324 323 321 321 321 319 318 317 317 317 316 316 315 315 315 312 311 310 311 312 312 312

GFSNW_925_thetae_114.txt.gz
Theta_e
319 312 312 313 312 318 312 307 315 316 314 315 308 316 316 317 321 316 313 312 313 319 323 326 325 326 325 324 323 322 320 318 322 323 320 320 323 330 326 331 329 337 338 341
317 311 312 312 312 312 311 305 310 316 315 317 315 314 316 318 319 319 314 314 314 321 322 323 326 325 323 323 324 323 318 318 324 325 325 326 325 330 319 314 319 334 335 332
316 310 311 312 312 312 312 309 314 315 311 309 316 318 319 319 319 318 314 314 320 320 323 322 321 325 323 321 323 335 320 317 323 326 326 326 334 335 335 313 316 319 328 322
314 311 311 312 312 313 311 308 311 316 321 320 323 320 324 326 326 316 315 321 317 320 323 323 322 323 321 321 322 322 318 320 322 322 329 333 335 335 338 334 335 319 331 342
312 311 311 311 312 313 311 306 318 317 321 322 325 321 324 323 322 317 315 320 320 319 320 319 317 320 321 322 320 320 320 324 329 332 329 332 333 333 337 338 343 341 341 348
311 310 311 311 311 313 309 311 313 317 319 323 325 324 323 328 324 314 314 320 321 320 319 316 316 315 315 321 322 321 325 326 326 329 329 330 334 332 334 336 340 341 346 341
310 310 311 311 311 312 313 310 309 318 323 324 326 329 328 328 326 315 315 318 318 317 312 312 315 314 317 319 319 316 323 324 327 329 328 334 329 330 330 332 334 339 344 342
310 310 311 312 311 312 312 312 309 316 325 324 326 327 326 318 313 314 314 313 313 308 310 314 317 317 320 320 320 319 317 322 325 328 329 328 335 334 331 330 332 336 342 343
310 310 311 311 312 311 312 311 312 309 320 323 325 326 325 315 314 315 315 311 308 309 314 318 321 321 323 322 324 319 319 317 322 324 329 333 329 330 329 328 335 334 339 344
310 310 310 311 311 312 313 311 312 309 317 319 322 325 322 320 317 314 312 314 313 311 316 320 320 322 324 322 325 325 322 321 324 326 326 326 323 328 329 335 331 335 340 341
310 310 310 311 312 312 312 311 312 311 310 311 318 321 321 319 315 315 312 315 314 311 318 320 321 321 322 321 320 327 323 324 324 321 324 324 323 327 332 327 332 334 335 336
310 311 310 311 312 312 312 311 310 312 309 310 313 315 317 320 321 317 313 315 314 312 316 317 318 322 319 316 323 321 327 322 324 322 322 318 319 324 324 326 331 331 333 330
311 311 311 312 313 313 312 311 312 310 308 313 315 318 317 317 319 320 313 314 315 314 312 315 318 321 316 321 320 322 322 320 324 322 324 324 324 323 326 330 331 331 330 329
311 312 311 312 313 313 312 311 312 312 307 315 316 319 318 319 317 319 318 313 314 310 309 311 313 317 313 317 317 321 320 321 321 322 324 325 323 323 321 326 328 332 328 328
312 312 311 311 311 311 311 311 311 312 309 314 314 314 316 317 317 319 316 314 312 311 312 311 313 311 314 310 312 317 316 320 323 323 321 320 320 320 321 328 330 331 331 334
312 312 311 311 311 311 311 307 311 313 313 311 317 314 318 320 318 317 314 312 311 311 313 312 310 313 313 315 315 313 313 312 316 320 318 317 318 319 319 324 325 326 328 330
312 313 311 310 310 311 309 309 309 311 310 312 318 319 318 319 313 313 313 312 311 313 312 314 315 315 310 313 317 318 316 315 315 318 318 320 318 319 319 320 322 326 329 330
312 311 311 311 312 312 311 314 312 309 309 314 321 319 317 318 314 317 312 314 311 313 314 315 316 315 312 316 313 313 317 320 320 318 317 318 316 317 319 319 322 326 327 326
311 310 311 312 311 307 308 311 311 310 312 316 314 316 320 318 316 314 316 313 317 312 317 317 317 316 321 318 315 315 319 321 319 317 316 316 318 318 318 319 322 323 320 320
311 311 310 307 308 314 311 315 311 309 312 313 318 317 321 321 319 319 318 315 316 320 317 315 319 319 317 316 315 315 318 317 317 319 318 317 317 318 318 320 320 320 318 317
311 309 309 312 315 314 313 316 317 316 317 311 315 318 317 316 325 324 320 318 317 322 319 320 319 319 316 317 317 315 316 315 316 318 318 317 318 316 316 317 318 317 317 317
310 310 311 313 315 314 316 317 315 317 316 312 314 317 315 318 320 324 323 324 322 324 319 323 323 320 317 316 320 318 316 316 317 317 317 316 316 316 317 317 316 316 315 315
310 312 317 316 315 316 317 319 318 316 316 315 316 319 318 318 319 322 324 325 325 320 323 324 322 317 317 317 319 319 318 317 318 318 318 318 317 316 316 316 316 315 315 315
313 318 316 315 316 315 315 315 315 313 315 317 314 318 317 315 320 322 326 324 324 325 323 323 322 320 317 318 318 320 320 319 320 319 318 316 315 315 316 316 315 315 314 313
316 317 318 318 314 313 314 314 316 316 316 315 319 319 317 318 321 320 322 325 326 324 324 320 316 315 315 317 319 321 320 318 318 316 316 315 315 315 314 315 315 314 313 312
314 316 318 314 316 314 315 315 317 317 317 317 317 321 320 321 320 324 324 325 326 323 321 317 316 315 315 317 318 320 319 317 316 316 315 315 315 314 313 313 313 313 313 311
316 316 312 313 312 313 312 313 316 316 318 321 321 322 322 318 321 324 322 322 319 318 320 320 320 320 318 317 318 317 317 315 314 314 315 315 314 312 311 310 311 312 312 313

GFSNW_925_thetae_117.txt.gz
Theta_e
316 316 311 311 311 315 317 307 320 315 313 321 316 322 321 317 322 319 315 314 315 320 325 328 327 327 327 325 325 325 323 325 328 327 324 323 335 337 338 340 340 344 346 338
317 316 311 311 311 311 311 312 314 315 313 322 322 319 319 319 320 321 315 316 316 323 326 325 327 326 324 324 325 326 323 325 327 328 328 329 332 336 330 326 331 340 338 334
316 314 311 311 311 311 312 313 319 320 318 315 321 322 322 323 320 321 319 317 323 325 326 325 324 326 324 323 324 332 323 324 327 326 330 331 339 338 339 331 330 333 333 334
315 313 311 311 311 311 311 311 314 318 325 322 321 321 325 325 326 321 317 321 321 324 325 326 326 325 324 323 324 325 324 327 326 326 332 334 334 336 341 336 340 327 331 345
314 312 311 311 311 312 311 312 323 321 326 325 327 324 329 327 327 325 317 322 321 324 325 324 324 324 326 327 325 326 326 329 330 333 331 330 335 332 338 343 345 346 345 349
311 311 311 311 311 312 310 309 313 320 322 326 328 328 326 325 328 324 318 321 323 322 323 323 319 320 322 324 326 328 331 333 332 330 330 330 334 333 332 339 341 344 348 347
310 310 311 311 311 311 312 311 310 318 323 327 329 329 328 329 328 327 316 322 324 321 318 319 321 322 323 325 326 322 330 332 334 332 331 333 331 331 332 334 336 341 345 344
310 310 311 311 311 311 312 312 312 316 324 326 325 327 328 326 317 322 319 319 318 318 317 321 322 324 325 324 326 326 324 330 332 333 334 330 334 332 333 332 332 337 344 345
310 310 310 311 312 312 312 312 312 312 321 319 324 328 327 322 317 317 316 313 313 318 321 322 325 329 327 326 329 324 325 326 330 331 332 332 332 331 330 330 336 334 344 344
310 310 310 310 311 312 312 312 312 311 315 317 324 327 325 322 320 319 317 316 317 317 324 326 330 332 328 330 329 331 330 330 332 334 334 330 327 328 330 337 335 337 343 342
309 310 311 311 311 312 312 312 312 312 313 315 316 322 323 322 319 320 317 320 318 321 326 327 330 331 331 327 326 331 332 335 337 331 335 331 326 329 335 332 334 339 342 341
310 311 311 311 311 312 313 312 310 311 312 315 312 314 314 319 321 322 319 320 321 322 324 325 327 330 326 327 330 325 336 330 336 332 331 328 327 329 329 330 337 338 340 338
309 311 312 312 312 312 313 311 311 310 310 313 314 317 316 315 314 316 319 320 320 320 320 325 327 331 325 329 329 329 328 326 332 330 330 329 329 328 328 333 335 337 338 337
309 312 312 311 312 313 313 312 311 312 311 317 320 317 318 319 318 318 317 316 316 317 318 322 326 326 322 326 326 328 327 328 331 330 329 329 329 329 328 332 335 334 334 335
310 312 312 311 311 312 312 312 311 312 312 316 316 314 316 317 316 318 319 318 319 319 320 322 323 321 323 319 322 327 326 331 331 325 332 332 332 327 330 336 337 334 333 334
310 312 312 312 311 310 311 312 311 311 312 313 319 317 319 319 318 318 316 316 318 318 321 320 318 319 324 325 328 325 324 324 327 328 327 327 328 327 326 333 335 334 333 334
311 312 313 311 310 310 311 312 309 310 312 313 319 322 321 318 315 316 316 316 317 319 320 323 325 322 321 323 329 326 323 323 322 322 325 325 326 329 327 328 332 331 333 335
311 312 311 311 311 312 311 312 311 310 311 312 323 324 320 321 319 321 317 320 319 318 321 320 324 320 320 326 325 323 323 323 323 324 324 325 327 326 326 326 331 335 334 335
311 311 310 311 311 311 309 310 312 311 309 319 320 322 325 322 321 319 320 320 324 319 323 323 324 325 333 328 328 323 325 327 327 325 323 323 326 327 326 327 330 333 334 334
310 311 311 314 309 310 310 312 311 311 312 316 322 320 323 325 324 323 323 321 323 323 323 320 325 328 328 327 326 327 326 326 325 325 324 324 325 326 326 327 328 330 331 330
310 312 311 310 313 314 316 320 318 315 320 318 320 321 319 321 330 328 325 324 323 326 326 325 328 328 326 328 327 326 323 324 325 327 326 325 325 325 326 326 326 327 328 327
310 310 310 312 318 317 318 321 318 319 319 317 318 320 319 322 326 329 327 329 328 328 324 328 333 328 328 327 327 328 324 324 324 324 325 324 324 324 324 325 325 325 326 323
310 311 316 318 317 318 321 321 322 321 320 319 318 321 321 324 326 327 328 327 329 325 328 332 330 328 326 327 324 326 325 323 324 323 323 322 323 323 323 324 324 322 321 320
313 317 316 319 319 318 319 319 319 318 319 322 318 323 323 322 326 328 327 325 325 328 329 328 327 331 332 328 325 325 325 324 324 324 323 322 321 321 322 323 322 321 320 318
316 318 320 318 317 316 317 317 319 321 321 320 323 323 323 325 325 326 326 328 328 326 326 325 327 329 325 324 324 325 326 326 326 324 324 323 322 321 321 320 320 321 319 317
314 317 319 318 319 319 318 319 321 321 322 321 323 324 325 325 325 326 327 327 328 327 326 325 324 328 328 324 323 325 327 326 326 324 323 323 322 321 320 319 319 319 316 314
316 317 316 317 317 317 318 317 320 320 323 326 325 324 324 322 325 326 325 325 325 328 323 327 327 328 329 327 324 325 326 326 324 323 323 322 321 320 318 319 317 317 316 315

GFSNW_925_thetae_120.txt.gz
Theta_e
318 317 316 312 311 313 318 315 319 317 315 320 322 324 326 320 324 323 320 319 319 320 321 323 324 326 328 327 325 325 326 326 328 328 328 328 328 335 335 338 337 339 339 348
318 317 315 312 311 311 314 323 319 317 318 322 323 323 324 325 325 322 320 319 320 322 322 323 322 323 326 326 324 325 325 324 327 327 328 330 330 334 336 334 336 343 339 340
316 315 313 312 311 311 314 320 320 322 320 323 323 321 324 325 323 323 322 320 320 323 324 324 323 322 324 325 324 328 324 321 322 325 328 332 337 337 338 337 335 333 334 336
315 313 312 311 311 311 314 317 318 324 321 322 322 322 321 324 327 325 324 324 322 322 324 324 324 323 324 324 326 327 326 326 323 323 324 330 333 335 337 337 336 337 332 335
313 311 311 311 311 312 316 320 322 324 329 328 323 320 324 324 326 328 323 324 324 323 324 323 323 324 325 323 326 328 328 329 327 327 325 329 331 331 332 337 339 340 341 341
311 311 311 311 311 312 317 314 316 322 323 329 328 323 324 324 325 328 327 323 323 322 323 323 323 323 324 324 325 327 329 330 332 330 327 329 330 329 331 333 335 337 340 343
310 310 311 311 311 311 314 315 313 316 324 324 329 329 328 327 329 330 323 325 324 324 325 324 323 323 324 324 324 325 328 329 329 330 331 337 328 330 330 331 332 334 335 341
310 310 311 311 311 311 313 314 316 315 322 322 325 329 331 330 330 330 327 322 324 325 324 323 324 323 322 322 322 324 325 328 328 332 332 328 328 331 333 334 332 330 332 344
310 310 310 311 311 312 312 313 314 316 320 321 321 326 328 331 328 324 322 319 324 324 322 323 325 325 324 325 328 327 326 330 331 329 334 332 335 333 331 331 335 332 335 345
309 310 310 311 311 311 313 314 313 315 317 318 319 325 325 327 324 323 321 320 321 322 323 324 325 325 328 329 328 331 330 331 330 329 333 329 330 331 331 337 339 339 342 346
308 310 310 311 311 311 312 314 313 314 318 318 318 319 324 326 324 323 322 320 321 322 324 324 326 324 330 330 329 330 331 333 332 331 334 334 329 331 336 336 338 341 344 346
307 309 311 311 311 311 312 314 312 312 314 318 316 317 317 318 320 324 322 324 322 322 324 325 326 327 331 328 331 329 335 331 334 331 333 334 332 332 332 333 340 342 343 342
307 309 311 312 312 312 312 314 311 311 315 318 318 319 318 318 317 317 323 322 325 324 328 325 325 328 327 328 328 330 331 332 331 333 333 333 333 332 332 336 339 342 339 340
308 310 312 312 312 312 313 313 313 312 314 320 321 320 321 320 318 317 317 320 321 323 326 326 325 326 329 327 331 330 331 332 329 328 331 333 334 336 336 337 340 340 337 335
308 310 312 312 312 312 313 313 312 312 314 320 320 317 318 317 318 320 319 317 321 324 326 326 325 327 328 327 328 326 331 330 327 328 327 335 334 334 336 339 338 338 337 336
309 310 312 313 312 311 311 313 313 312 311 317 320 319 320 321 319 320 322 321 322 323 324 326 325 327 327 326 326 326 327 329 331 328 329 332 331 331 332 336 336 335 336 334
309 311 313 313 311 311 312 315 312 312 311 317 320 323 322 322 321 322 324 322 322 324 324 325 326 327 324 323 325 325 325 329 331 329 331 331 329 329 331 334 335 334 335 333
310 311 312 311 311 311 312 313 311 311 313 315 321 324 323 323 322 322 321 323 324 324 325 325 325 325 325 323 323 322 326 329 329 328 329 328 329 329 329 329 331 335 336 335
309 311 311 311 311 313 315 310 309 312 312 320 322 323 326 324 323 323 324 325 325 325 325 324 326 324 329 324 324 324 327 330 328 328 330 328 330 329 328 329 330 331 333 335
309 311 312 315 314 311 311 312 316 314 315 316 320 322 324 325 324 323 324 323 325 326 326 326 324 325 326 325 326 330 328 329 328 330 331 330 329 329 328 329 328 330 334 333
309 312 314 313 313 313 316 321 319 319 321 319 320 321 321 323 331 325 325 324 324 327 327 325 326 328 326 326 326 327 329 330 329 329 329 329 329 329 329 328 327 328 330 333
311 311 311 312 318 319 321 322 321 321 322 321 320 321 321 321 327 332 329 326 327 327 326 326 331 329 327 326 326 327 330 328 328 328 328 328 328 327 328 327 327 327 328 332
310 311 315 319 320 323 322 322 322 322 320 320 320 321 321 324 327 330 330 327 326 327 329 327 328 327 327 327 327 328 327 329 328 328 328 328 327 326 327 328 327 326 329 330
313 316 321 320 319 320 321 320 320 320 321 323 321 321 323 323 325 326 327 327 327 326 327 328 326 329 331 331 331 330 328 328 329 329 328 328 328 328 327 327 327 328 328 328
314 317 322 319 319 319 319 320 320 322 323 324 322 323 325 325 323 323 326 326 328 326 325 324 324 329 332 331 330 329 328 328 329 330 329 328 328 328 328 327 328 327 327 326
314 317 320 320 320 320 320 320 321 322 324 326 324 323 322 322 322 323 323 322 324 324 326 326 328 330 333 335 331 329 329 328 328 328 328 328 328 328 328 327 327 327 326 325
316 318 318 319 320 319 320 320 321 324 326 324 324 323 323 323 324 322 322 323 321 321 324 326 331 333 334 334 333 329 329 331 328 329 328 328 328 327 328 328 326 326 325 324

GFSNW_925_thetae_123.txt.gz
Theta_e
319 318 316 315 314 313 319 322 323 320 317 316 319 322 324 327 330 325 324 323 323 322 323 324 324 327 329 328 327 327 328 328 330 330 330 329 333 337 337 336 340 341 341 347
318 316 315 313 312 312 316 325 325 321 317 317 319 321 323 327 329 326 323 322 322 322 323 325 324 324 327 326 325 325 327 327 326 328 327 330 329 328 329 336 338 343 344 343
317 316 314 312 312 312 315 324 323 324 320 320 322 324 324 327 327 326 324 322 322 323 325 325 325 323 324 323 322 334 325 322 322 323 325 329 332 333 337 338 336 337 338 338
315 314 312 311 311 312 315 324 323 325 324 320 321 325 324 325 327 326 325 324 322 323 325 326 326 324 324 324 329 323 324 326 325 323 322 323 324 334 335 336 340 334 335 339
312 311 311 311 311 312 319 323 325 325 326 329 321 320 324 323 326 327 326 326 325 323 325 327 326 325 326 325 327 327 327 329 327 327 325 324 324 328 335 335 335 337 336 336
310 310 311 311 311 314 320 319 317 322 323 325 328 325 323 324 323 326 327 326 326 325 325 325 324 324 324 325 325 326 329 329 329 330 327 329 330 327 329 332 330 336 339 338
310 310 311 311 311 312 317 318 318 320 321 324 327 326 323 322 324 326 328 328 326 326 325 325 324 323 324 324 323 323 325 330 329 328 327 332 330 328 330 332 329 331 334 335
310 310 311 311 311 312 316 316 318 319 323 322 323 327 332 327 325 327 327 327 327 326 325 325 325 326 326 326 324 323 324 326 328 331 333 332 328 331 332 334 331 329 332 334
309 310 311 311 311 311 314 316 316 318 321 321 321 324 327 330 330 329 328 326 325 326 325 325 327 328 327 326 326 326 323 326 328 329 332 338 332 329 328 332 334 332 332 332
309 309 310 311 311 311 313 316 316 317 322 319 320 321 325 328 331 331 327 325 325 326 325 324 326 327 326 326 326 332 330 329 329 329 330 333 331 333 331 336 339 339 335 334
309 308 310 311 311 311 312 317 316 316 320 321 320 320 321 325 328 329 325 325 325 324 325 325 326 329 327 327 327 329 330 331 333 333 335 338 331 331 331 339 337 341 346 347
310 308 310 311 312 311 311 315 316 315 315 319 317 318 319 320 321 324 327 325 326 323 324 326 325 328 326 329 329 331 331 332 339 333 335 335 333 331 334 334 337 340 346 345
310 308 310 312 312 312 311 315 314 314 316 320 320 320 318 318 319 320 324 324 328 325 330 327 327 327 327 328 328 333 331 331 329 332 335 332 333 333 332 335 340 343 343 343
310 308 310 312 312 312 312 313 314 314 315 321 323 320 320 320 320 319 319 321 323 326 327 327 326 325 326 327 331 330 334 331 329 329 328 332 334 335 337 339 339 340 341 339
309 308 310 312 312 312 313 314 314 314 315 320 323 319 319 320 320 320 319 319 321 326 327 326 327 326 329 326 328 326 331 328 328 331 330 340 337 337 338 339 338 337 337 337
309 309 311 312 313 312 313 315 315 313 313 316 324 321 321 321 319 320 321 321 322 325 327 326 326 327 324 327 327 326 328 327 326 330 328 335 334 335 337 338 337 335 336 335
308 310 311 313 313 311 314 317 313 314 312 317 324 323 322 321 322 321 323 323 324 325 325 326 328 328 323 324 326 327 326 327 329 326 329 332 330 331 331 335 335 335 334 333
309 310 312 312 312 311 313 314 311 312 313 317 323 324 324 322 322 323 325 326 325 325 324 324 327 329 325 325 324 324 324 327 328 326 327 329 329 330 330 332 333 336 336 334
308 309 312 311 311 314 315 312 312 313 314 321 322 325 327 324 323 324 325 325 327 325 327 328 327 330 328 326 326 326 324 326 328 327 326 328 329 330 329 329 331 335 335 334
307 310 313 316 315 314 312 313 316 316 314 319 322 323 327 324 325 325 325 325 327 329 328 327 328 330 329 328 327 327 326 325 326 327 327 328 329 330 330 329 329 329 332 333
310 313 314 314 311 314 319 322 322 322 322 322 321 321 323 323 329 327 326 332 330 331 329 329 331 332 331 327 327 328 327 326 327 328 327 327 328 330 330 328 328 329 329 333
311 312 312 316 318 320 321 323 322 322 321 322 322 321 322 323 325 333 331 330 328 332 327 328 334 329 329 328 327 327 327 327 327 328 327 327 327 327 329 328 328 328 329 330
310 311 314 320 321 324 323 324 324 323 321 322 321 323 322 323 324 328 329 331 332 329 331 331 330 328 328 329 328 326 327 327 327 327 326 327 326 325 326 327 327 328 330 331
313 316 324 321 322 322 321 322 322 321 322 324 322 322 323 322 324 326 327 328 329 330 330 328 326 333 329 328 327 327 327 327 328 327 327 328 328 327 325 326 327 328 330 330
314 317 320 319 320 321 320 320 321 321 322 325 325 324 323 324 323 323 326 328 329 327 326 325 327 329 330 331 331 329 329 328 328 328 329 328 328 327 327 326 327 328 329 329
314 316 320 321 322 322 321 321 321 321 325 323 323 324 322 323 321 323 324 324 326 326 326 329 331 333 333 334 332 330 329 328 328 328 328 328 329 329 329 328 328 329 329 329
316 319 318 319 321 322 322 322 322 324 324 323 324 324 324 322 323 323 322 323 323 323 324 328 334 335 336 334 334 334 331 330 329 329 330 330 329 329 329 332 330 329 330 330

GFSNW_925_thetae_126.txt.gz
Theta_e
318 317 317 317 316 315 320 322 327 324 321 321 322 321 319 320 325 330 327 325 325 325 325 325 325 327 329 329 328 328 328 328 330 331 330 331 330 332 335 337 337 338 343 344
318 317 316 315 313 312 315 325 326 323 321 321 320 321 321 322 324 329 328 325 324 324 324 325 326 326 329 329 328 327 327 328 327 325 327 329 330 329 330 334 334 340 348 347
317 315 315 313 312 312 314 325 327 326 324 321 318 320 321 322 324 328 328 325 323 323 323 325 327 324 325 325 324 332 324 326 324 324 325 324 329 331 332 334 336 337 340 341
315 314 312 311 311 312 315 326 325 324 326 326 321 321 323 325 324 326 328 326 324 323 325 326 326 325 325 324 331 322 321 322 322 323 324 324 323 323 325 334 333 336 337 339
313 311 311 311 312 313 318 326 326 324 325 324 327 323 322 326 326 327 328 328 325 324 325 327 328 327 326 326 326 327 324 326 327 327 325 324 324 325 324 330 332 332 333 340
311 310 311 311 312 313 322 322 323 323 322 323 325 328 322 323 324 325 328 327 326 325 324 325 327 326 326 326 327 327 327 328 330 330 328 329 329 328 330 332 333 332 335 336
310 310 311 311 311 312 317 320 321 325 325 322 322 324 326 329 323 326 326 328 328 327 326 326 326 326 324 325 325 323 324 328 329 330 327 328 328 331 331 331 331 329 330 334
310 310 311 311 312 311 315 318 320 323 326 322 323 324 325 328 332 325 325 328 329 329 326 327 327 326 325 325 326 325 323 326 327 329 330 330 330 332 331 331 332 332 334 334
311 309 310 311 312 311 313 317 317 318 323 324 320 322 323 327 332 331 324 326 329 327 328 328 329 328 328 330 328 326 324 325 326 328 330 332 333 332 330 331 332 328 337 335
310 309 309 310 311 312 313 316 318 318 322 321 321 322 323 323 329 334 332 330 328 327 329 327 327 328 328 330 329 329 331 327 327 329 329 329 334 331 332 339 342 334 332 334
310 310 308 310 311 312 312 316 318 317 321 322 321 321 323 323 326 334 331 329 327 326 330 328 327 327 331 331 329 326 330 336 335 334 337 338 334 334 337 340 338 331 329 326
310 310 308 310 311 312 312 315 318 317 317 319 318 318 319 320 321 324 326 329 331 326 326 328 326 328 330 329 329 328 328 329 334 336 339 336 334 334 332 331 336 337 329 325
309 310 309 309 312 313 312 315 315 315 316 319 320 321 319 319 319 320 329 326 326 327 327 332 328 334 330 330 329 332 333 331 334 336 334 334 333 332 332 332 334 336 333 339
309 309 309 310 312 313 312 313 314 315 315 320 322 322 322 321 319 318 320 323 322 322 325 331 329 331 329 329 331 333 336 333 331 331 330 336 336 336 334 338 339 342 341 340
309 309 309 310 312 312 312 313 313 314 315 321 321 318 320 321 321 321 320 321 323 324 327 326 330 329 327 329 329 332 332 332 332 334 337 338 337 331 337 340 340 336 340 339
308 309 309 310 312 313 314 316 316 315 313 315 322 321 321 321 321 322 322 323 323 322 324 328 327 327 329 332 330 335 330 328 330 331 337 337 335 335 338 337 337 337 337 337
308 309 309 311 313 313 314 317 313 316 313 315 323 325 322 321 322 322 322 322 322 324 324 325 328 330 330 328 328 329 329 328 329 326 331 336 332 342 338 337 336 334 334 332
309 309 310 312 312 312 313 314 312 314 313 317 325 324 325 323 324 324 323 324 326 326 324 325 327 328 330 330 328 329 326 328 329 326 328 331 330 331 331 332 334 336 335 333
308 308 310 312 311 313 316 314 313 313 314 321 324 325 330 325 326 324 324 326 329 325 328 329 328 329 336 331 335 327 325 325 329 327 326 329 332 331 330 331 331 334 334 334
307 310 313 316 315 315 313 313 316 316 316 317 323 323 328 326 327 329 329 328 329 330 328 328 329 330 330 329 332 330 327 326 325 328 329 328 333 331 329 328 334 334 335 333
310 313 315 315 314 315 318 321 322 321 323 322 322 321 324 325 329 331 329 334 333 334 332 329 331 332 334 335 334 333 328 328 326 326 328 327 328 332 330 329 329 331 335 334
312 312 312 314 318 319 322 324 323 324 324 323 323 322 322 326 330 331 328 332 332 334 331 329 332 333 334 336 333 330 330 328 327 326 328 328 327 329 332 330 329 329 334 335
309 311 314 319 321 323 323 324 325 325 322 323 323 324 325 324 328 331 328 330 333 332 334 332 331 335 335 337 332 330 331 329 329 326 327 327 327 327 331 331 328 329 333 335
312 315 315 320 322 322 322 323 325 325 325 325 321 322 323 324 325 327 329 330 329 334 333 334 330 338 337 336 332 332 329 329 331 331 331 329 331 331 330 329 329 330 332 335
313 316 319 320 321 321 322 322 322 325 324 324 327 326 324 325 327 328 327 328 329 329 328 331 335 340 339 336 331 330 330 330 331 332 331 330 329 332 330 328 329 331 332 332
313 315 319 321 324 323 324 324 326 324 325 322 324 327 326 327 326 326 327 324 327 330 329 332 336 341 339 338 333 331 329 329 329 330 330 329 329 333 331 329 330 333 333 333
315 318 318 319 322 324 323 322 323 322 324 322 322 325 327 325 324 323 323 323 324 327 331 333 329 332 341 338 334 333 332 331 330 331 331 331 330 331 331 334 331 333 333 333

GFSNW_925_thetae_129.txt.gz
Theta_e
317 317 316 316 314 315 317 320 326 323 323 324 324 325 323 318 319 319 320 325 325 324 327 327 327 330 329 327 328 328 326 324 327 328 326 328 328 329 329 332 335 336 337 343
316 316 316 314 312 311 312 322 325 324 323 322 322 321 321 322 321 320 321 326 326 323 325 325 325 329 328 328 325 326 324 326 326 324 322 324 329 329 333 331 330 340 338 342
316 315 314 312 311 311 313 321 328 325 325 323 324 322 320 320 321 320 321 322 325 324 324 325 327 328 327 325 323 330 323 322 325 322 322 320 322 323 325 330 331 333 337 339
314 313 311 311 312 312 314 323 327 325 327 327 325 325 327 325 321 324 323 328 326 324 325 324 325 326 324 323 332 321 319 321 322 320 320 323 324 323 323 322 332 332 331 335
314 311 311 311 312 312 316 325 326 325 325 324 324 324 328 328 321 323 326 328 328 325 327 325 327 325 327 327 323 324 320 322 325 328 326 324 324 323 323 323 329 331 332 340
312 311 311 311 312 313 321 321 321 324 324 324 324 324 325 326 327 330 329 326 328 327 324 324 324 327 326 326 325 326 327 326 332 330 329 326 326 331 330 330 332 333 332 334
311 311 311 311 312 311 314 317 320 324 327 326 324 324 323 325 325 327 328 330 329 329 326 325 325 323 323 325 324 322 326 325 327 329 329 332 326 330 329 330 330 328 329 343
311 311 310 311 312 312 312 315 319 322 327 326 325 323 324 324 323 329 332 329 328 326 328 326 328 327 326 326 325 323 321 327 326 327 328 327 329 332 330 329 330 331 330 343
310 311 310 310 310 312 311 315 317 319 321 322 321 323 323 323 323 327 333 330 327 327 329 328 333 330 329 328 329 327 323 324 325 326 332 332 330 332 332 331 334 336 337 339
311 310 311 309 310 312 312 314 316 318 321 320 321 324 325 322 323 326 330 329 329 327 330 331 331 330 331 332 332 331 328 328 326 327 329 329 333 332 333 337 338 332 334 336
309 310 310 309 310 311 312 313 315 317 320 319 318 319 322 325 324 331 328 329 329 329 330 331 331 329 332 332 334 330 329 332 333 334 336 340 336 334 337 337 337 333 331 330
309 309 310 309 310 312 312 313 316 317 318 318 316 316 316 318 321 323 326 328 328 329 330 330 331 330 331 333 334 330 328 329 335 334 337 335 334 330 330 334 338 336 328 329
309 309 309 310 309 312 313 313 314 315 315 317 318 319 318 317 318 320 329 329 326 325 324 327 335 332 330 334 333 331 335 335 336 335 335 332 330 335 335 335 332 336 328 330
309 309 308 310 309 312 313 313 314 315 315 317 318 318 316 319 318 320 321 325 323 322 322 326 334 331 331 332 331 338 337 332 334 334 336 335 337 337 329 336 330 328 335 331
308 308 308 309 310 312 313 313 313 313 315 318 318 315 317 319 320 319 319 319 319 322 326 329 331 330 328 329 332 336 331 331 333 335 335 335 337 335 332 331 331 327 330 336
307 308 309 309 310 312 313 316 316 315 314 314 319 318 319 321 321 320 319 319 320 324 326 326 329 327 331 333 333 334 331 332 331 338 336 337 335 331 328 328 329 328 331 336
308 309 309 309 311 313 314 317 314 316 314 315 319 324 323 321 323 323 323 321 323 324 324 325 326 332 330 332 334 329 331 331 328 336 338 340 335 328 332 333 334 331 332 332
308 309 309 310 312 312 312 313 314 315 313 315 321 325 326 325 324 325 323 324 323 325 324 324 326 330 331 334 334 330 326 330 330 331 334 335 337 335 335 335 334 332 330 329
309 308 309 311 311 313 315 315 314 314 314 319 322 326 330 326 327 325 324 325 326 326 323 324 325 331 334 333 331 328 328 327 330 327 328 331 334 333 333 334 333 332 331 330
307 308 313 315 315 315 313 314 315 315 316 317 320 321 328 326 327 328 327 328 329 330 326 324 328 324 327 328 328 327 327 328 328 328 327 332 333 331 330 331 334 333 333 331
309 312 315 315 315 315 317 320 320 319 320 319 320 321 323 326 330 329 327 329 329 332 332 330 331 328 327 327 324 324 323 328 327 328 330 328 328 330 330 330 334 332 333 331
311 312 311 312 317 318 321 323 324 324 324 325 325 324 322 327 327 328 326 330 330 332 330 333 332 328 329 331 326 325 323 329 329 329 328 328 331 330 329 329 333 332 334 332
310 312 313 318 320 320 321 323 326 327 326 324 326 325 327 327 326 326 328 330 333 330 332 334 332 331 330 328 328 331 333 330 329 330 329 328 330 331 329 330 331 334 334 333
312 315 313 318 322 322 322 323 326 326 323 327 325 326 326 326 328 327 329 329 330 333 334 333 333 330 337 334 333 332 332 332 330 329 330 329 332 331 330 329 336 335 336 334
312 314 316 318 318 320 322 323 323 320 323 324 326 327 326 327 328 328 328 329 330 329 334 333 333 331 332 336 333 334 333 331 331 330 330 329 330 332 333 331 334 335 336 335
312 314 316 318 322 323 325 323 326 324 325 324 326 328 328 328 328 330 330 327 329 331 333 332 333 334 332 331 335 333 332 332 331 330 331 329 331 332 331 332 334 336 336 336
314 316 315 316 319 323 323 323 325 322 327 326 325 325 326 327 328 327 328 329 331 334 333 332 331 332 325 321 322 336 337 336 335 333 333 331 329 330 331 331 333 334 335 336